[[{"header":{"parameterUnit":"m.s-1","parameterCategory":1,"la1":30.6,"la2":28.766,"lo1":-90.7593,"lo2":-88.6598,"dy":0.0162,"dx":0.0183,"nx":116,"ny":114,"refTime":"2023-05-01T00:00:00:Z","depth":0,"parameterNumber":2,"parameterNumberName":"U-component_of_WINDS"},"data":[0.0,0.0,0.0,0.0,0.0,0.0,0.0,0.0,0.0,0.0,0.0,0.0,0.0,0.0,0.0,0.0,0.0,0.0,0.0,0.0,0.0,0.0,0.0,0.0,0.0,0.0,0.0,0.0,0.0,0.0,0.0,0.0,0.0,0.0,0.0,0.0,0.0,0.0,0.0,0.0,0.0,0.0,0.0,0.0,0.0,0.0,0.0,0.0,0.0,0.0,0.0,0.0,0.0,0.0,0.0,0.0,0.0,0.0,0.0,0.0,0.0,0.0,0.0,0.0,0.0,0.0,0.0,0.0,0.0,0.0,0.0,0.0,0.0,0.0,0.0,0.0,0.0,0.0,0.0,0.0,0.0,0.0,0.0,0.0,0.0,0.0,0.0,0.0,0.0,0.0,0.0,0.0,0.0,0.0,0.0,0.0,0.0,0.0,0.0,0.0,0.0,0.0,0.0,0.0,0.0,0.0,0.0,0.0,0.0,0.0,0.0,0.0,0.0,0.0,0.0,0.0,0.0,0.0,0.0,0.0,0.0,0.0,0.0,0.0,0.0,0.0,0.0,0.0,0.0,0.0,0.0,0.0,0.0,0.0,0.0,0.0,0.0,0.0,0.0,0.0,0.0,0.0,0.0,0.0,0.0,0.0,0.0,0.0,0.0,0.0,0.0,0.0,0.0,0.0,0.0,0.0,0.0,0.0,0.0,0.0,0.0,0.0,0.0,0.0,0.0,0.0,0.0,0.0,0.0,0.0,0.0,0.0,0.0,0.0,0.0,0.0,0.0,0.0,0.0,0.0,0.0,0.0,0.0,0.0,0.0,0.0,0.0,0.0,0.0,0.0,0.0,0.0,0.0,0.0,0.0,0.0,0.0,0.0,0.0,0.0,0.0,0.0,0.0,0.0,0.0,0.0,0.0,0.0,0.0,0.0,0.0,0.0,0.0,0.0,0.0,0.0,0.0,0.0,0.0,0.0,0.0,0.0,0.0,0.0,0.0,0.0,0.0,0.0,0.0,0.0,0.0,0.0,0.0,0.0,0.0,0.0,0.0,0.0,0.0,0.0,0.0,0.0,0.0,0.0,0.0,0.0,0.0,0.0,0.0,0.0,0.0,0.0,0.0,0.0,0.0,0.0,0.0,0.0,0.0,0.0,0.0,0.0,0.0,0.0,0.0,0.0,0.0,0.0,0.0,0.0,0.0,0.0,0.0,0.0,0.0,0.0,0.0,0.0,0.0,0.0,0.0,0.0,0.0,0.0,0.0,0.0,0.0,0.0,0.0,0.0,0.0,0.0,0.0,0.0,0.0,0.0,0.0,0.0,0.0,0.0,0.0,0.0,0.0,0.0,0.0,0.0,0.0,0.0,0.0,0.0,0.0,0.0,0.0,0.0,0.0,0.0,0.0,0.0,0.0,0.0,0.0,0.0,0.0,0.0,0.0,0.0,0.0,0.0,0.0,0.0,0.0,0.0,0.0,0.0,0.0,0.0,0.0,0.0,0.0,0.0,0.0,0.0,0.0,0.0,0.0,0.0,0.0,0.0,0.0,0.0,0.0,0.0,0.0,0.0,0.0,0.0,0.0,0.0,0.0,0.0,0.0,0.0,0.0,0.0,0.0,0.0,0.0,0.0,0.0,0.0,0.0,0.0,0.0,0.0,0.0,0.0,0.0,0.0,0.0,0.0,0.0,0.0,0.0,0.0,0.0,0.0,0.0,0.0,0.0,0.0,0.0,0.0,0.0,0.0,0.0,0.0,0.0,0.0,0.0,0.0,0.0,0.0,0.0,0.0,0.0,0.0,0.0,0.0,0.0,0.0,0.0,0.0,0.0,0.0,0.0,0.0,0.0,0.0,0.0,0.0,0.0,0.0,0.0,0.0,0.0,0.0,0.0,0.0,0.0,0.0,0.0,0.0,0.0,0.0,0.0,0.0,0.0,0.0,0.0,0.0,0.0,0.0,0.0,0.0,0.0,0.0,0.0,0.0,0.0,0.0,0.0,0.0,0.0,0.0,0.0,0.0,0.0,0.0,0.0,0.0,0.0,0.0,0.0,0.0,0.0,0.0,0.0,0.0,0.0,0.0,0.0,0.0,0.0,0.0,0.0,0.0,0.0,0.0,0.0,0.0,0.0,0.0,0.0,0.0,0.0,0.0,0.0,0.0,0.0,0.0,0.0,0.0,0.0,0.0,0.0,0.0,0.0,0.0,0.0,0.0,0.0,0.0,0.0,0.0,0.0,0.0,0.0,0.0,0.0,0.0,0.0,0.0,0.0,0.0,0.0,0.0,0.0,0.0,0.0,0.0,0.0,0.0,0.0,0.0,0.0,0.0,0.0,0.0,0.0,0.0,0.0,0.0,0.0,0.0,0.0,0.0,0.0,0.0,0.0,0.0,0.0,0.0,0.0,0.0,0.0,0.0,0.0,0.0,0.0,0.0,0.0,0.0,0.0,0.0,0.0,0.0,0.0,0.0,0.0,0.0,0.0,0.0,0.0,0.0,0.0,0.0,0.0,0.0,0.0,0.0,0.0,0.0,0.0,0.0,0.0,0.0,0.0,0.0,0.0,0.0,0.0,0.0,0.0,0.0,0.0,0.0,0.0,0.0,0.0,0.0,0.0,0.0,0.0,0.0,0.0,0.0,0.0,0.0,0.0,0.0,0.0,0.0,0.0,0.0,0.0,0.0,0.0,0.0,0.0,0.0,0.0,0.0,0.0,0.0,0.0,0.0,0.0,0.0,0.0,0.0,0.0,0.0,0.0,0.0,0.0,0.0,0.0,0.0,0.0,0.0,0.0,0.0,0.0,0.0,0.0,0.0,0.0,0.0,0.0,0.0,0.0,0.0,0.0,0.0,0.0,0.0,0.0,0.0,0.0,0.0,0.0,0.0,0.0,0.0,0.0,0.0,0.0,0.0,0.0,0.0,0.0,0.0,0.0,0.0,0.0,0.0,0.0,0.0,0.0,0.0,0.0,0.0,0.0,0.0,0.0,0.0,0.0,0.0,0.0,0.0,0.0,0.0,0.0,0.0,0.0,0.0,0.0,0.0,0.0,0.0,0.0,0.0,0.0,0.0,0.0,0.0,0.0,0.0,0.0,0.0,0.0,0.0,0.0,0.0,0.0,0.0,0.0,0.0,0.0,0.0,0.0,0.0,0.0,0.0,0.0,0.0,0.0,0.0,0.0,0.0,0.0,0.0,0.0,0.0,0.0,0.0,0.0,0.0,0.0,0.0,0.0,0.0,0.0,0.0,0.0,0.0,0.0,0.0,0.0,0.0,0.0,0.0,0.0,0.0,0.0,0.0,0.0,0.0,0.0,0.0,0.0,0.0,0.0,0.0,0.0,0.0,0.0,0.0,0.0,0.0,0.0,0.0,0.0,0.0,0.0,0.0,0.0,0.0,0.0,0.0,0.0,0.0,0.0,0.0,0.0,0.0,0.0,0.0,0.0,0.0,0.0,0.0,0.0,0.0,0.0,0.0,0.0,0.0,0.0,0.0,0.0,0.0,0.0,0.0,0.0,0.0,0.0,0.0,0.0,0.0,0.0,0.0,0.0,0.0,0.0,0.0,0.0,0.0,0.0,0.0,0.0,0.0,0.0,0.0,0.0,0.0,0.0,0.0,0.0,0.0,0.0,0.0,0.0,0.0,0.0,0.0,0.0,0.0,0.0,0.0,0.0,0.0,0.0,0.0,0.0,0.0,0.0,0.0,0.0,0.0,0.0,0.0,0.0,0.0,0.0,0.0,0.0,0.0,0.0,0.0,0.0,0.0,0.0,0.0,0.0,0.0,0.0,0.0,0.0,0.0,0.0,0.0,0.0,0.0,0.0,0.0,0.0,0.0,0.0,0.0,0.0,0.0,0.0,0.0,0.0,0.0,0.0,0.0,0.0,0.0,0.0,0.0,0.0,0.0,0.0,0.0,0.0,0.0,0.0,0.0,0.0,0.0,0.0,0.0,0.0,0.0,0.0,0.0,0.0,0.0,0.0,0.0,0.0,0.0,0.0,0.0,0.0,0.0,0.0,0.0,0.0,0.0,0.0,0.0,0.0,0.0,0.0,0.0,0.0,0.0,0.0,0.0,0.0,0.0,0.0,0.0,0.0,0.0,0.0,0.0,0.0,0.0,0.0,0.0,0.0,0.0,0.0,0.0,0.0,0.0,0.0,0.0,0.0,0.0,0.0,0.0,0.0,0.0,0.0,0.0,0.0,0.0,0.0,0.0,0.0,0.0,0.0,0.0,0.0,0.0,0.0,0.0,0.0,0.0,0.0,0.0,0.0,0.0,0.0,0.0,0.0,0.0,0.0,0.0,0.0,0.0,0.0,0.0,0.0,0.0,0.0,0.0,0.0,0.0,0.0,0.0,0.0,0.0,0.0,0.0,0.0,0.0,0.0,0.0,0.0,0.0,0.0,0.0,0.0,0.0,0.0,0.0,0.0,0.0,0.0,0.0,0.0,0.0,0.0,0.0,0.0,0.0,0.0,0.0,0.0,0.0,0.0,0.0,0.0,0.0,0.0,0.0,0.0,0.0,0.0,0.0,0.0,0.0,0.0,0.0,0.0,0.0,0.0,0.0,0.0,0.0,0.0,0.0,0.0,0.0,0.0,0.0,0.0,0.0,0.0,0.0,0.0,0.0,0.0,0.0,0.0,0.0,0.0,0.0,0.0,0.0,0.0,0.0,0.0,0.0,0.0,0.0,0.0,0.0,0.0,0.0,0.0,0.0,0.0,0.0,0.0,0.0,0.0,0.0,0.0,0.0,0.0,0.0,0.0,0.0,0.0,0.0,0.0,0.0,0.0,0.0,0.0,0.0,0.0,0.0,0.0,0.0,0.0,0.0,0.0,0.0,0.0,0.0,0.0,0.0,0.0,0.0,0.0,0.0,0.0,0.0,0.0,0.0,0.0,0.0,0.0,0.0,0.0,0.0,0.0,0.0,0.0,0.0,0.0,0.0,0.0,0.0,0.0,0.0,0.0,0.0,0.0,0.0,0.0,0.0,0.0,0.0,0.0,0.0,0.0,0.0,0.0,0.0,0.0,0.0,0.0,0.0,0.0,0.0,0.0,0.0,0.0,0.0,0.0,0.0,0.0,0.0,0.0,0.0,0.0,0.0,0.0,0.0,0.0,0.0,0.0,0.0,0.0,0.0,0.0,0.0,0.0,0.0,0.0,0.0,0.0,0.0,0.0,0.0,0.0,0.0,0.0,0.0,0.0,0.0,0.0,0.0,0.0,0.0,0.0,0.0,0.0,0.0,0.0,0.0,0.0,0.0,0.0,0.0,0.0,0.0,0.0,0.0,0.0,0.0,0.0,0.0,0.0,0.0,0.0,0.0,0.0,0.0,0.0,0.0,0.0,0.0,0.0,0.0,0.0,0.0,0.0,0.0,0.0,0.0,0.0,0.0,0.0,0.0,0.0,0.0,0.0,0.0,0.0,0.0,0.0,0.0,0.0,0.0,0.0,0.0,0.0,0.0,0.0,0.0,0.0,0.0,0.0,0.0,0.0,0.0,0.0,0.0,0.0,0.0,0.0,0.0,0.0,0.0,0.0,0.0,0.0,0.0,0.0,0.0,0.0,0.0,0.0,0.0,0.0,0.0,0.0,0.0,0.0,0.0,0.0,0.0,0.0,0.0,0.0,0.0,0.0,0.0,0.0,0.0,0.0,0.0,0.0,0.0,0.0,0.0,0.0,0.0,0.0,0.0,0.0,0.0,0.0,0.0,0.0,0.0,0.0,0.0,0.0,0.0,0.0,0.0,0.0,0.0,0.0,0.0,0.0,0.0,0.0,0.0,0.0,0.0,0.0,0.0,0.0,0.0,0.0,0.0,0.0,0.0,0.0,0.0,0.0,0.0,0.0,0.0,0.0,0.0,0.0,0.0,0.0,0.0,0.0,0.0,0.0,0.0,0.0,0.0,0.0,0.0,0.0,0.0,0.0,0.0,0.0,0.0,0.0,0.0,0.0,0.0,0.0,0.0,0.0,0.0,0.0,0.0,0.0,0.0,0.0,0.0,0.0,0.0,0.0,0.0,0.0,0.0,0.0,0.0,0.0,0.0,0.0,0.0,0.0,0.0,0.0,0.0,0.0,0.0,0.0,0.0,2.2374,0.0,0.0,0.0,0.0,0.0,0.0,0.0,0.0,0.0,0.0,0.0,0.0,0.0,0.0,0.0,0.0,0.0,0.0,0.0,0.0,0.0,0.0,0.0,0.0,0.0,0.0,0.0,0.0,0.0,0.0,0.0,0.0,0.0,0.0,0.0,0.0,0.0,0.0,0.0,0.0,0.0,0.0,0.0,0.0,0.0,0.0,0.0,0.0,0.0,0.0,0.0,0.0,0.0,0.0,0.0,0.0,0.0,0.0,0.0,0.0,0.0,0.0,0.0,0.0,0.0,0.0,0.0,0.0,0.0,0.0,0.0,0.0,0.0,0.0,0.0,0.0,0.0,0.0,0.0,0.0,0.0,0.0,0.0,0.0,0.0,0.0,0.0,0.0,0.0,0.0,0.0,0.0,0.0,0.0,0.0,0.0,0.0,0.0,0.0,0.0,0.0,0.0,0.0,0.0,0.0,0.0,0.0,0.0,0.0,0.0,0.0,0.0,0.0,0.0,0.0,0.0,2.2177,0.0,0.0,0.0,0.0,0.0,0.0,0.0,0.0,0.0,0.0,0.0,0.0,0.0,0.0,0.0,0.0,0.0,0.0,0.0,0.0,0.0,0.0,0.0,0.0,0.0,0.0,0.0,0.0,0.0,0.0,0.0,0.0,0.0,0.0,0.0,0.0,0.0,0.0,0.0,0.0,0.0,0.0,0.0,0.0,0.0,0.0,0.0,0.0,0.0,0.0,0.0,0.0,0.0,0.0,0.0,0.0,0.0,0.0,0.0,0.0,0.0,0.0,0.0,0.0,0.0,0.0,0.0,0.0,0.0,0.0,0.0,0.0,0.0,0.0,0.0,0.0,0.0,0.0,0.0,0.0,0.0,0.0,0.0,0.0,0.0,0.0,0.0,0.0,0.0,0.0,0.0,0.0,0.0,0.0,0.0,0.0,0.0,0.0,0.0,0.0,0.0,0.0,0.0,0.0,0.0,0.0,0.0,0.0,2.3008,2.3674,2.3821,2.4327,2.4481,2.4321,2.3637,2.3373,2.3264,2.1478,0.0,0.0,0.0,0.0,0.0,0.0,0.0,0.0,0.0,0.0,0.0,0.0,0.0,0.0,0.0,0.0,0.0,0.0,0.0,0.0,0.0,0.0,0.0,0.0,0.0,0.0,0.0,0.0,0.0,0.0,0.0,0.0,0.0,0.0,0.0,0.0,0.0,0.0,0.0,0.0,0.0,0.0,0.0,0.0,0.0,0.0,0.0,0.0,0.0,0.0,0.0,0.0,0.0,0.0,0.0,0.0,0.0,0.0,0.0,0.0,0.0,0.0,0.0,0.0,0.0,0.0,0.0,0.0,0.0,0.0,0.0,0.0,0.0,0.0,0.0,0.0,0.0,0.0,0.0,0.0,0.0,0.0,0.0,0.0,0.0,0.0,2.0905,2.0826,0.0,0.0,0.0,0.0,0.0,0.0,0.0,0.0,0.0,0.0,0.0,0.0,0.0,2.1968,2.1848,2.3944,2.531,2.5926,2.7312,2.8192,2.8597,2.8668,2.8514,2.8055,2.5743,0.0,2.4511,2.3655,0.0,0.0,0.0,0.0,0.0,0.0,0.0,0.0,0.0,0.0,0.0,0.0,0.0,0.0,0.0,0.0,0.0,0.0,0.0,0.0,0.0,0.0,0.0,0.0,0.0,0.0,0.0,0.0,0.0,0.0,0.0,0.0,0.0,0.0,0.0,0.0,0.0,0.0,0.0,0.0,0.0,0.0,0.0,0.0,0.0,0.0,0.0,0.0,0.0,0.0,0.0,0.0,0.0,0.0,0.0,0.0,0.0,0.0,0.0,0.0,0.0,0.0,0.0,0.0,0.0,0.0,0.0,0.0,0.0,0.0,0.0,0.0,0.0,0.0,0.0,0.0,0.0,0.0,0.0,0.0,0.0,0.0,0.0,0.0,0.0,2.0345,2.0901,2.0901,2.1398,2.0994,0.0,0.0,0.0,0.0,0.0,0.0,0.0,0.0,0.0,2.3013,2.3655,2.3944,2.3858,2.603,2.7085,2.7004,2.8333,2.9085,2.9287,2.9398,2.9356,2.9122,2.7965,2.7288,2.6788,2.4068,2.2994,2.2952,0.0,0.0,0.0,0.0,2.0303,2.0576,0.0,0.0,0.0,0.0,0.0,0.0,0.0,0.0,0.0,0.0,0.0,0.0,0.0,0.0,0.0,1.4443,0.0,0.0,0.0,0.0,0.0,0.0,0.0,0.0,0.0,0.0,0.0,0.0,0.0,0.0,0.0,0.0,0.0,0.0,0.0,0.0,0.0,0.0,0.0,0.0,0.0,0.0,0.0,0.0,0.0,0.0,0.0,0.0,0.0,0.0,0.0,0.0,0.0,0.0,0.0,0.0,0.0,0.0,0.0,0.0,0.0,0.0,0.0,0.0,0.0,0.0,0.0,0.0,0.0,0.0,0.0,0.0,0.0,0.0,0.0,0.0,0.0,2.091,2.1707,2.1458,2.2535,2.241,0.0,0.0,0.0,0.0,0.0,0.0,2.2339,2.2248,2.3013,2.4854,2.55,2.5769,2.566,2.7519,2.8224,2.7798,2.875,2.9226,2.9279,2.9435,2.9521,2.9553,2.9272,2.8962,2.8363,2.4909,2.3415,2.3292,2.2932,2.2429,2.1855,2.1631,2.1693,2.1876,0.0,0.0,0.0,0.0,0.0,0.0,0.0,0.0,0.0,0.0,0.0,0.0,0.0,0.0,1.6184,1.6173,1.5687,1.5241,0.0,0.0,0.0,0.0,0.0,0.0,0.0,0.0,0.0,0.0,0.0,0.0,0.0,0.0,0.0,0.0,0.0,0.0,0.0,0.0,0.0,0.0,0.0,0.0,0.0,0.0,0.0,0.0,0.0,0.0,0.0,0.0,0.0,0.0,0.0,0.0,0.0,0.0,0.0,0.0,0.0,0.0,0.0,0.0,0.0,0.0,0.0,0.0,0.0,0.0,0.0,0.0,0.0,0.0,0.0,0.0,0.0,0.0,0.0,0.0,0.0,2.2717,2.683,0.0,0.0,0.0,0.0,2.2309,2.138,2.2033,2.4681,2.4285,2.4765,2.653,2.7164,2.7474,2.7474,2.8212,2.8866,2.9396,2.9451,2.9578,2.9778,2.9787,2.9874,2.9998,2.8922,2.8445,2.8326,2.7153,2.6449,2.5965,2.4635,2.4072,2.3957,2.3259,2.3598,2.4424,0.0,0.0,0.0,0.0,0.0,0.0,0.0,0.0,0.0,0.0,0.0,0.0,0.0,1.6304,1.8007,1.8568,1.875,1.8202,1.6707,0.0,0.0,0.0,0.0,0.0,0.0,0.0,0.0,0.0,0.0,0.0,0.0,0.0,0.0,0.0,0.0,0.0,0.0,0.0,0.0,0.0,0.0,0.0,0.0,0.0,0.0,0.0,0.0,0.0,0.0,0.0,0.0,0.0,0.0,0.0,0.0,0.0,0.0,0.0,0.0,0.0,0.0,0.0,0.0,0.0,0.0,0.0,0.0,0.0,0.0,0.0,0.0,0.0,0.0,0.0,0.0,0.0,0.0,0.0,0.0,2.4044,2.6032,0.0,2.5487,2.4859,2.4528,2.4465,2.436,2.5147,2.7081,2.6983,2.7697,2.9541,2.8838,2.8631,2.9007,2.8906,2.898,2.9181,2.9181,2.9409,2.9788,2.9583,2.97,3.01,3.0085,2.9849,2.9431,2.873,2.7514,2.6057,2.5549,2.5437,2.5512,2.5251,2.5298,2.5565,0.0,0.0,0.0,0.0,0.0,0.0,0.0,0.0,0.0,0.0,0.0,1.4177,1.578,1.7971,1.9668,2.0477,2.0661,1.9803,1.7639,0.0,0.0,0.0,0.0,0.0,0.0,0.0,0.0,0.0,0.0,0.0,0.0,0.0,0.0,0.0,0.0,0.0,0.0,0.0,0.0,0.0,0.0,0.0,1.9298,0.0,0.0,0.0,0.0,0.0,0.0,0.0,0.0,0.0,0.0,0.0,0.0,0.0,0.0,0.0,0.0,0.0,0.0,0.0,0.0,0.0,0.0,0.0,0.0,0.0,0.0,0.0,0.0,0.0,0.0,0.0,0.0,0.0,0.0,0.0,2.4868,2.4981,2.7172,2.8107,2.6639,2.6451,2.6464,2.658,2.6721,2.7414,2.8795,2.8671,2.9174,3.0534,2.9373,2.8921,2.9322,2.8779,2.8501,2.8501,2.8501,2.8826,2.9418,2.9118,2.9166,2.9487,2.9922,2.9733,2.9066,2.88,2.7835,2.6485,2.6304,2.6185,2.6164,2.635,2.6351,2.6333,0.0,0.0,0.0,0.0,0.0,0.0,0.0,0.0,0.0,0.0,1.3973,1.5703,1.8302,1.9898,2.1065,2.1758,2.1044,1.9699,1.7628,1.586,0.0,0.0,0.0,0.0,1.9952,0.0,0.0,0.0,0.0,0.0,0.0,0.0,0.0,0.0,0.0,0.0,0.0,0.0,0.0,0.0,0.0,0.0,2.1613,0.0,0.0,0.0,0.0,0.0,0.0,0.0,0.0,0.0,0.0,0.0,0.0,0.0,0.0,0.0,0.0,0.0,0.0,0.0,0.0,0.0,0.0,0.0,0.0,0.0,0.0,0.0,0.0,0.0,0.0,0.0,0.0,0.0,2.0775,2.562,2.8241,2.5694,3.0611,3.218,2.6988,2.8823,2.9845,2.8651,2.8213,2.8535,2.9732,2.9213,2.8979,2.9244,2.8708,2.8394,2.8355,2.7837,2.7529,2.749,2.7516,2.7947,2.8686,2.8515,2.8369,2.8234,2.8368,2.7952,2.7186,2.7449,2.7542,2.7464,2.6938,2.6376,2.5926,2.652,2.6745,2.6808,0.0,0.0,0.0,0.0,0.0,0.0,0.0,0.0,0.0,0.0,1.3732,1.5779,1.8058,1.9443,2.0722,2.1971,2.0824,1.9297,1.7616,0.0,0.0,0.0,0.0,0.0,2.1305,2.3344,0.0,0.0,0.0,0.0,0.0,0.0,0.0,0.0,0.0,0.0,0.0,0.0,0.0,0.0,0.0,0.0,2.2981,0.0,0.0,0.0,0.0,0.0,0.0,0.0,0.0,0.0,0.0,0.0,0.0,0.0,0.0,0.0,0.0,0.0,0.0,0.0,0.0,0.0,0.0,0.0,0.0,0.0,0.0,0.0,0.0,0.0,0.0,0.0,0.0,2.472,2.4289,2.6805,2.8936,2.9617,3.1046,3.1618,3.0675,2.9682,2.9333,2.9912,2.8769,2.8643,2.995,2.8852,2.8206,2.8281,2.8558,2.8294,2.7465,2.8344,2.8373,2.7503,2.7941,2.8263,2.8502,2.8878,2.9022,2.9013,2.9031,2.8926,2.8703,2.8773,2.856,2.8085,2.7506,2.718,2.7046,2.7219,2.7549,2.7775,0.0,0.0,0.0,0.0,0.0,0.0,0.0,0.0,0.0,0.0,1.3921,1.5875,1.817,1.9357,2.0443,2.1517,2.0552,1.8904,1.6549,0.0,0.0,0.0,0.0,2.047,2.3473,2.5158,2.6482,0.0,0.0,0.0,0.0,0.0,0.0,0.0,0.0,0.0,0.0,0.0,0.0,0.0,0.0,0.0,2.4144,2.4248,2.3744,2.3002,2.3286,2.305,2.2522,2.1946,0.0,0.0,0.0,0.0,0.0,0.0,0.0,0.0,0.0,0.0,0.0,0.0,0.0,0.0,0.0,0.0,0.0,0.0,0.0,0.0,0.0,0.0,0.0,0.0,2.4919,2.7837,2.8569,2.9763,3.084,3.1611,3.2606,3.2605,3.1013,3.0655,3.0543,3.0575,2.9725,2.9671,3.0747,3.0002,2.9038,2.7941,2.9082,2.8858,2.7083,2.8549,2.9052,2.8586,2.8943,2.9288,2.9613,2.9624,2.9341,2.8835,2.8895,2.8576,2.8031,2.8398,2.8333,0.0,0.0,0.0,0.0,0.0,2.7715,2.7889,0.0,0.0,0.0,0.0,0.0,0.0,0.0,0.0,0.0,0.0,0.0,1.5953,1.8386,1.9391,2.0119,2.0639,2.0046,1.8314,0.0,0.0,0.0,1.9423,2.0352,2.2408,2.5932,2.6422,2.7447,2.9129,0.0,0.0,0.0,0.0,0.0,0.0,0.0,0.0,0.0,0.0,0.0,0.0,0.0,0.0,2.5558,2.5494,2.5088,2.4588,2.4887,2.4478,2.379,2.3741,0.0,0.0,0.0,0.0,0.0,0.0,0.0,0.0,0.0,0.0,0.0,0.0,0.0,0.0,0.0,0.0,0.0,0.0,0.0,0.0,0.0,0.0,0.0,0.0,2.7481,3.0476,3.2712,3.3313,3.3201,3.2379,3.4328,3.4056,2.9693,3.1499,3.2347,3.085,3.0736,3.1032,3.168,0.0,0.0,0.0,0.0,2.9639,2.7117,2.8694,2.9627,2.9905,3.0035,3.0406,3.0937,3.0302,2.9355,2.8225,2.8289,2.7568,2.6416,2.7171,2.749,2.7542,2.8085,2.7968,2.7477,2.7298,2.735,2.7464,0.0,0.0,0.0,0.0,0.0,0.0,0.0,0.0,0.0,1.3387,1.4528,1.5965,1.8075,1.893,1.9532,1.9958,1.8456,1.6902,0.0,0.0,1.6054,2.0287,2.2082,2.4362,2.728,2.8243,2.9094,2.9887,3.0277,0.0,0.0,0.0,0.0,0.0,0.0,0.0,0.0,0.0,0.0,0.0,0.0,0.0,2.8919,2.8525,2.8469,2.8483,2.7704,2.7455,2.7236,2.5647,2.5121,2.5051,2.4423,0.0,0.0,0.0,0.0,0.0,0.0,0.0,0.0,0.0,0.0,0.0,0.0,0.0,0.0,0.0,0.0,0.0,0.0,0.0,0.0,2.616,2.9929,3.3048,3.3712,3.3985,3.3913,3.337,3.3118,3.2462,3.1126,3.1259,3.1284,3.0981,3.093,3.1001,3.1143,3.0035,2.8922,2.7931,2.9174,2.9174,2.7745,2.9692,3.0024,2.8743,0.0,0.0,2.8965,2.931,2.904,2.8343,2.7884,2.7497,2.7259,2.7432,2.749,2.7503,2.7637,2.7611,2.735,2.5968,2.6334,2.7324,0.0,0.0,0.0,0.0,0.0,0.0,0.0,0.0,0.0,0.0,1.3567,1.4856,1.6557,1.6749,1.7115,1.802,1.65,0.0,0.0,1.6862,1.8763,2.2822,2.446,2.626,2.8442,2.9027,2.9689,3.0504,3.0257,3.0347,0.0,0.0,0.0,0.0,0.0,0.0,0.0,0.0,0.0,0.0,0.0,0.0,3.1466,3.0262,2.9809,2.9803,2.9396,2.8993,2.8457,2.7228,2.6733,2.6583,2.6132,2.5499,2.4482,0.0,0.0,0.0,0.0,0.0,0.0,0.0,0.0,0.0,0.0,0.0,0.0,0.0,0.0,2.3902,0.0,0.0,2.8049,2.895,3.1498,3.3758,3.4931,3.4924,3.4511,3.3743,3.3034,3.2208,3.1202,3.1465,3.1584,3.1265,3.1239,3.129,3.1386,3.0705,2.9557,2.7954,2.9715,2.9794,2.7914,2.995,3.0686,3.0106,3.0675,3.0649,3.008,2.9818,2.9549,2.9196,2.8016,2.7676,2.7894,2.7224,2.6934,2.6886,2.6886,2.7154,2.7391,2.656,2.6756,2.7338,0.0,0.0,0.0,0.0,0.0,0.0,0.0,0.0,0.0,0.0,0.0,1.3327,1.4645,1.4373,1.4501,0.0,0.0,0.0,0.0,1.9039,2.1481,2.5288,2.6676,2.8022,2.9424,2.9556,3.0095,3.1045,3.0248,3.0191,3.0791,0.0,0.0,0.0,0.0,0.0,0.0,0.0,0.0,0.0,0.0,0.0,3.2546,3.1173,3.0688,3.07,3.0356,2.9704,2.8853,2.81,2.767,2.7457,2.7275,2.73,2.6749,2.3504,2.3742,0.0,0.0,0.0,0.0,0.0,0.0,0.0,0.0,0.0,2.4181,2.4961,2.5894,2.6715,2.7316,2.8651,3.0256,3.2029,3.3171,3.4355,3.5825,3.5383,3.4537,3.3509,3.3058,3.2233,3.0732,3.1649,3.2097,3.1519,3.1675,3.1844,3.1913,3.1836,3.0799,2.8618,3.0556,3.0629,2.8515,3.0168,3.1156,3.1471,3.1588,3.1575,3.1445,3.0518,3.0035,2.9839,2.8057,2.748,2.7734,2.6793,2.6282,2.6124,2.6268,2.6628,2.7091,2.7363,2.7442,2.7404,0.0,0.0,0.0,0.0,0.0,0.0,0.0,0.0,0.0,0.0,0.0,0.0,0.0,0.0,0.0,0.0,0.0,0.0,1.7309,2.0008,2.2868,2.5883,2.7957,2.934,3.001,3.048,3.1009,3.1621,3.1494,3.1474,3.1572,0.0,0.0,0.0,0.0,0.0,0.0,0.0,0.0,0.0,0.0,0.0,3.0701,3.1246,3.2299,3.313,3.052,2.9612,2.9343,2.7552,2.7141,2.7319,2.6777,2.6779,2.6617,2.4771,0.0,2.2985,1.9694,1.7223,1.6139,1.8478,1.9882,2.1177,0.0,0.0,2.8321,2.8158,2.9656,3.1222,3.2001,3.3065,3.4055,3.4763,3.6025,3.6558,3.554,3.432,3.3213,3.238,3.2218,3.167,3.0299,3.1355,3.1922,3.1348,3.2257,3.269,3.2347,3.199,3.1533,3.0934,3.102,3.0953,3.0663,3.0874,3.0764,3.0296,3.0824,3.0817,3.0283,3.0153,2.9844,2.9283,2.736,2.6193,2.5684,2.6181,2.6002,2.5485,2.6121,2.6012,2.5621,2.6937,2.7416,2.7397,0.0,0.0,0.0,0.0,0.0,0.0,0.0,0.0,0.0,0.0,0.0,0.0,0.0,0.0,0.0,0.0,0.0,0.0,1.6757,1.9984,2.3091,2.5979,2.7861,2.9088,2.9617,3.0167,3.0696,3.1226,3.0952,3.0909,3.1049,3.0454,0.0,0.0,0.0,0.0,0.0,0.0,0.0,0.0,0.0,0.0,3.1172,3.0638,3.0803,3.0993,2.8352,2.6991,0.0,0.0,2.4826,2.5147,2.6161,2.6183,2.5619,2.4753,2.397,0.0,2.1795,2.1652,2.2264,0.0,2.5727,2.7426,2.8515,3.0199,3.1454,3.1113,3.258,3.3907,3.3848,3.4045,3.4601,0.0,3.5664,3.5237,3.4722,3.3871,3.2594,3.0699,2.9403,2.8772,2.9078,3.0642,3.1121,2.9873,3.1468,3.2255,3.1787,3.1491,3.1273,3.1136,3.1043,3.1005,3.1005,3.1005,3.0869,3.0634,3.0869,3.0869,3.0607,2.9941,2.9131,2.8238,2.776,2.6927,2.5876,2.5786,2.5296,2.4625,2.4945,2.4863,2.4687,2.5735,2.6269,2.6558,0.0,0.0,0.0,0.0,0.0,0.0,0.0,0.0,0.0,0.0,0.0,0.0,0.0,0.0,0.0,0.0,0.0,0.0,0.0,1.9515,2.271,2.5751,2.7409,2.8607,2.928,2.9705,3.0097,3.0479,3.0156,3.0107,3.029,2.9813,2.9994,0.0,0.0,0.0,0.0,0.0,0.0,0.0,0.0,0.0,3.0741,2.9707,2.8641,2.7469,2.5748,2.4514,0.0,0.0,2.2258,2.2943,2.4177,2.4423,2.4168,2.3737,2.299,2.2495,2.3333,2.4569,0.0,2.7988,2.9879,3.1537,3.2537,3.3114,3.3419,3.3336,3.4327,3.513,3.4832,3.4436,3.4664,3.6242,3.5323,3.4312,3.4023,3.3163,3.1632,2.9126,2.6842,2.5793,2.6563,2.8647,2.9686,2.899,3.0601,3.1568,3.1392,3.1136,3.1024,3.108,3.1024,3.1005,3.1005,3.1005,3.1005,3.1005,3.1005,3.1005,3.0947,2.9585,2.8297,2.7131,2.7335,2.6669,2.5388,2.5253,2.4639,2.3824,2.401,2.4042,2.4039,2.4438,2.5118,2.5929,0.0,0.0,0.0,0.0,0.0,0.0,0.0,0.0,0.0,0.0,0.0,0.0,0.0,0.0,0.0,0.0,0.0,0.0,0.0,1.8647,2.1772,2.5185,2.6868,2.8214,2.928,2.9391,2.9418,2.9442,2.9501,2.9524,2.9547,3.0445,3.0858,0.0,0.0,0.0,0.0,0.0,0.0,0.0,0.0,0.0,2.8251,2.8518,2.6329,2.3103,2.3159,0.0,0.0,0.0,1.9876,2.1346,2.0105,2.095,0.0,2.1593,2.0634,2.0373,2.2995,0.0,2.3032,2.7479,2.9036,3.012,3.2629,3.3484,3.3955,3.4526,3.4582,3.4712,3.5355,3.4922,3.4923,3.6284,3.591,3.4971,3.3629,3.1832,2.9941,2.789,2.5297,2.3294,0.0,2.4901,2.7453,2.9437,3.0116,3.0791,3.1551,3.1224,3.1099,3.1272,3.1099,3.1005,3.1005,3.1005,3.1005,3.1005,3.1005,3.1005,3.0928,2.8999,2.7407,2.6106,2.5335,2.4284,2.3186,2.4415,2.4168,2.3097,2.3827,2.3947,2.3659,2.3235,2.423,2.5889,0.0,0.0,0.0,0.0,0.0,0.0,0.0,0.0,0.0,0.0,0.0,0.0,0.0,0.0,0.0,0.0,0.0,0.0,0.0,1.6206,1.8858,2.1217,2.4056,2.5751,2.6099,2.7184,2.7567,2.7217,2.8673,2.9183,2.8864,2.9889,3.0379,3.0379,0.0,0.0,0.0,0.0,0.0,0.0,0.0,0.0,2.7491,2.5502,2.3465,2.1316,0.0,0.0,0.0,0.0,1.6738,1.7513,1.8669,0.0,0.0,1.802,1.9672,2.182,2.2417,0.0,2.7654,3.0487,3.223,3.3701,3.5462,3.579,3.5569,3.5014,3.4438,3.3547,3.1956,3.1214,3.1046,3.169,3.1068,3.0729,3.1267,2.9241,2.7357,2.6512,2.4081,0.0,0.0,0.0,0.0,2.5703,2.8492,3.0317,3.0587,3.074,3.0892,3.1099,3.1043,3.1005,3.1005,3.1005,3.1005,3.1005,3.0594,3.0228,2.9841,2.8779,2.7832,2.6989,2.6225,2.5367,2.4527,2.4406,2.3827,2.302,2.3128,2.32,2.3244,2.3256,2.376,2.4553,0.0,0.0,0.0,0.0,0.0,0.0,0.0,0.0,0.0,0.0,0.0,0.0,0.0,0.0,0.0,0.0,0.0,0.0,0.0,0.0,1.6021,1.8239,2.0676,2.2247,2.2839,2.4131,2.4626,2.4284,2.6016,2.6702,2.6379,2.736,2.782,2.782,2.8012,0.0,0.0,0.0,0.0,0.0,0.0,0.0,2.4858,2.2281,2.0253,0.0,0.0,0.0,0.0,0.0,0.0,0.0,1.6235,1.6186,1.6,1.741,1.9775,2.2393,2.4426,2.7575,3.0876,3.323,3.4741,3.5876,3.667,3.6494,3.5863,3.4819,3.3592,3.1918,2.9237,2.8241,2.7999,2.8406,2.8167,2.8423,2.9824,2.8326,2.6789,2.5942,2.4067,2.3338,0.0,0.0,0.0,2.4641,2.7163,2.8916,2.9285,2.9576,3.0087,3.0879,3.0892,3.093,3.1005,3.1005,3.1005,3.0992,3.0393,2.9678,2.8843,2.7974,2.6998,2.5941,2.5578,2.4938,2.4116,2.3916,2.3468,2.2871,2.2665,2.2773,2.3059,2.3112,2.3459,2.4008,0.0,0.0,0.0,0.0,0.0,0.0,0.0,0.0,0.0,0.0,0.0,0.0,0.0,0.0,0.0,0.0,0.0,0.0,0.0,0.0,0.0,1.6168,1.6907,1.7983,1.9573,2.0346,2.0709,2.0686,2.1732,2.2216,2.2222,2.3026,2.3417,2.3435,2.3953,2.4607,0.0,0.0,0.0,0.0,0.0,0.0,2.0546,1.8995,0.0,0.0,0.0,0.0,0.0,0.0,0.0,0.0,1.3295,1.3447,1.4916,1.9538,2.0967,2.2403,2.8556,3.1017,3.257,3.5569,3.6382,3.643,3.6242,3.5661,3.4836,3.3817,3.1941,2.969,0.0,0.0,2.5674,2.6506,2.7112,2.793,2.9225,2.889,2.7851,0.0,0.0,0.0,0.0,0.0,0.0,2.6169,0.0,2.687,2.7908,2.8057,2.8898,3.0633,3.0679,3.0773,3.0986,3.0986,3.0979,3.0953,3.0354,2.939,2.8069,2.6772,2.5146,2.3372,2.3666,2.3135,2.2171,2.3032,2.3112,2.2703,2.2496,2.2698,2.3058,2.28,2.3312,2.418,0.0,0.0,0.0,0.0,0.0,0.0,0.0,0.0,0.0,0.0,0.0,0.0,0.0,0.0,0.0,0.0,0.0,0.0,0.0,0.0,0.0,0.0,0.0,0.0,0.0,0.0,0.0,0.0,0.0,1.8502,1.8126,1.9072,1.9534,0.0,1.9665,1.9844,0.0,0.0,0.0,0.0,0.0,0.0,1.8104,0.0,0.0,0.0,0.0,0.0,0.0,0.0,0.0,0.0,1.7378,1.8583,1.9655,2.0555,2.3902,2.7592,2.8904,3.2181,3.5645,3.7283,3.6976,3.6258,3.621,3.5171,3.3375,3.0354,2.7845,2.5198,0.0,0.0,0.0,2.4061,2.3661,0.0,2.7521,2.6817,0.0,2.5574,0.0,2.6065,2.642,2.6741,0.0,0.0,2.7384,2.8263,2.8836,2.9321,2.9841,3.0451,3.0482,3.0571,3.0761,3.093,3.0764,3.0328,2.9771,2.9081,2.8291,2.7503,2.6557,2.5564,2.5087,2.4381,2.3533,2.3217,2.3036,2.2908,2.2703,2.2797,2.3007,2.2783,2.2966,2.3305,0.0,0.0,0.0,0.0,0.0,0.0,0.0,0.0,0.0,0.0,0.0,0.0,0.0,0.0,0.0,0.0,0.0,0.0,0.0,0.0,0.0,0.0,0.0,0.0,0.0,0.0,0.0,0.0,0.0,0.0,0.0,1.5408,1.564,1.564,1.5643,1.5832,1.6161,0.0,0.0,0.0,0.0,0.0,0.0,0.0,0.0,0.0,0.0,0.0,0.0,0.0,0.0,1.7315,2.0717,2.1994,2.268,2.4929,0.0,3.0322,3.2064,3.4426,3.6658,3.7893,3.6927,3.5446,3.4565,3.2908,3.0632,2.7275,2.4664,0.0,1.9424,1.8284,0.0,0.0,0.0,0.0,2.5803,2.5997,2.5813,0.0,2.6651,0.0,2.8181,2.8323,2.8247,0.0,2.779,2.7902,2.8295,2.8708,2.9367,3.0368,3.0406,3.0539,3.083,3.093,3.083,3.0471,2.9595,2.8849,2.824,2.7258,2.6148,2.4983,0.0,2.4119,2.3167,2.2864,2.274,2.2721,2.2421,2.2421,2.259,2.2572,2.2703,2.2889,0.0,0.0,0.0,0.0,0.0,0.0,0.0,0.0,0.0,0.0,0.0,0.0,0.0,0.0,0.0,0.0,0.0,0.0,0.0,0.0,0.0,0.0,0.0,0.0,0.0,0.0,0.0,0.0,0.0,0.0,0.0,0.0,0.0,0.0,0.0,0.0,0.0,0.0,0.0,0.0,0.0,0.0,0.0,0.0,0.0,0.0,0.0,0.0,0.0,0.0,1.9548,1.887,2.3745,2.4919,2.5395,3.0191,3.1382,3.198,3.5799,3.6655,3.6761,3.7939,3.6635,3.4514,3.2509,3.0117,2.7489,2.4491,0.0,2.0008,1.8492,1.7904,1.8335,2.0346,0.0,2.262,2.4082,2.5766,2.6675,2.6248,2.7411,2.8533,2.9261,2.9245,2.9356,2.9767,2.8087,2.7185,2.7533,2.7721,2.8601,3.0342,3.0406,3.0577,3.093,3.093,3.0872,3.0781,2.9619,2.8777,2.818,2.6781,2.5207,2.3608,2.4003,2.3379,2.212,2.2437,2.2496,2.2365,2.2016,2.1997,2.2157,2.2365,2.2553,2.274,0.0,0.0,0.0,0.0,0.0,0.0,0.0,0.0,0.0,0.0,0.0,0.0,0.0,0.0,0.0,0.0,0.0,0.0,0.0,0.0,0.0,0.0,0.0,0.0,0.0,0.0,0.0,0.0,0.0,0.0,0.0,0.0,0.0,0.0,0.0,0.0,0.0,0.0,0.0,0.0,0.0,0.0,0.0,0.0,0.0,0.0,0.0,0.0,0.0,0.0,2.1246,2.2189,2.7294,2.9894,3.1055,3.1035,3.2937,3.5019,3.4986,3.6428,3.8018,3.8364,3.6826,3.4712,3.2708,2.949,0.0,0.0,1.958,1.8089,1.7773,1.7873,1.9016,2.2112,2.2325,2.2214,2.258,2.4912,2.6344,0.0,2.702,2.8493,2.9815,2.852,0.0,0.0,2.9454,2.9271,2.9341,2.9685,3.0052,3.0394,3.0406,3.0444,3.0501,3.0501,3.0251,2.9751,2.9508,2.9211,2.8803,2.7884,2.6794,2.5599,2.5572,0.0,2.263,2.3169,2.3001,2.2384,2.2327,2.2308,2.2365,2.2572,2.2665,2.274,0.0,0.0,0.0,0.0,0.0,0.0,0.0,0.0,0.0,0.0,1.3088,1.2991,0.0,0.0,0.0,0.0,0.0,0.0,0.0,0.0,0.0,0.0,0.0,0.0,0.0,0.0,0.0,0.0,0.0,0.0,0.0,0.0,0.0,0.0,0.0,0.0,0.0,0.0,0.0,0.0,0.0,0.0,0.0,0.0,0.0,0.0,0.0,0.0,0.0,0.0,2.123,2.2178,2.8284,3.1378,3.267,3.218,3.3683,3.5369,3.4926,3.5861,3.7071,3.76,3.5826,3.3097,2.9819,0.0,0.0,0.0,1.6955,1.6419,1.6808,1.7064,0.0,2.1758,2.2206,2.2374,2.3132,2.5421,0.0,2.6154,2.7357,2.8497,0.0,2.795,2.7687,2.8879,2.8779,2.8992,2.9748,3.0075,3.0247,3.0247,3.0349,3.0406,3.0406,3.0406,3.0316,3.0121,2.9695,2.9536,2.9543,2.8559,2.7693,2.6925,2.5997,2.4565,2.29,2.2849,2.2316,2.1596,2.1948,2.2138,2.2283,2.2622,2.2813,2.296,0.0,0.0,0.0,0.0,0.0,0.0,0.0,1.34,1.3346,1.3218,1.3291,1.3291,1.3119,1.3151,0.0,0.0,0.0,0.0,0.0,0.0,0.0,0.0,0.0,0.0,0.0,0.0,0.0,0.0,0.0,0.0,0.0,0.0,0.0,0.0,0.0,0.0,0.0,0.0,0.0,0.0,0.0,0.0,0.0,0.0,0.0,0.0,0.0,0.0,0.0,0.0,2.0544,2.107,2.7064,2.9894,3.1226,3.2215,3.3172,3.4134,3.5216,3.5707,3.6054,3.664,3.4773,3.1613,2.7168,2.39,0.0,1.6436,1.5326,1.5452,1.6644,1.6998,1.8117,0.0,2.1688,2.2147,2.3683,2.5479,2.6664,0.0,2.7713,0.0,2.8593,2.7747,0.0,2.8492,2.8256,2.8605,2.9865,3.0075,3.019,3.0228,3.0381,3.0463,3.0463,3.0425,3.0457,3.0552,2.997,2.9864,3.0128,2.8917,2.808,2.7484,2.5941,2.4245,2.2548,2.2371,2.1717,2.0917,2.1657,2.211,2.2389,2.2795,2.3049,2.3239,0.0,0.0,0.0,0.0,0.0,0.0,0.0,1.3396,1.3346,1.3218,1.3214,1.3196,1.3111,1.3324,0.0,0.0,0.0,0.0,0.0,0.0,0.0,0.0,0.0,0.0,0.0,0.0,0.0,0.0,0.0,0.0,0.0,0.0,0.0,0.0,0.0,0.0,0.0,0.0,0.0,0.0,0.0,0.0,0.0,0.0,0.0,0.0,0.0,0.0,0.0,0.0,0.0,1.9963,2.2725,2.4379,2.5964,2.9524,0.0,0.0,3.5658,3.6714,3.6522,3.6185,3.4516,3.1821,2.7384,0.0,2.0334,1.7651,1.6029,1.5897,1.8535,1.9167,0.0,0.0,0.0,2.0679,2.2649,2.3471,2.4653,2.6807,0.0,0.0,2.9776,2.8265,2.7875,2.9523,2.963,2.9815,3.0317,3.0368,3.0457,3.0641,3.066,3.0679,3.0679,3.0482,3.0324,3.0152,3.0273,3.0348,3.0323,2.8931,2.7756,2.6733,2.5674,2.3536,0.0,2.2339,2.2146,2.108,2.2062,2.2707,2.312,2.3343,2.3444,2.3504,0.0,0.0,0.0,0.0,0.0,0.0,0.0,1.3165,1.3129,1.3024,1.3162,1.3278,1.3324,1.3505,1.3515,0.0,0.0,0.0,0.0,0.0,0.0,0.0,0.0,0.0,0.0,0.0,0.0,0.0,0.0,0.0,0.0,0.0,0.0,0.0,0.0,0.0,0.0,0.0,0.0,0.0,0.0,0.0,0.0,0.0,0.0,0.0,0.0,0.0,0.0,0.0,0.0,0.0,1.839,1.8574,0.0,0.0,2.7045,2.9579,3.117,3.3648,3.5684,3.5217,3.3653,3.1037,2.6522,0.0,2.0628,1.6725,1.5836,1.6085,1.7116,1.7614,1.8583,0.0,0.0,0.0,2.3437,2.3907,2.4927,2.7469,2.8123,0.0,0.0,0.0,2.7781,2.788,2.7763,2.8256,2.9543,2.9741,2.9954,3.0337,3.0062,3.0043,3.0337,3.0133,3.0068,3.0094,2.9815,2.9706,2.9724,2.8773,2.8051,2.7477,2.6267,2.4283,0.0,2.301,2.2299,2.0726,2.2322,2.3049,2.3246,2.3607,2.3742,2.3784,0.0,0.0,0.0,0.0,0.0,0.0,1.3027,1.3004,1.2972,1.2876,1.3101,1.3291,1.3353,1.3512,1.3501,1.3191,0.0,0.0,0.0,0.0,0.0,0.0,0.0,0.0,0.0,0.0,0.0,0.0,0.0,0.0,0.0,0.0,1.1396,0.0,0.0,0.0,0.0,0.0,0.0,0.0,0.0,0.0,0.0,0.0,0.0,0.0,0.0,0.0,0.0,0.0,0.0,0.0,0.0,0.0,0.0,0.0,2.3849,2.719,2.8058,3.1273,3.4252,3.3645,3.2045,2.9451,0.0,0.0,1.9991,1.616,1.5773,1.6256,1.6583,1.6935,1.7867,0.0,0.0,2.0751,2.3441,2.3786,2.4559,2.6725,0.0,2.8008,0.0,2.8428,2.8306,2.7602,2.7424,2.7908,2.9233,2.9373,2.9625,3.0094,2.9838,2.9857,3.019,3.0049,2.9922,2.984,2.9459,2.8938,2.8297,2.8156,2.7648,2.6822,2.6118,2.4611,0.0,2.3404,2.2595,2.1091,2.2761,2.3474,2.3629,2.395,2.399,2.3926,0.0,0.0,0.0,0.0,0.0,0.0,0.0,1.3004,1.2959,1.2825,1.303,1.3149,1.301,1.3303,1.3454,1.3308,0.0,0.0,0.0,0.0,0.0,0.0,0.0,0.0,0.0,0.0,0.0,0.0,0.0,0.0,0.0,0.0,0.0,0.0,0.0,0.0,0.0,0.0,0.0,0.0,0.0,0.0,0.0,0.0,0.0,0.0,0.0,0.0,0.0,0.0,0.0,0.0,0.0,0.0,0.0,0.0,2.106,2.3664,2.7865,3.0714,3.2303,3.1368,2.9617,2.6972,0.0,1.9937,1.8006,1.6498,1.6085,1.6448,1.7913,1.8243,1.8728,0.0,0.0,0.0,2.2,2.2391,2.2924,0.0,0.0,2.6362,2.7956,2.9133,2.9786,2.9767,2.9754,0.0,2.9792,2.9541,2.9625,3.0094,3.0292,3.0387,3.0406,3.0387,2.9998,2.9212,2.9393,2.825,2.5978,2.6956,2.6149,2.3983,2.4843,2.4069,0.0,2.3293,2.3178,2.2471,2.3501,2.4136,2.4487,2.4487,2.4207,2.3884,0.0,0.0,0.0,0.0,0.0,0.0,0.0,1.2894,1.289,1.2936,1.3083,1.324,1.3324,1.3513,1.3646,1.3646,0.0,0.0,0.0,0.0,0.0,0.0,0.0,0.0,0.0,0.0,0.0,0.0,0.0,0.0,0.0,0.0,0.0,0.0,0.0,0.0,0.0,0.0,0.0,0.0,0.0,0.0,0.0,0.0,0.0,0.0,0.0,0.0,0.0,0.0,0.0,0.0,0.0,0.0,0.0,0.0,0.0,0.0,2.1903,2.4549,2.6788,2.6032,2.501,2.3447,2.0575,1.9065,1.7684,1.5599,1.5146,1.5409,1.6371,1.6536,1.7314,0.0,0.0,0.0,0.0,0.0,0.0,2.6495,2.8118,2.9543,0.0,0.0,2.9391,3.0409,2.9292,2.9124,3.0414,2.9626,2.942,3.0068,2.9838,2.9877,3.019,3.0068,2.9865,2.9599,2.8886,2.77,2.6192,2.6592,2.5908,2.4437,2.5594,2.521,2.3849,2.4868,2.4575,2.3595,2.4602,2.4934,2.4835,2.4835,2.4598,2.4304,0.0,0.0,0.0,0.0,0.0,0.0,0.0,1.2785,1.2804,1.2919,1.308,1.3274,1.3478,1.3661,1.3765,1.3761,0.0,0.0,0.0,0.0,0.0,0.0,0.0,0.0,0.0,0.0,0.0,0.0,0.0,0.0,0.0,0.0,0.0,0.0,0.0,0.0,0.0,0.0,0.0,0.0,0.0,0.0,1.4063,0.0,0.0,0.0,0.0,0.0,0.0,0.0,0.0,0.0,0.0,0.0,0.0,0.0,1.6072,1.7641,0.0,2.1022,2.3271,2.2707,2.1878,0.0,0.0,1.7564,1.6463,1.4996,1.5118,1.5632,1.6136,1.6623,1.7463,1.9022,0.0,0.0,0.0,0.0,0.0,2.5921,0.0,0.0,0.0,3.0414,2.995,3.0713,2.9673,2.9322,3.0052,2.9366,2.9088,2.9358,2.9177,2.9275,2.9728,2.9605,2.9473,2.9338,2.8637,2.7495,2.6061,2.6488,2.5841,2.4406,2.5715,2.5764,0.0,2.5485,2.5105,2.4245,2.4879,2.4839,2.4457,2.472,2.4567,2.4261,0.0,0.0,0.0,0.0,0.0,0.0,0.0,0.0,0.0,0.0,1.3054,1.3295,1.3496,1.3723,1.3843,0.0,0.0,0.0,0.0,0.0,0.0,0.0,0.0,0.0,0.0,0.0,0.0,0.0,1.3426,1.34,1.3396,0.0,0.0,0.0,0.0,0.0,0.0,0.0,0.0,0.0,0.0,0.0,0.0,0.0,0.0,0.0,0.0,0.0,0.0,0.0,0.0,0.0,0.0,0.0,0.0,0.0,0.0,0.0,0.0,1.9529,2.1142,2.0739,1.9714,0.0,0.0,0.0,0.0,1.4757,1.5834,1.6807,1.6953,1.8147,1.8867,1.8159,0.0,0.0,0.0,2.1418,0.0,0.0,2.5391,0.0,3.0159,3.1022,3.1231,3.0761,3.072,3.0239,2.9143,2.9002,2.8775,2.8371,2.8443,2.8669,2.9032,2.9052,2.8832,2.8363,2.843,2.7361,2.5384,2.639,2.5743,0.0,2.524,2.572,2.557,2.5282,2.4908,2.4565,2.4546,2.4137,2.3638,2.4293,2.4212,2.3855,0.0,0.0,0.0,0.0,0.0,0.0,0.0,0.0,0.0,0.0,0.0,1.3404,1.3558,1.3626,0.0,0.0,0.0,0.0,0.0,0.0,0.0,0.0,0.0,0.0,0.0,0.0,0.0,1.4167,1.3646,1.3429,1.3479,1.349,0.0,0.0,0.0,0.0,0.0,0.0,0.0,0.0,0.0,0.0,0.0,0.0,0.0,0.0,1.6299,1.7181,0.0,0.0,0.0,0.0,0.0,0.0,0.0,0.0,1.6472,1.6204,1.6005,0.0,1.5668,1.5325,1.5114,1.4881,0.0,0.0,0.0,0.0,0.0,1.6688,1.7582,1.9052,1.9996,1.951,0.0,2.1901,2.1201,0.0,0.0,2.3649,2.7528,2.9739,2.8426,3.0405,3.1572,3.1059,3.1001,3.096,3.0819,2.9935,2.9545,2.9798,2.8955,2.8459,2.8419,2.8558,2.7747,2.6015,2.6736,2.5615,2.2983,2.4537,2.4561,2.3417,2.4506,2.5129,2.5337,2.4963,2.4923,2.51,2.4939,2.4619,2.4302,2.4614,2.429,2.3802,0.0,0.0,0.0,0.0,0.0,0.0,0.0,0.0,0.0,0.0,0.0,0.0,0.0,0.0,0.0,0.0,0.0,0.0,0.0,0.0,0.0,0.0,0.0,0.0,0.0,0.0,0.0,0.0,0.0,1.3731,0.0,0.0,0.0,0.0,0.0,0.0,0.0,1.3256,1.3204,0.0,1.3265,0.0,0.0,0.0,0.0,0.0,1.5555,1.6205,0.0,1.7563,1.7651,1.7424,0.0,0.0,0.0,0.0,1.6516,1.6504,1.5381,1.4806,1.4614,1.4937,1.442,1.4063,0.0,0.0,0.0,0.0,0.0,1.6462,1.7922,1.8729,0.0,0.0,2.0793,0.0,0.0,0.0,2.4345,2.4096,2.6638,2.8355,0.0,3.0291,3.1456,3.0951,3.0918,3.0713,3.0278,2.9638,2.9302,2.9346,2.8362,2.8108,2.8618,2.8396,2.736,2.5532,2.6444,2.5701,2.3577,2.4881,2.4991,2.4149,2.3754,2.4193,2.5061,2.377,2.3985,2.5083,2.4733,2.4389,2.4184,2.451,2.4355,2.4129,0.0,0.0,0.0,0.0,0.0,0.0,0.0,0.0,0.0,0.0,0.0,0.0,0.0,0.0,0.0,0.0,0.0,0.0,0.0,0.0,0.0,0.0,0.0,0.0,0.0,0.0,0.0,0.0,0.0,0.0,0.0,0.0,0.0,0.0,0.0,0.0,1.3349,1.337,1.3358,1.3303,1.3324,0.0,0.0,0.0,0.0,0.0,0.0,0.0,0.0,1.6988,1.7147,1.6758,1.7075,0.0,0.0,0.0,0.0,0.0,1.5391,1.5255,1.5711,1.6762,1.5493,1.4492,0.0,0.0,0.0,0.0,0.0,0.0,0.0,1.8927,0.0,0.0,0.0,0.0,2.2864,2.3536,2.4033,2.4461,2.5336,0.0,2.833,3.0157,3.1032,3.0536,3.0401,2.9919,2.8918,2.8873,2.8634,2.81,2.7612,2.7834,2.8853,2.811,2.6968,2.5479,2.643,2.6133,2.4767,2.5653,2.573,2.5033,0.0,0.0,2.4816,2.277,2.3096,2.4846,2.4341,2.4023,2.3877,2.4296,2.4416,2.4489,0.0,0.0,0.0,0.0,0.0,0.0,0.0,0.0,0.0,0.0,0.0,0.0,0.0,0.0,0.0,0.0,0.0,0.0,0.0,0.0,0.0,0.0,0.0,0.0,0.0,0.0,0.0,0.0,0.0,0.0,1.4724,1.412,1.3837,0.0,0.0,1.3573,1.3532,1.3378,1.3308,1.3308,1.3497,0.0,0.0,0.0,0.0,0.0,0.0,0.0,0.0,1.5609,1.615,1.6845,1.7664,0.0,0.0,0.0,0.0,0.0,1.652,1.6237,1.6455,1.7419,1.5763,1.4578,0.0,0.0,0.0,0.0,0.0,0.0,0.0,2.332,2.4656,0.0,0.0,2.297,0.0,0.0,2.5967,2.4733,0.0,2.9599,2.7338,2.9161,3.0229,2.9645,2.9024,2.8683,2.8731,2.8731,2.8396,2.7629,2.8161,2.823,2.7748,2.6961,2.5505,2.3454,2.4862,2.4506,2.2698,2.3961,2.4467,2.4353,0.0,2.4264,2.4775,2.406,2.419,2.4799,2.4535,2.4402,2.4418,2.4644,2.4515,2.4232,0.0,0.0,0.0,0.0,0.0,0.0,0.0,0.0,0.0,0.0,0.0,0.0,0.0,0.0,0.0,0.0,0.0,0.0,0.0,0.0,0.0,0.0,0.0,0.0,0.0,0.0,0.0,0.0,0.0,1.4605,1.4294,1.4508,1.4581,1.4547,1.4494,1.4418,1.4321,1.3789,1.3565,1.3577,0.0,0.0,0.0,0.0,0.0,0.0,0.0,0.0,0.0,0.0,1.5349,1.5592,1.6957,0.0,0.0,0.0,0.0,0.0,1.7423,1.7127,1.7675,2.0068,1.7607,1.5618,0.0,0.0,0.0,0.0,0.0,0.0,0.0,0.0,2.2334,2.2186,0.0,2.669,2.5499,2.6391,2.6849,0.0,0.0,2.8232,2.6883,2.8613,2.971,2.9419,2.9098,2.9013,2.9288,2.9288,2.9124,2.8755,2.8294,2.7872,2.7508,2.634,2.5022,2.3606,2.4713,2.4308,2.2638,2.4121,2.4694,2.4468,0.0,2.3795,2.4707,2.3385,2.3726,2.5034,2.4652,2.4634,2.4832,2.4807,2.4998,2.5182,0.0,0.0,0.0,0.0,0.0,0.0,0.0,0.0,0.0,0.0,0.0,0.0,0.0,0.0,0.0,0.0,0.0,0.0,0.0,0.0,0.0,0.0,0.0,0.0,0.0,0.0,1.6312,1.5517,1.5077,1.4599,1.4086,1.4851,1.5305,0.0,1.5482,1.543,1.5252,1.445,1.4105,1.4103,0.0,0.0,0.0,0.0,0.0,0.0,0.0,0.0,0.0,0.0,0.0,0.0,0.0,0.0,0.0,1.7967,1.8677,1.8962,1.7994,1.7702,1.842,2.1435,0.0,0.0,0.0,0.0,0.0,0.0,0.0,0.0,0.0,2.0495,0.0,2.3574,2.7149,2.901,2.7499,2.7698,2.8081,2.8247,2.7737,2.7475,2.7733,2.8791,2.9453,2.9388,2.9307,2.9303,2.9437,2.9456,2.9312,2.9011,2.8027,2.7441,2.7305,2.6189,2.5215,2.4388,2.5015,2.4655,2.3513,2.4742,2.5164,2.4856,2.3562,2.3728,2.4785,2.3188,2.3628,2.5259,2.4856,2.4873,2.5129,2.4975,2.5349,2.5804,0.0,0.0,0.0,0.0,0.0,0.0,0.0,0.0,0.0,0.0,0.0,0.0,0.0,0.0,0.0,0.0,0.0,0.0,0.0,0.0,0.0,0.0,0.0,0.0,0.0,1.6588,1.6376,1.4965,1.5031,1.5113,1.5196,1.526,1.5687,1.6401,1.6401,1.6338,1.6149,1.5349,1.5047,1.5026,1.4217,0.0,0.0,0.0,0.0,0.0,0.0,0.0,0.0,0.0,0.0,0.0,0.0,0.0,1.7195,1.8756,1.9154,1.8901,1.8032,1.7755,1.7986,1.9178,1.7886,0.0,0.0,0.0,0.0,0.0,0.0,0.0,0.0,2.2986,2.3199,2.599,2.6592,2.7526,2.9876,0.0,3.0555,3.1864,3.1003,3.0452,3.0834,3.0152,2.9603,2.9408,2.901,2.866,2.8431,2.8412,2.787,2.6688,2.7195,2.7256,2.6753,2.6649,2.6133,2.5202,2.5269,2.5245,2.5136,2.5257,2.5294,2.5264,2.5138,2.515,2.5247,2.5091,2.5132,2.5312,2.5259,2.5259,2.5276,2.5276,2.5224,2.5183,0.0,0.0,0.0,0.0,0.0,0.0,0.0,0.0,0.0,0.0,0.0,0.0,0.0,0.0,0.0,0.0,0.0,0.0,0.0,0.0,0.0,0.0,0.0,1.7979,1.6703,1.6548,1.598,1.4953,1.5096,1.5214,1.5328,1.6319,0.0,0.0,1.7289,1.7271,1.7183,1.6326,1.5709,1.523,1.4909,1.446,0.0,0.0,0.0,0.0,0.0,0.0,0.0,0.0,1.4196,1.4391,0.0,1.6305,1.6984,1.8105,1.8782,1.9079,1.8712,1.8589,1.925,2.2104,0.0,0.0,0.0,0.0,0.0,0.0,0.0,0.0,0.0,0.0,2.481,2.5854,2.7354,2.8772,2.9898,3.063,3.0909,3.0569,3.0457,3.0411,3.0446,2.9781,2.9361,2.946,2.8941,2.849,2.8188,2.8182,2.7946,2.7469,2.7266,2.7087,2.6894,2.6431,2.6019,2.5671,2.5893,2.5744,2.5312,2.5312,2.52,2.4998,2.5218,2.5182,2.4992,2.4992,2.4992,2.4992,2.4992,2.4992,2.4998,2.5223,2.5276,2.5223,0.0,0.0,0.0,0.0,0.0,0.0,0.0,0.0,0.0,0.0,0.0,0.0,0.0,0.0,0.0,0.0,0.0,0.0,0.0,0.0,0.0,0.0,0.0,1.8453,1.7579,1.6723,1.5878,1.5039,1.5187,1.5575,1.6174,0.0,0.0,0.0,1.8085,1.8083,1.7738,1.6876,1.6194,1.5662,1.5113,1.4538,0.0,0.0,0.0,0.0,0.0,0.0,0.0,0.0,1.4282,0.0,0.0,0.0,0.0,0.0,1.8346,1.9143,1.8787,1.8893,1.9853,0.0,0.0,0.0,0.0,0.0,0.0,0.0,0.0,0.0,0.0,0.0,0.0,0.0,2.7192,2.8525,2.9264,2.9929,3.012,2.9533,2.961,2.979,3.0071,2.9541,2.9266,2.9461,2.9145,2.8741,2.8279,2.8194,2.8009,2.7664,2.7164,2.6948,2.6989,2.657,2.6314,2.6244,2.6489,2.6206,2.5488,2.5488,2.5371,2.5153,2.5394,2.5371,2.5147,2.501,2.4849,2.47,2.47,2.4736,2.4825,2.507,2.5218,2.5312,0.0,0.0,0.0,0.0,0.0,0.0,0.0,0.0,0.0,0.0,0.0,0.0,0.0,0.0,0.0,0.0,0.0,0.0,0.0,0.0,0.0,0.0,0.0,1.8657,1.794,1.7128,1.6174,1.5098,1.5317,1.6309,1.8005,1.8014,0.0,0.0,0.0,1.8707,1.7765,1.6902,1.6565,1.6454,1.4706,1.4051,1.4082,0.0,0.0,0.0,0.0,0.0,0.0,0.0,1.4458,1.4541,0.0,0.0,0.0,1.688,1.7994,1.9072,1.8099,1.8454,1.9429,0.0,0.0,0.0,0.0,0.0,0.0,0.0,0.0,0.0,0.0,0.0,0.0,2.6074,2.5768,2.6137,2.8121,2.8067,2.824,2.9448,2.8873,2.8896,3.0174,2.974,2.9396,2.9399,2.9565,2.9359,2.8613,2.8384,2.7788,2.6715,2.6685,2.6774,2.6982,2.7185,2.7185,2.6982,2.6977,2.6615,2.591,2.591,2.591,2.5881,2.591,2.591,2.5863,2.5453,2.4987,2.449,2.449,2.4628,2.479,2.479,2.4998,2.5312,0.0,0.0,0.0,0.0,0.0,0.0,0.0,0.0,0.0,0.0,0.0,0.0,0.0,0.0,0.0,0.0,0.0,0.0,0.0,0.0,0.0,0.0,0.0,0.0,0.0,0.0,1.6789,1.5386,1.5914,1.6788,0.0,0.0,0.0,1.8834,0.0,0.0,0.0,0.0,1.8198,1.6584,1.5497,1.4669,1.4103,0.0,0.0,0.0,0.0,0.0,0.0,0.0,0.0,0.0,0.0,0.0,0.0,1.8099,1.8777,1.9406,2.0189,1.9699,0.0,0.0,0.0,0.0,0.0,0.0,0.0,0.0,0.0,0.0,0.0,0.0,0.0,2.5557,2.6528,2.7797,2.8809,2.89,2.8781,2.8564,2.8448,2.8733,2.9589,2.8683,2.8316,2.8928,2.8254,2.74,2.6462,2.6674,2.6531,2.5886,2.587,2.5824,2.5733,2.5619,2.5448,2.5327,2.5794,2.5974,2.591,2.591,2.5758,2.5488,2.5776,2.5741,2.5483,2.5347,2.4975,2.4509,2.476,2.4838,2.4825,2.507,2.5218,2.5312,0.0,0.0,0.0,0.0,0.0,0.0,0.0,0.0,0.0,0.0,0.0,0.0,0.0,0.0,0.0,0.0,0.0,0.0,0.0,0.0,0.0,0.0,0.0,0.0,0.0,1.8115,1.74,0.0,0.0,0.0,0.0,0.0,0.0,1.8761,0.0,1.9427,0.0,0.0,1.7595,1.629,1.5696,1.4976,1.4299,0.0,0.0,0.0,0.0,0.0,0.0,0.0,0.0,0.0,0.0,0.0,0.0,1.7691,1.8663,1.992,2.0603,2.0296,0.0,0.0,0.0,0.0,0.0,0.0,0.0,0.0,0.0,2.735,2.52,2.6915,0.0,2.6778,2.7485,2.8327,2.8639,2.8585,2.8404,2.8135,2.804,2.8288,2.9013,2.8169,2.7834,2.8437,2.7752,2.6963,2.6129,2.6294,2.6171,2.5675,2.5487,2.5411,2.5477,2.5036,2.4852,2.4965,2.5183,2.5324,2.5402,2.5904,2.5844,2.5335,2.5289,2.5037,2.4681,2.4985,2.4789,2.4342,2.4827,2.4957,2.4909,2.5117,2.5241,2.5312,0.0,0.0,0.0,0.0,0.0,0.0,0.0,0.0,0.0,0.0,0.0,0.0,0.0,0.0,0.0,0.0,0.0,0.0,0.0,0.0,0.0,0.0,0.0,0.0,0.0,0.0,0.0,0.0,0.0,0.0,0.0,0.0,1.8879,1.8131,0.0,1.7837,0.0,1.6178,1.5829,1.5786,1.5466,1.4996,1.4566,1.5239,0.0,0.0,0.0,0.0,0.0,0.0,0.0,0.0,1.4851,1.6502,1.8059,1.6405,1.8076,2.0401,2.0031,0.0,0.0,0.0,0.0,0.0,0.0,0.0,0.0,0.0,0.0,2.9816,2.9572,2.9538,2.9425,2.9044,2.8559,2.8171,2.8049,2.765,2.7561,2.8042,2.7686,2.7715,2.8521,2.8011,2.7753,2.7968,2.7795,2.7434,2.6875,2.6711,2.638,2.5847,2.5415,2.54,2.5816,2.509,2.4928,2.5316,2.4915,2.4648,2.4585,2.5787,2.5941,2.5261,2.4591,2.4091,2.3806,2.4485,2.4511,2.4153,2.469,2.4933,2.498,2.498,2.5087,2.5257,0.0,0.0,0.0,0.0,0.0,0.0,0.0,0.0,0.0,0.0,0.0,0.0,0.0,0.0,0.0,0.0,0.0,0.0,0.0,0.0,0.0,0.0,0.0,0.0,0.0,0.0,0.0,0.0,0.0,0.0,0.0,0.0,0.0,1.9146,0.0,1.9711,1.8022,1.8353,1.7479,1.581,1.5062,1.4662,1.4523,1.4685,1.4709,0.0,0.0,0.0,0.0,0.0,0.0,0.0,1.5024,1.5748,1.6831,1.7409,1.8467,1.977,0.0,2.1049,0.0,0.0,0.0,0.0,0.0,0.0,0.0,2.9357,2.9458,2.9258,2.9659,2.9821,2.9843,2.9644,2.9387,2.9147,2.902,2.8376,2.7974,2.8089,2.7724,2.7721,2.8388,2.7802,2.753,2.7895,2.7216,2.6479,2.5784,2.5952,2.5854,2.537,2.5256,2.5199,2.5184,2.4411,2.4011,2.4009,2.4112,2.4164,2.4158,2.4737,2.4843,2.4542,2.4382,2.4239,2.4173,2.4328,2.4601,2.4825,2.4374,2.4474,2.4836,2.4836,2.4871,2.4983,0.0,0.0,0.0,0.0,0.0,0.0,0.0,0.0,0.0,0.0,0.0,0.0,0.0,0.0,0.0,0.0,0.0,0.0,0.0,0.0,0.0,0.0,0.0,0.0,0.0,0.0,0.0,0.0,0.0,0.0,0.0,0.0,0.0,1.9402,0.0,1.9282,1.8294,1.8186,1.7522,1.6472,1.5921,1.5494,1.5212,1.5567,1.552,1.5261,1.524,0.0,0.0,0.0,0.0,0.0,0.0,0.0,1.7885,1.7635,1.8396,1.9571,0.0,0.0,0.0,0.0,0.0,0.0,0.0,2.7743,2.8527,2.9308,2.9765,2.9981,2.9799,3.0074,3.0043,2.9181,2.9245,2.9281,2.8969,2.8575,2.8357,2.8427,2.814,2.804,2.8367,2.7914,2.7675,2.788,2.721,2.6705,2.6504,2.6176,2.5961,2.592,2.5453,2.5272,2.5439,2.4567,2.4221,2.4364,2.4047,2.3761,2.3492,2.3962,2.4115,2.3995,2.3668,2.3542,2.355,2.3808,2.4079,2.4308,2.4185,2.4458,2.4934,2.4934,2.5105,2.5379,0.0,0.0,0.0,0.0,0.0,0.0,0.0,0.0,0.0,0.0,0.0,0.0,0.0,0.0,0.0,0.0,0.0,0.0,0.0,0.0,0.0,0.0,0.0,0.0,0.0,0.0,0.0,0.0,0.0,0.0,0.0,0.0,0.0,1.9763,0.0,0.0,1.8243,1.7494,1.7114,1.6981,1.6802,1.6319,1.5757,1.6512,1.641,1.5898,1.5984,1.6149,1.6214,1.5273,0.0,0.0,0.0,0.0,1.8992,1.7271,1.7923,1.9243,0.0,0.0,2.2379,2.4402,2.6069,0.0,2.6386,2.77,2.9094,2.9212,3.0156,3.0696,2.9784,3.0081,2.9982,2.8605,2.8843,2.9061,2.8614,2.8546,2.8619,2.88,2.8631,2.8525,2.8573,2.8322,2.8107,2.8033,2.7615,2.7464,2.7722,2.6811,2.6458,2.685,2.5906,2.5605,2.6069,2.5147,2.4879,2.5258,2.441,2.368,2.3133,2.3664,2.3754,2.3445,2.289,2.2647,2.2684,2.3219,2.3469,2.3573,2.395,2.4386,2.4829,2.4783,2.5048,2.5453,0.0,0.0,0.0,0.0,0.0,0.0,0.0,0.0,0.0,0.0,0.0,0.0,0.0,0.0,0.0,0.0,0.0,0.0,0.0,0.0,0.0,0.0,0.0,0.0,0.0,0.0,0.0,0.0,0.0,0.0,0.0,0.0,0.0,2.1387,0.0,0.0,0.0,1.8298,1.7458,1.6159,1.613,1.5583,1.4863,1.5652,1.59,1.5905,1.6583,1.7624,1.8459,1.7185,1.7642,0.0,0.0,0.0,1.7256,1.6183,1.6908,1.7996,0.0,0.0,2.2385,0.0,2.4278,2.4233,0.0,0.0,2.8064,0.0,2.9514,2.9572,2.9319,2.9335,2.9343,2.9103,2.8918,2.8783,2.8749,2.8522,2.8501,2.8916,2.895,2.9022,2.933,2.9213,2.8974,2.8626,2.8427,2.8183,2.7886,2.7299,2.7146,2.7548,2.6656,2.6352,2.6758,2.5877,2.5481,2.555,2.5063,2.4524,2.3971,2.456,2.4005,2.2576,2.2475,2.2436,2.2482,2.2961,2.3361,2.3648,2.3367,2.3446,2.3682,2.3522,2.3494,2.3648,0.0,0.0,0.0,0.0,0.0,0.0,0.0,0.0,0.0,0.0,0.0,0.0,0.0,0.0,0.0,0.0,0.0,0.0,0.0,0.0,0.0,1.8604,1.8604,1.884,0.0,0.0,0.0,0.0,0.0,0.0,0.0,2.2682,2.2326,0.0,0.0,0.0,0.0,0.0,1.867,1.7098,1.6195,1.5784,1.582,1.6738,1.7309,1.7647,0.0,0.0,0.0,1.7472,1.7693,1.8474,1.7859,0.0,0.0,0.0,1.6543,0.0,1.8315,1.9343,2.0903,0.0,2.3829,2.3158,2.6336,0.0,2.6497,2.7926,2.8155,2.8373,2.9205,2.9246,2.8902,2.816,2.8254,2.8352,2.8165,2.803,2.811,2.8454,2.8691,2.8887,2.9043,2.9262,2.9378,2.9266,2.8928,2.8787,2.8904,2.8033,2.7625,2.7812,2.7274,2.6839,2.6578,2.6416,2.608,2.5591,2.5688,2.5328,2.4624,2.5105,2.461,2.335,2.335,2.3292,2.316,2.3037,2.3175,2.3454,2.3281,2.3712,2.4343,2.391,2.4001,2.4386,0.0,0.0,0.0,0.0,0.0,0.0,0.0,0.0,0.0,0.0,0.0,0.0,0.0,0.0,0.0,0.0,0.0,0.0,0.0,0.0,0.0,1.8891,1.9034,1.9308,1.9695,0.0,0.0,0.0,0.0,0.0,2.2819,2.3302,2.2916,0.0,2.3554,0.0,0.0,0.0,0.0,0.0,1.7372,1.6762,1.6695,0.0,0.0,0.0,0.0,0.0,0.0,0.0,0.0,0.0,1.8452,1.8487,0.0,0.0,0.0,0.0,0.0,0.0,1.927,2.3367,2.2816,2.2088,0.0,0.0,2.5383,0.0,2.7346,2.7866,2.9073,2.8948,2.8323,2.7299,2.7608,2.7886,2.7615,2.7623,2.7773,2.811,2.8484,2.8765,2.883,2.9307,2.9539,2.9407,2.9255,2.9225,2.9396,2.8643,2.8243,2.8304,2.7876,2.7352,2.6708,2.6826,2.6549,2.592,2.6259,2.6016,2.5245,2.5701,2.5412,2.4551,2.4337,2.4164,2.3992,2.3621,2.3488,2.3522,2.3669,2.4133,2.4672,2.4296,2.4474,2.4915,0.0,0.0,0.0,0.0,0.0,0.0,0.0,0.0,0.0,0.0,0.0,0.0,0.0,0.0,0.0,1.89,1.9016,1.9298,1.981,2.0137,2.0129,1.9664,2.055,0.0,1.9726,0.0,0.0,0.0,0.0,0.0,2.0983,2.257,2.3164,2.2973,2.4276,2.4448,2.3717,0.0,0.0,0.0,2.0155,1.8673,0.0,0.0,0.0,0.0,0.0,0.0,0.0,0.0,0.0,0.0,0.0,0.0,0.0,0.0,0.0,0.0,0.0,1.7488,0.0,2.0211,0.0,0.0,0.0,0.0,0.0,2.6561,2.7786,2.8642,2.8738,2.7993,2.7377,2.7299,2.7316,2.7381,2.7487,2.751,2.7702,2.8234,2.859,2.8922,2.9237,2.9646,2.9507,2.8629,2.9355,2.9469,2.8602,2.8856,2.9147,2.9416,2.855,2.7987,2.7812,2.7139,2.6779,2.674,2.6753,2.6447,2.588,2.646,2.6394,2.5756,2.5007,2.4656,2.4683,2.4951,2.4681,2.4118,2.4693,2.4406,2.3704,2.3927,2.4028,2.4054,0.0,0.0,0.0,0.0,0.0,0.0,0.0,0.0,0.0,0.0,0.0,0.0,0.0,0.0,1.9264,1.9276,1.9253,1.9344,1.9622,1.9466,1.9331,1.9254,1.9427,1.9578,1.9691,0.0,0.0,0.0,0.0,1.9664,2.0815,2.141,2.2207,2.3239,2.5716,2.479,2.1481,2.3313,0.0,0.0,2.0065,1.9367,1.7307,0.0,0.0,0.0,0.0,0.0,0.0,0.0,0.0,0.0,0.0,0.0,0.0,0.0,0.0,0.0,0.0,0.0,0.0,1.9096,1.876,1.8458,2.1443,2.2894,2.383,2.4533,2.6233,2.7349,2.6482,2.6757,2.7114,2.7114,2.7145,2.7192,2.7238,2.7246,2.7318,2.7504,2.7896,2.8216,2.8339,2.8464,2.8452,2.8202,2.7452,2.7239,2.7769,2.7113,2.7227,2.8309,2.818,2.8042,2.7898,2.7179,2.6792,2.6792,2.6792,2.6687,2.6474,2.67,2.6687,2.646,2.6177,2.5742,2.5273,2.5133,2.5021,2.4951,2.5273,2.53,2.5175,2.488,2.4723,2.4648,0.0,0.0,0.0,0.0,0.0,0.0,0.0,0.0,0.0,0.0,0.0,0.0,0.0,0.0,1.9486,1.9538,1.945,1.9512,1.9742,1.9483,1.9282,1.9245,1.9343,1.9505,1.9709,0.0,0.0,0.0,0.0,0.0,0.0,2.0284,2.0966,2.206,2.439,2.4114,0.0,0.0,0.0,1.9768,0.0,2.0965,1.9505,0.0,0.0,0.0,0.0,0.0,0.0,0.0,0.0,0.0,0.0,0.0,0.0,0.0,0.0,0.0,1.5924,0.0,0.0,0.0,0.0,1.7311,2.0133,0.0,2.3188,2.3399,2.5425,2.689,2.5997,2.6472,2.6991,2.6991,2.7063,2.7101,2.7125,2.7166,2.7215,2.723,2.7605,2.7877,2.7877,2.7997,2.7974,2.7786,2.6847,2.6659,2.7558,2.6872,2.7034,2.8266,2.8032,2.7779,2.7531,2.7289,2.6922,2.6393,2.6808,2.6923,2.6792,2.6792,2.6792,2.6792,2.6792,2.6459,2.5878,2.5605,2.5481,2.5481,2.5728,2.5865,2.5907,2.566,2.5481,2.5383,0.0,0.0,0.0,0.0,0.0,0.0,0.0,0.0,0.0,0.0,0.0,0.0,0.0,0.0,0.0,1.9598,1.9574,1.9771,2.0235,2.0258,2.0083,1.9686,2.0475,2.0533,1.9696,2.0493,0.0,0.0,0.0,0.0,0.0,0.0,1.9519,0.0,2.0227,2.2394,2.5552,0.0,2.6639,2.559,0.0,2.3543,2.3006,0.0,0.0,0.0,2.2491,2.2048,0.0,2.2394,0.0,0.0,0.0,0.0,0.0,0.0,0.0,0.0,0.0,0.0,0.0,0.0,0.0,0.0,1.7633,0.0,2.3477,2.3276,2.5472,2.7426,2.7434,2.7198,2.6991,2.6991,2.7055,2.7109,2.7181,2.732,2.7423,2.7481,2.7779,2.7981,2.7981,2.8316,2.8185,2.7352,2.765,2.7886,2.7925,2.8314,2.879,2.9384,2.8141,2.7253,2.6823,2.7503,2.7121,2.5692,2.6833,2.7183,2.6819,2.6806,2.6792,2.6792,2.6792,2.6686,2.6497,2.651,2.6162,2.5687,2.6138,2.6029,2.5687,2.6138,2.6219,2.6111,0.0,0.0,0.0,0.0,0.0,0.0,0.0,0.0,0.0,0.0,0.0,0.0,0.0,0.0,0.0,1.9314,1.9224,1.9263,1.9492,1.9277,1.9147,1.912,1.9207,1.9143,1.8911,1.9143,0.0,0.0,0.0,0.0,0.0,0.0,0.0,0.0,1.93,2.0114,2.0705,2.3963,0.0,0.0,2.4565,2.3804,0.0,0.0,0.0,0.0,0.0,2.2466,2.1921,0.0,2.1925,2.0766,0.0,0.0,0.0,0.0,0.0,0.0,1.6379,0.0,0.0,0.0,0.0,0.0,0.0,0.0,2.1755,2.1906,2.3971,2.5783,2.5897,2.6506,2.6991,2.6991,2.7015,2.7047,2.7127,2.7159,2.7223,2.7345,2.743,2.7486,2.7486,2.7335,2.7138,0.0,2.5683,2.5313,2.6149,2.6535,2.6809,2.6957,2.6836,2.699,2.745,2.698,2.6976,2.7394,2.7104,2.7054,2.7222,2.6923,2.6792,2.6792,2.6792,2.6686,2.651,2.6658,2.662,2.6473,2.6606,2.6486,2.627,2.6391,2.6366,2.6246,0.0,0.0,0.0,0.0,0.0,0.0,0.0,0.0,0.0,0.0,0.0,0.0,0.0,0.0,0.0,1.9192,1.9139,1.908,1.9072,1.8882,1.878,1.878,1.866,1.8556,1.8474,1.8474,0.0,0.0,0.0,0.0,0.0,0.0,0.0,0.0,0.0,0.0,0.0,0.0,0.0,0.0,2.3705,0.0,0.0,2.4333,2.3741,0.0,0.0,0.0,2.3328,2.4049,2.3159,0.0,0.0,0.0,0.0,0.0,0.0,0.0,0.0,0.0,0.0,0.0,0.0,0.0,1.8266,2.0198,2.1903,0.0,2.4203,2.5828,2.4885,2.5503,2.606,2.5681,2.5855,2.6281,2.7009,2.716,2.7217,2.7282,2.7307,2.7307,2.7307,2.7088,2.6957,2.6957,2.5581,2.506,2.577,2.5978,2.6207,2.6492,2.6355,2.658,2.7194,2.6979,2.7052,2.7394,2.741,2.7359,2.7222,2.7179,2.7104,2.6976,2.6976,2.687,2.6711,2.6832,2.6806,2.6686,2.6766,2.6725,2.6632,2.6632,2.6526,2.6378,0.0,0.0,0.0,0.0,0.0,0.0,0.0,0.0,0.0,0.0,0.0,0.0,0.0,0.0,0.0,0.0,1.9123,1.906,1.8882,1.8891,1.8825,1.8637,1.8604,1.8513,1.8335,1.831,0.0,0.0,0.0,0.0,0.0,0.0,0.0,0.0,0.0,0.0,0.0,0.0,0.0,2.3821,2.2323,2.4042,0.0,0.0,2.478,2.4773,2.6493,2.5938,2.4569,2.5824,2.4857,0.0,0.0,0.0,0.0,0.0,1.9625,0.0,0.0,0.0,0.0,0.0,0.0,0.0,1.8624,2.0758,2.2544,0.0,2.4736,2.6041,2.3967,2.4156,2.4376,2.3601,2.3979,2.4955,2.6623,2.7106,2.723,2.7057,2.7203,2.7307,2.7307,2.7307,2.7307,2.7307,2.6547,2.6084,2.6074,2.6076,2.6342,2.6941,2.635,2.6204,2.66,2.7344,2.7396,2.6778,2.7771,2.7867,2.7222,2.7522,2.7494,2.7244,2.722,2.713,2.7016,2.7016,2.683,2.6551,2.6725,2.6792,2.6792,2.6792,2.6686,2.6523,0.0,0.0,0.0,0.0,0.0,0.0,0.0,0.0,0.0,0.0,0.0,0.0,0.0,0.0,0.0,0.0,0.0,1.8707,1.866,1.8811,1.8887,1.8847,1.8688,1.8576,1.8537,1.8381,0.0,0.0,0.0,0.0,0.0,0.0,0.0,0.0,0.0,0.0,0.0,0.0,0.0,2.0182,2.2206,0.0,2.3973,2.5216,2.429,2.2692,2.5477,2.5243,2.3727,2.4479,2.4632,2.4126,0.0,0.0,0.0,1.9673,0.0,0.0,0.0,0.0,0.0,0.0,0.0,0.0,1.8749,1.898,1.9326,0.0,2.0867,2.1541,2.1566,2.1984,2.2291,2.2128,2.2197,2.3003,2.5035,2.6371,2.6729,2.5584,2.654,2.7307,2.7307,2.7307,2.7307,2.7307,2.6547,2.5844,2.5265,2.5231,2.5294,2.5437,2.592,2.6501,2.7227,2.766,2.8268,2.9053,2.8206,2.8076,2.8503,2.7673,2.7408,2.7595,2.7321,2.7194,2.7155,2.7155,2.6987,2.6753,2.6779,2.6792,2.6792,2.6792,2.6779,2.6738,0.0,0.0,0.0,0.0,0.0,0.0,0.0,0.0,0.0,0.0,0.0,0.0,0.0,0.0,0.0,0.0,0.0,0.0,0.0,0.0,1.8596,1.8596,1.8508,1.8395,1.8302,1.8194,1.8068,0.0,0.0,0.0,0.0,0.0,0.0,0.0,0.0,0.0,0.0,0.0,1.678,1.9165,2.1154,0.0,2.3706,2.5155,2.4887,2.3956,2.5497,2.5342,2.4362,2.41,2.4255,0.0,2.2966,2.1637,2.0463,0.0,1.8882,1.7856,0.0,0.0,0.0,1.8356,0.0,0.0,0.0,1.875,1.9104,1.9132,1.9988,2.0284,1.8948,1.9221,1.9498,1.9029,1.928,1.9927,2.0958,2.3855,2.5861,2.5885,2.6738,2.7234,2.7063,2.721,2.7162,2.6825,2.6427,2.5859,2.5088,2.5048,2.5019,2.4995,2.5387,2.6181,2.74,2.7378,2.804,2.938,2.8567,2.8267,2.8388,2.8165,2.7907,2.7645,2.772,2.7585,2.7297,2.7297,2.7181,2.6987,2.6987,2.6987,2.6987,2.6923,2.6899,2.6899,0.0,0.0,0.0,0.0,0.0,0.0,0.0,0.0,0.0,0.0,0.0,0.0,0.0,0.0,0.0,0.0,0.0,0.0,0.0,0.0,1.8435,1.848,1.8255,1.8065,1.7917,1.7872,1.7721,0.0,0.0,0.0,0.0,0.0,0.0,0.0,0.0,0.0,0.0,0.0,0.0,1.9415,0.0,2.2151,2.4053,2.4976,2.5337,2.5383,2.555,2.5513,2.5224,2.405,2.3852,2.4118,2.4122,2.2278,0.0,0.0,0.0,0.0,0.0,0.0,0.0,0.0,0.0,1.7671,0.0,0.0,0.0,1.8347,1.9311,0.0,0.0,0.0,0.0,0.0,0.0,0.0,0.0,2.0661,0.0,2.4831,2.5481,2.5731,2.5452,2.6068,2.6424,2.6236,2.6225,2.5919,2.5185,2.5136,2.5181,2.53,2.5437,2.6216,2.7686,2.753,2.8078,2.9319,2.9005,2.8626,2.8216,2.8583,2.8371,2.7738,2.8027,2.7894,2.7437,2.7437,2.7374,2.7269,2.7233,2.7207,2.7194,2.708,2.7016,2.6977,1.7201,1.7648,0.0,0.0,0.0,0.0,0.0,0.0,0.0,0.0,0.0,0.0,0.0,0.0,0.0,0.0,0.0,0.0,1.8153,0.0,0.0,1.9086,1.8138,1.7586,1.7563,1.7381,1.7252,1.7163,0.0,0.0,0.0,0.0,0.0,0.0,1.5232,0.0,0.0,0.0,1.8626,0.0,2.1869,2.2604,0.0,2.4184,2.4314,2.3857,2.4641,2.5119,2.5205,0.0,2.3635,2.3696,0.0,2.1433,1.9615,2.0673,0.0,0.0,0.0,0.0,0.0,0.0,1.799,0.0,0.0,0.0,1.6457,1.5833,0.0,1.617,0.0,0.0,0.0,0.0,0.0,0.0,1.6849,1.76,1.8059,1.8349,1.9663,2.0545,2.0512,2.2372,2.4244,2.5841,2.5961,2.5752,2.5304,2.5285,2.5596,2.63,2.7018,2.785,2.8817,2.9484,2.9907,3.0071,2.9627,2.9391,2.9284,2.859,2.8235,2.8113,2.7813,2.7635,2.7575,2.7575,2.7575,2.7537,2.7282,2.7207,2.7207,2.7181,2.7106,2.7003,1.6465,1.6997,0.0,0.0,0.0,0.0,0.0,0.0,0.0,0.0,0.0,0.0,0.0,0.0,0.0,0.0,0.0,1.9501,0.0,0.0,0.0,0.0,1.7558,1.6804,1.6804,1.7053,1.7012,1.6642,1.7352,0.0,0.0,0.0,0.0,0.0,1.5251,0.0,1.7105,0.0,1.8858,0.0,0.0,0.0,0.0,2.3187,2.3696,2.332,2.2833,2.3543,2.43,0.0,2.2936,0.0,0.0,0.0,0.0,2.2195,0.0,0.0,0.0,0.0,0.0,0.0,0.0,0.0,1.8186,0.0,1.601,0.0,0.0,0.0,0.0,0.0,0.0,0.0,1.2998,0.0,0.0,0.0,1.5205,1.8694,0.0,0.0,2.1741,2.1865,2.2401,2.3662,2.4106,2.4012,2.3313,2.4559,2.5452,2.5795,2.6585,2.7389,2.8241,2.9081,2.9737,3.0189,2.9771,2.9425,2.9136,2.8846,2.841,2.7875,2.8286,2.814,2.7625,2.7894,2.7845,2.76,2.7486,2.7435,2.7423,2.7348,2.7397,2.7469,0.0,0.0,0.0,0.0,0.0,0.0,0.0,0.0,0.0,0.0,0.0,0.0,2.021,1.9916,0.0,0.0,1.9742,1.9729,0.0,0.0,1.8233,0.0,0.0,0.0,1.6762,1.6958,1.6895,1.6567,0.0,0.0,0.0,0.0,0.0,0.0,0.0,1.5663,1.6554,0.0,1.9032,2.0084,2.085,2.0805,2.045,2.2102,2.2958,2.3153,2.2083,2.2662,2.3536,2.0856,2.2385,0.0,2.2258,2.1715,2.2199,0.0,0.0,0.0,2.1037,0.0,0.0,0.0,0.0,0.0,0.0,0.0,0.0,0.0,0.0,0.0,0.0,0.0,0.0,0.0,0.0,1.232,0.0,1.1946,0.0,0.0,0.0,0.0,0.0,2.0951,2.0903,2.1603,2.2557,2.2782,2.2018,2.4048,2.5355,2.5576,2.6142,2.6983,2.814,2.878,2.9416,3.0092,2.9919,2.9528,2.8962,2.9193,2.876,2.7882,2.8665,2.8594,2.7966,2.8316,2.8331,2.8076,2.7981,2.7919,2.7872,2.7615,2.7648,2.783,1.4181,1.5212,0.0,0.0,0.0,0.0,0.0,0.0,0.0,0.0,0.0,0.0,0.0,0.0,0.0,0.0,0.0,1.8534,1.9198,0.0,1.8698,0.0,0.0,1.6417,1.791,1.7131,1.6901,1.7273,0.0,0.0,0.0,0.0,0.0,0.0,0.0,1.5473,1.6977,1.8511,1.9409,1.9975,2.1866,2.1954,2.097,0.0,2.195,2.3282,2.3253,0.0,0.0,2.2604,2.2144,0.0,0.0,0.0,0.0,0.0,0.0,0.0,0.0,0.0,0.0,1.9935,0.0,0.0,0.0,0.0,1.525,0.0,0.0,0.0,0.0,0.0,0.0,0.0,0.0,0.0,0.0,0.0,0.0,0.0,0.0,0.0,0.0,1.8422,1.9819,2.0236,2.1918,2.2744,2.2403,2.4112,2.5468,2.6238,2.6296,2.7243,2.9232,2.9275,2.9462,2.9821,3.0252,2.9995,2.9097,2.9561,2.9298,2.8475,2.8638,2.8725,2.8775,2.885,2.9062,2.9305,2.8982,2.8772,2.8591,2.7996,2.779,2.784,0.0,0.0,0.0,0.0,0.0,0.0,0.0,1.6977,0.0,0.0,1.9406,0.0,0.0,2.0458,1.9729,0.0,0.0,1.9754,1.9235,1.8997,0.0,0.0,1.7964,1.6885,1.6626,1.7226,1.7047,0.0,0.0,0.0,0.0,0.0,0.0,0.0,0.0,1.4849,0.0,0.0,0.0,0.0,0.0,2.0313,2.0074,0.0,2.1297,2.1787,2.1787,2.2289,0.0,2.1111,2.2199,2.3989,2.272,2.2251,2.2521,2.4299,2.2833,2.1018,0.0,0.0,2.2064,2.2623,0.0,0.0,0.0,0.0,0.0,0.0,0.0,0.0,0.0,0.0,0.0,0.0,0.0,0.0,0.0,0.0,0.0,0.0,0.0,0.0,0.0,0.0,1.609,1.7192,1.814,1.8557,1.831,2.1351,2.3396,2.4042,2.5502,2.6737,2.7637,2.8754,2.8977,2.8365,2.9902,2.9894,2.8531,2.9314,2.9337,2.8775,2.89,2.8795,2.859,2.9223,2.9325,2.9085,2.9244,2.93,2.9203,2.8474,2.8344,2.855,1.1913,0.0,0.0,0.0,0.0,0.0,0.0,0.0,0.0,0.0,1.9156,0.0,2.0377,0.0,1.959,0.0,1.8983,1.9281,1.9467,1.8304,0.0,1.962,1.7393,1.62,1.631,0.0,0.0,0.0,0.0,1.6705,0.0,0.0,0.0,0.0,0.0,1.3847,1.3547,1.6539,1.7898,0.0,0.0,1.8812,0.0,0.0,2.0329,2.1202,0.0,2.1498,2.1979,2.0812,2.2017,2.373,2.218,2.2298,2.3189,2.412,2.2971,2.1762,2.3421,2.3135,0.0,2.3311,2.1569,0.0,2.0365,0.0,1.6429,0.0,0.0,0.0,0.0,0.0,0.0,0.0,0.0,0.0,0.0,1.1384,0.0,0.0,0.0,0.0,0.0,1.5039,1.4826,1.5139,1.6129,1.6599,1.6354,1.9951,2.2186,2.2524,2.4579,2.5981,2.662,2.7813,2.8093,2.7478,2.9274,2.9444,2.8197,2.9108,2.9269,2.8851,2.9159,2.9126,2.8923,2.9658,2.9729,2.9399,2.9675,2.9702,2.9529,2.9018,2.9044,2.9343,0.0,0.0,0.0,0.0,1.3642,0.0,0.0,0.0,1.7443,0.0,1.9034,1.8486,1.9288,1.8105,1.7555,1.8337,1.6968,1.7069,1.9508,1.6586,0.0,0.0,1.573,1.4576,1.694,0.0,0.0,0.0,0.0,0.0,0.0,0.0,0.0,0.0,1.3183,0.0,1.2139,1.5569,1.6431,1.5565,1.6442,1.7587,1.8608,1.7636,1.9026,2.1434,2.1066,2.0957,2.1063,2.1647,2.1602,2.1405,2.1988,2.2184,2.2128,2.1653,2.1852,2.2315,2.2737,2.2844,2.2693,2.2087,2.1623,0.0,0.0,0.0,1.8395,0.0,0.0,0.0,0.0,0.0,0.0,0.0,0.0,0.0,0.0,0.0,1.1397,0.0,0.0,0.0,0.0,1.5365,1.5814,1.4104,1.5797,1.6812,0.0,1.9838,2.1749,2.1904,2.3536,2.5005,2.6232,2.6523,2.6819,2.7153,2.8468,2.873,2.8109,2.8972,2.9116,2.8736,2.9273,2.9546,2.9638,3.0028,3.0156,3.0095,3.0188,2.999,2.9629,2.9632,2.9892,3.0122,0.9508,0.9681,0.9933,0.0,1.251,1.4963,0.0,0.0,0.0,0.0,1.6961,1.6449,1.6261,1.6389,1.5887,1.4366,1.4881,0.0,0.0,0.0,0.0,1.6751,1.6125,1.5637,1.5396,1.6192,1.634,1.5834,0.0,0.0,1.6139,0.0,0.0,0.0,0.0,0.0,1.0953,1.4444,1.6193,1.6598,1.5811,1.6337,1.7563,0.0,1.8063,1.9773,2.0016,2.0399,2.0795,2.0961,2.1199,2.1484,2.1624,2.1442,2.1248,2.1501,2.1422,2.1359,2.1807,2.193,2.2036,2.2453,2.1189,1.9879,0.0,0.0,0.0,0.0,0.0,0.0,0.0,0.0,0.0,0.0,0.0,0.0,0.0,0.0,0.0,1.1948,1.2608,1.3155,1.3496,1.3749,1.3788,1.3573,1.4001,1.4872,1.6237,1.7836,1.9694,2.1829,2.1718,2.2919,2.5596,2.5079,2.5223,2.6108,2.8139,2.8648,2.7829,2.8498,2.8841,2.8902,2.8304,2.8168,2.8372,2.8629,2.8682,2.8595,2.8969,2.9492,3.0039,3.0102,3.0309,3.0535,0.7892,0.0,0.0,0.9194,0.0,0.0,1.374,1.4531,0.0,1.6228,1.5949,0.0,1.5788,1.5797,1.5264,1.3946,1.3686,0.0,1.4334,0.0,0.0,1.576,1.5083,1.4288,1.3462,1.4342,0.0,1.3765,0.0,0.0,1.4423,0.0,0.0,0.0,0.0,1.0636,0.9967,1.2929,1.4892,1.5898,1.4694,1.4999,0.0,1.5955,1.6733,1.8087,1.8964,1.9487,1.9783,1.9783,1.9991,2.0263,2.0441,2.0498,2.0524,2.0723,2.0768,2.076,2.0697,2.0685,2.0785,2.1245,2.0358,1.9531,2.0053,1.8738,1.7209,0.0,1.6315,1.5922,0.0,0.0,0.0,0.0,0.0,0.0,0.0,0.0,0.0,0.0,1.2472,1.2922,1.3216,1.3116,1.3134,1.3382,1.3421,1.3916,1.5002,1.7123,1.8763,1.9778,2.0925,2.2048,2.316,2.2823,2.3238,2.4418,2.5986,2.6812,2.6966,2.7456,2.7767,2.7898,2.7646,2.7639,2.7793,2.822,2.817,2.785,2.8113,2.876,2.9571,2.9729,3.0288,3.0958,0.0,0.0,0.0,0.0,0.0,0.0,0.0,1.2368,0.0,1.5046,0.0,1.4873,1.5537,1.4988,1.4547,1.4476,0.0,1.2503,1.4938,1.1994,1.1682,1.5075,1.3138,1.1834,1.1545,1.1606,1.1621,0.0,0.0,0.0,0.0,0.0,0.0,0.0,0.0,0.0,0.0,1.1334,1.3021,1.4357,1.352,1.3774,1.4639,1.4776,1.5403,1.6398,1.7605,1.828,1.86,1.86,1.856,1.8573,1.898,1.939,1.9671,1.9561,1.9861,2.0072,1.9494,1.9318,1.9291,1.9291,1.9291,1.9373,1.9592,1.8984,1.8164,1.7405,1.7409,1.6688,1.3884,0.0,0.0,0.0,0.0,0.0,0.0,0.0,0.0,0.0,0.0,0.0,1.2754,1.2984,1.3224,1.3357,1.3497,1.3632,1.3777,0.0,1.8166,1.7193,2.0352,2.16,2.0616,2.0692,2.155,2.319,2.3535,2.452,2.6081,2.6344,2.6484,2.6538,2.7138,2.7415,2.7483,2.8076,2.7931,2.7387,2.7496,2.7951,2.8604,2.9037,3.0047,3.1179,0.0,0.0,0.0,0.0,0.0,0.7344,0.7108,0.9536,1.1247,1.0865,1.0608,1.0285,0.9821,1.0368,1.0566,1.0058,0.984,0.0,0.0,0.0,0.0,1.107,1.0853,1.0711,1.0717,1.1454,1.2042,0.0,0.0,0.0,0.0,0.0,0.0,0.0,0.0,0.0,1.0653,1.0329,0.0,1.3435,1.3272,1.3191,1.3285,1.444,1.483,1.4802,1.5041,1.6631,1.86,1.86,1.8334,1.8093,1.8503,1.8157,1.7752,1.8426,1.8351,1.8108,1.8365,1.8348,1.8254,1.8254,1.8254,1.827,1.8328,1.7455,1.6591,1.6433,1.5723,1.5148,1.5296,0.0,0.0,0.0,0.0,0.0,0.0,0.0,0.0,0.0,0.0,1.2117,1.1699,1.2444,1.303,1.3224,1.3357,1.3817,1.4705,0.0,1.6113,0.0,1.8305,1.9889,0.0,2.0969,2.2137,2.5748,2.4355,2.4647,2.6415,2.63,2.6365,2.6568,2.6422,2.6462,2.661,2.6744,2.655,2.6255,2.6924,2.7433,2.7946,2.9261,3.01,3.0523,0.0,0.0,0.0,0.0,0.0,0.0,0.0,0.679,0.8068,0.8951,0.9362,0.9566,0.9597,0.9375,0.9205,0.9162,0.8705,0.8658,0.922,0.8865,0.9024,0.9905,1.0246,1.005,0.9272,1.0288,1.0688,1.0423,0.0,0.0,0.0,0.0,0.0,0.0,0.0,0.779,0.0,0.0,0.0,1.174,1.2266,1.2349,1.2316,1.3658,1.4007,1.3828,1.4251,1.5264,1.6419,1.6419,1.6267,1.6167,1.6599,1.6625,1.6533,1.6774,1.6844,1.6847,1.6887,1.6706,1.6553,1.6758,1.6656,1.6498,1.6498,1.5967,1.5478,1.5478,1.4955,1.4634,1.5055,1.4389,0.0,0.0,0.0,0.0,0.0,0.0,1.1062,0.0,0.0,0.0,0.0,1.273,0.0,0.0,0.0,1.3109,1.3618,0.0,1.5787,0.0,1.8095,1.959,2.149,2.0527,2.158,2.4613,2.3614,2.4039,2.5721,2.5662,2.5695,2.5831,2.5868,2.595,2.6057,2.6146,2.6163,2.615,2.6535,2.7061,2.7703,2.8583,2.9573,3.048,0.0,0.4273,0.0,0.0,0.4545,0.434,0.4419,0.4237,0.4967,0.7417,0.8281,0.8906,0.9492,0.86,0.8086,0.8385,0.7638,0.7492,0.829,0.7787,0.7878,0.878,0.9217,0.8875,0.7635,0.854,0.8691,0.0,0.0,0.0,0.0,0.0,0.0,0.0,0.0,0.0,0.0,0.0,0.9965,1.0477,1.1271,1.1475,1.1421,1.2443,1.2696,1.2603,1.3246,1.3547,1.3631,1.3631,1.3915,1.4335,1.4799,1.5151,1.537,1.5198,1.5427,1.5663,1.5418,1.5088,1.4882,1.521,1.5046,1.4788,1.4788,1.4654,1.4499,1.4499,1.4322,1.4218,1.431,1.402,0.0,0.0,0.0,0.0,0.0,0.0,0.0,0.0,0.0,0.0,1.2299,1.2629,0.0,0.0,0.0,0.0,1.2813,0.0,1.5587,1.6331,1.8035,1.9476,2.0584,2.0135,2.1173,2.3671,2.2963,2.3456,2.5005,2.5097,2.5136,2.5166,2.5579,2.5821,2.5923,2.6075,2.6325,2.6591,2.6609,2.713,2.7891,2.8274,2.9278,3.0596,0.0,0.0,0.0,0.0,0.0,0.2287,0.2821,0.2079,0.236,0.4904,0.5305,0.5368,0.5441,0.5556,0.5483,0.5164,0.5485,0.5454,0.4904,0.5413,0.5699,0.5631,0.6075,0.6226,0.6025,0.6361,0.667,0.0,0.0,0.6525,0.0,0.0,0.0,0.0,0.0,0.0,0.8919,0.9474,1.0106,1.0756,1.0858,1.0699,1.0433,1.0553,1.0474,1.0309,1.0388,1.0726,1.1139,1.1139,1.2305,1.3845,1.425,1.4127,1.3882,1.421,1.4255,1.4197,1.4164,1.399,1.3841,1.389,1.3857,1.3825,1.3825,1.368,1.3522,1.3522,1.3319,1.3265,1.3695,1.2421,1.1172,0.0,0.0,0.0,0.0,0.0,1.0238,0.9744,0.0,0.0,1.0809,1.1004,0.0,0.0,1.1405,0.0,0.0,1.3887,1.4363,1.5817,1.6926,1.8688,2.1183,2.0338,2.1917,2.5866,2.3724,2.3497,2.5005,2.5207,2.5285,2.5314,2.5763,2.6208,2.6607,2.6632,2.6994,2.7575,2.7645,2.8084,2.8765,2.9466,3.0047,3.0605,0.0,0.0,0.0,0.0,0.0,0.0,0.0,0.1609,0.1888,0.2901,0.304,0.3245,0.3762,0.3699,0.3655,0.3729,0.3935,0.409,0.4151,0.4591,0.4798,0.472,0.5125,0.5136,0.4671,0.544,0.5856,0.0,0.0,0.0,0.0,0.0,0.0,0.0,0.0,0.7031,0.7419,0.805,0.8675,0.9262,0.9592,0.9831,1.0021,1.0227,1.0259,1.0164,1.0037,1.0132,1.0313,1.0313,1.1266,1.2475,1.2632,1.2742,1.2845,1.3012,1.3226,1.3449,1.3695,1.3524,1.3338,1.3582,1.3468,1.3281,1.3281,1.3214,1.3162,1.3162,1.307,1.3054,1.3243,1.2686,1.1956,1.1216,0.0,0.0,0.0,0.0,0.0,1.1094,0.0,1.1129,1.2722,1.1829,1.1308,0.0,0.0,0.0,0.0,1.4116,1.5508,1.7548,1.7958,2.0004,2.3901,2.1814,2.2576,2.6188,2.4684,2.4393,2.5172,2.5307,2.5394,2.5486,2.5675,2.5936,2.6234,2.64,2.6941,2.7728,2.7903,2.8722,2.9858,3.0156,3.0685,3.1323,0.0349,0.0,0.0381,0.0,0.0701,0.0843,0.0606,0.0821,0.0961,0.0813,0.0763,0.1242,0.2571,0.2466,0.2357,0.2504,0.2599,0.274,0.2924,0.3337,0.3531,0.3436,0.3832,0.0,0.3294,0.4147,0.4522,0.439,0.458,0.0,0.0,0.0,0.0,0.0,0.6484,0.6766,0.6749,0.726,0.7647,0.7944,0.8323,0.8656,0.8978,0.9212,0.9302,0.9276,0.9132,0.9292,0.956,0.956,1.0259,1.1123,1.1123,1.1358,1.1623,1.1623,1.1857,1.2174,1.2459,1.2445,1.2429,1.2712,1.2679,1.2589,1.2589,1.2589,1.2589,1.2589,1.2589,1.2589,1.2589,1.2589,1.2297,1.1385,0.0,0.0,0.0,1.0178,0.0,1.1737,1.0919,1.1101,1.3226,1.2212,0.0,0.0,0.0,0.0,0.0,1.4152,1.5719,1.7848,1.7429,1.938,2.3983,2.1687,2.2294,2.5843,2.5165,2.4934,2.5162,2.5311,2.547,2.5597,2.5597,2.5722,2.5954,2.6235,2.7075,2.8164,2.8212,2.9326,3.0875,3.0642,3.1082,3.18,-0.1839,-0.1006,-0.0196,-0.0182,-0.007,-0.0139,-0.0603,-0.0782,-0.1038,-0.1495,-0.167,-0.0838,0.1552,0.1804,0.1623,0.1164,0.1427,0.1286,0.0491,0.1189,0.1483,0.0,0.0,0.1834,0.1834,0.2099,0.2237,0.2237,0.0,0.0,0.2175,0.3959,0.5393,0.6532,0.7537,0.7874,0.7681,0.7686,0.75,0.722,0.7216,0.7113,0.6941,0.6941,0.6941,0.6941,0.6941,0.7626,0.8522,0.8522,0.9192,1.0015,1.0015,1.0015,1.0031,1.0031,1.0031,1.0037,1.0037,1.043,1.0839,1.0823,1.1232,1.1622,1.1622,1.1622,1.1622,1.1622,1.1622,1.1622,1.1622,1.1622,1.1287,1.0277,0.0,0.0,0.0,1.0308,0.0,1.0811,1.0449,1.0452,1.1077,1.1484,0.0,0.0,0.0,0.0,0.0,1.3765,1.4154,1.5792,1.4353,1.5655,2.0034,1.9115,2.0777,2.5017,2.4936,2.4869,2.4825,2.5224,2.547,2.5597,2.5597,2.5759,2.6019,2.6367,2.7597,2.9239,2.8695,2.9885,3.1781,3.1,3.1171,3.18,-0.2192,-0.2162,-0.2023,-0.1519,-0.1472,-0.1489,-0.1461,-0.1487,-0.1561,-0.1723,-0.1778,-0.151,-0.074,-0.0656,-0.0713,0.0,-0.0615,-0.0463,0.0,-0.0082,0.0041,-0.0251,0.0055,0.004,-0.0377,0.0558,0.0991,0.091,0.0,0.0,0.2243,0.2735,0.3472,0.4418,0.5152,0.5497,0.5553,0.6054,0.6338,0.6457,0.6457,0.6634,0.6892,0.6892,0.6892,0.6892,0.6892,0.712,0.7414,0.7414,0.7561,0.7767,0.7859,0.886,0.9999,0.9999,0.9999,0.9999,0.9999,1.0117,1.025,1.025,1.0652,1.1052,1.1052,1.1411,1.1761,1.185,1.1802,1.1712,1.162,1.1591,1.1309,1.0378,1.1431,0.0,1.1131,0.0,1.1808,1.1828,1.0697,1.07,1.2677,1.2282,0.0,0.0,0.0,0.0,1.431,1.547,1.7132,1.9336,1.8887,2.0184,2.3435,2.1408,2.2004,2.521,2.4714,2.4715,2.5152,2.5429,2.5574,2.567,2.567,2.5779,2.5954,2.6181,2.7234,2.8651,2.8296,2.9221,3.0667,3.0083,3.0024,3.0231,-0.3135,-0.307,-0.2918,-0.236,-0.2336,-0.2388,-0.2401,-0.2437,-0.2488,-0.254,-0.2591,-0.2585,-0.249,-0.2476,0.0,-0.1846,-0.1645,-0.146,-0.1253,-0.1081,-0.1065,-0.1226,-0.108,-0.1225,-0.1723,-0.0956,0.0,-0.0745,0.0269,0.109,0.1745,0.1932,0.2429,0.3166,0.3662,0.3961,0.4126,0.4581,0.4922,0.5182,0.5405,0.5703,0.6015,0.6248,0.6338,0.6338,0.6338,0.6453,0.6601,0.6601,0.6683,0.6786,0.6875,0.7795,0.8876,0.908,0.9278,0.9444,0.9444,0.9582,0.9735,0.9735,1.0123,1.0557,1.0753,1.1126,1.1507,1.1789,1.178,1.1706,1.1612,1.1591,1.1413,1.0869,1.1881,1.2619,1.2238,1.2002,1.2026,1.247,1.1112,1.1127,1.3643,1.331,1.3389,0.0,0.0,0.0,1.5107,1.609,1.7487,1.9312,1.9332,2.0495,2.2974,2.1533,2.2049,2.4542,2.4528,2.4805,2.5346,2.56,2.5749,2.5782,2.5782,2.5809,2.5925,2.6136,2.7002,2.8141,2.7801,2.863,2.9933,2.9343,2.9282,2.9498,-0.4511,-0.3809,-0.3199,-0.2897,-0.2846,-0.3,-0.343,-0.3618,-0.3764,-0.3886,-0.4064,-0.4059,-0.3763,-0.3716,-0.3241,-0.2089,0.0,0.0,-0.1942,-0.1939,-0.1912,-0.1874,-0.1888,-0.2014,-0.2277,-0.2313,-0.2391,-0.2504,-0.1442,-0.0369,0.069,0.1393,0.2005,0.256,0.2929,0.316,0.33,0.3345,0.3427,0.3581,0.415,0.4369,0.4432,0.4996,0.5213,0.5213,0.5229,0.5522,0.5876,0.5909,0.6257,0.6706,0.6706,0.6768,0.6945,0.7482,0.8025,0.8447,0.8447,0.8829,0.9242,0.9242,0.9598,1.0107,1.0654,1.0803,1.0961,1.1464,1.1597,1.1605,1.1599,1.1591,1.1591,1.1591,1.1996,1.2428,1.2789,1.1962,1.166,1.2595,1.158,1.1688,1.389,1.4379,1.4672,1.501,0.0,0.0,1.6521,1.5986,1.6023,1.6827,1.6849,1.777,1.9682,2.0113,2.1348,2.3374,2.439,2.5036,2.5359,2.5687,2.5851,2.5844,2.5862,2.5872,2.5899,2.6171,2.6862,2.7706,2.723,2.8069,2.9461,2.8683,2.8815,2.9351,0.0,0.0,-0.4996,-0.4473,-0.4375,-0.4388,-0.4388,-0.4679,-0.4906,-0.4936,-0.5468,-0.5654,-0.518,-0.49,-0.4501,-0.3911,-0.3345,-0.3112,-0.3317,-0.3273,-0.3063,-0.2651,-0.2738,-0.2567,-0.2079,-0.242,-0.2572,-0.2497,-0.2231,-0.1549,-0.049,-0.0208,0.0282,0.0968,0.1671,0.2058,0.2216,0.2778,0.2983,0.2931,0.3061,0.3122,0.314,0.3286,0.3342,0.3357,0.3573,0.3651,0.37,0.3947,0.4325,0.4698,0.4807,0.5436,0.6264,0.69,0.7477,0.7894,0.7894,0.8284,0.8689,0.8689,0.9081,0.9653,1.0393,1.0768,1.1035,1.1319,1.1571,1.1725,1.162,1.1591,1.1591,1.1591,1.1996,1.2047,1.1341,1.1358,1.1255,1.0753,1.137,1.2214,1.3186,1.435,1.512,1.5358,0.0,1.631,1.7362,1.7934,1.8843,2.0197,2.0343,2.0851,2.177,2.2292,2.3027,2.3997,2.4457,2.4705,2.4801,2.5078,2.5249,2.5311,2.5558,2.5698,2.5756,2.5983,2.6539,2.7201,2.6693,2.7206,2.8177,2.7635,2.7627,2.7904,-0.5497,-0.5668,-0.5769,-0.5379,-0.5265,-0.5193,-0.5128,-0.5303,-0.5381,-0.523,-0.561,-0.5743,-0.5331,-0.5361,-0.5228,-0.4722,-0.4008,-0.367,-0.3876,-0.3861,-0.3703,-0.3419,-0.3477,-0.3499,-0.3457,-0.3709,-0.3582,-0.3049,-0.2642,-0.1947,-0.0992,-0.0827,-0.0597,-0.031,0.0224,0.0493,0.0604,0.1226,0.1517,0.1603,0.2091,0.229,0.2321,0.2601,0.2695,0.2722,0.287,0.2874,0.286,0.3162,0.3413,0.3673,0.4186,0.4765,0.5381,0.6023,0.6753,0.733,0.733,0.7538,0.7819,0.8073,0.8603,0.9228,0.9819,1.0084,1.0312,1.0636,1.1047,1.1319,1.1244,1.1435,1.1591,1.1591,1.1428,1.1165,1.0798,1.0576,1.0602,1.0994,1.1696,1.2645,1.3886,1.4739,1.5476,1.6137,1.6063,1.6543,1.7815,1.8199,1.9215,2.1063,2.136,2.1662,2.199,2.254,2.315,2.3839,2.4199,2.4477,2.4695,2.4964,2.5101,2.5169,2.5567,2.5726,2.5728,2.6019,2.6385,2.6771,2.6523,2.679,2.7284,2.7183,2.7208,2.728,-0.6032,-0.5991,-0.5937,-0.5822,-0.5668,-0.5595,-0.5727,-0.5809,-0.5791,-0.5627,-0.5719,-0.5688,-0.5377,-0.5752,-0.5761,-0.5101,-0.4436,-0.4096,-0.4181,-0.4205,-0.4164,-0.4052,-0.4051,-0.4327,-0.4881,-0.5074,-0.4754,-0.3961,-0.3138,-0.227,-0.1382,-0.1072,-0.0996,-0.1091,-0.0897,-0.0808,-0.0788,-0.0352,-0.0045,0.0254,0.1159,0.1532,0.158,0.2103,0.2294,0.2304,0.2343,0.2337,0.2368,0.264,0.2801,0.3007,0.3817,0.416,0.4382,0.4899,0.5756,0.6575,0.6736,0.6924,0.7174,0.7629,0.8295,0.8899,0.9193,0.9322,0.9482,0.9847,1.0345,1.0744,1.0785,1.1169,1.1454,1.1363,1.0646,1.0216,1.0511,0.9981,1.025,1.2078,1.2392,1.3163,1.4911,1.5089,1.5618,1.686,1.6173,1.6422,1.8093,1.7968,1.8709,2.0583,2.1068,2.1361,2.1556,2.2006,2.264,2.3439,2.3853,2.4277,2.4715,2.4958,2.5066,2.5095,2.5539,2.5689,2.5645,2.6039,2.6243,2.6331,2.6452,2.6564,2.6674,2.6972,2.7061,2.7053,-0.6032,-0.5914,-0.5822,-0.5809,-0.5548,-0.5595,-0.6331,-0.6777,-0.7235,-0.7817,-0.801,-0.7893,-0.7406,-0.7184,-0.6691,-0.5739,-0.54,-0.5171,-0.5027,-0.5115,-0.4906,-0.4278,-0.4314,-0.4075,-0.3522,-0.4454,-0.5012,-0.5132,-0.4549,-0.373,-0.2695,-0.1917,-0.1214,-0.0605,-0.0462,-0.0397,-0.0379,-0.0139,0.0,0.0048,0.0219,0.028,0.0295,0.0388,0.0419,0.045,0.068,0.0679,0.0632,0.0956,0.1411,0.1863,0.1996,0.2629,0.3339,0.3426,0.4131,0.5077,0.5971,0.701,0.7852,0.7938,0.8468,0.8985,0.9033,0.9392,0.9702,0.9604,1.0002,1.046,1.076,1.0863,1.0785,1.0321,1.0165,0.9951,0.9511,1.0481,1.1475,1.2132,1.3351,1.4251,1.4577,1.461,1.5191,1.6631,1.6402,1.6869,1.8441,1.9119,1.9597,1.994,2.0459,2.1214,2.2229,2.2377,2.283,2.3573,2.376,2.3999,2.4302,2.4385,2.4446,2.4467,2.4815,2.5052,2.5227,2.5635,2.5874,2.5981,2.6072,2.6198,2.6383,2.6487,2.6632,2.6766,-0.6105,-0.6064,-0.6,-0.5914,-0.5773,-0.5786,-0.6123,-0.6422,-0.6729,-0.7066,-0.7227,-0.733,-0.7415,-0.7543,-0.7442,-0.7027,-0.7159,-0.691,-0.6068,-0.5327,-0.4761,-0.4423,-0.4436,-0.4372,-0.4172,-0.4713,-0.4989,-0.4971,-0.4434,-0.3917,-0.3418,-0.291,-0.2336,-0.1737,-0.1567,-0.1305,-0.0975,-0.0637,-0.044,-0.0355,-0.0097,0.0,0.0,0.0,0.0,0.0016,0.0137,0.0152,0.0185,0.0818,0.1259,0.1668,0.235,0.2959,0.3409,0.333,0.3874,0.4682,0.5495,0.6424,0.7207,0.7493,0.8079,0.8641,0.8936,0.9199,0.9344,0.9258,0.9664,1.0165,1.0555,1.0823,1.0966,1.0967,1.0476,1.0091,1.0071,1.0943,1.1762,1.2202,1.357,1.45,1.45,1.45,1.4946,1.6034,1.623,1.6712,1.768,1.8709,1.9357,1.9579,2.0535,2.1337,2.1961,2.1921,2.2282,2.3009,2.3224,2.3556,2.3993,2.4198,2.4292,2.4312,2.4679,2.4968,2.5198,2.5633,2.5908,2.6052,2.6105,2.616,2.6276,2.6443,2.6572,2.6657,-0.6109,-0.6078,-0.6046,-0.599,-0.6045,-0.6145,-0.6305,-0.6482,-0.662,-0.6642,-0.6625,-0.6725,-0.7058,-0.7463,-0.7681,-0.7582,-0.8018,-0.7778,-0.6571,-0.5301,-0.4621,-0.4712,-0.4636,-0.4688,-0.4887,-0.5049,-0.4996,-0.4734,-0.426,-0.4004,-0.396,-0.3647,-0.3265,-0.2844,-0.264,-0.2276,-0.1786,-0.1341,-0.1077,-0.091,-0.0409,-0.0182,-0.015,-0.0049,0.0,0.0,0.0,0.0,0.0108,0.0766,0.1185,0.1576,0.2506,0.3057,0.3352,0.3251,0.3755,0.4509,0.5206,0.5897,0.6498,0.6917,0.7521,0.815,0.8694,0.885,0.8904,0.8985,0.936,0.9846,1.0405,1.0728,1.1036,1.1366,1.068,1.026,1.0707,1.1132,1.1713,1.2559,1.3656,1.4372,1.4491,1.45,1.4813,1.554,1.5973,1.6439,1.6969,1.8075,1.8975,1.9605,2.0809,2.1508,2.1604,2.1532,2.1817,2.242,2.2777,2.3212,2.3717,2.4125,2.4292,2.4312,2.4619,2.4918,2.5202,2.5586,2.5881,2.6132,2.615,2.6141,2.6159,2.6381,2.646,2.6486,-0.5905,-0.5736,-0.5698,-0.5884,-0.6165,-0.6722,-0.7777,-0.8203,-0.8448,-0.8573,-0.8111,-0.7597,-0.7152,-0.7139,-0.6931,-0.6385,-0.6595,-0.6509,-0.5901,-0.5246,-0.5003,-0.5326,-0.5033,-0.4765,-0.4546,-0.4972,-0.518,-0.5158,-0.4865,-0.4628,-0.4436,-0.3796,-0.3318,-0.2969,-0.2768,-0.2598,-0.2414,-0.2058,-0.1847,-0.1668,-0.1068,-0.0756,-0.0597,-0.0161,0.0,0.0,0.0,0.0,0.0015,0.0077,0.0549,0.1118,0.1014,0.1639,0.2399,0.2383,0.3133,0.4156,0.5137,0.5897,0.6416,0.6449,0.6957,0.7598,0.8139,0.8409,0.8624,0.8936,0.9177,0.9578,1.0358,1.0428,1.0349,1.0326,1.0196,1.0247,1.0659,1.0788,1.1564,1.3464,1.3792,1.401,1.447,1.45,1.4813,1.554,1.5796,1.6236,1.6958,1.785,1.8952,2.027,2.1154,2.1592,2.1604,2.1712,2.1926,2.2229,2.2814,2.3201,2.345,2.4026,2.4292,2.4292,2.4333,2.4624,2.5111,2.5211,2.5513,2.5934,2.599,2.5981,2.5934,2.6017,2.6037,2.6054,-0.6618,-0.6261,-0.597,-0.5967,-0.6072,-0.6266,-0.6616,-0.6919,-0.7268,-0.7691,-0.7549,-0.7597,-0.8103,-0.8157,-0.8196,-0.8296,-0.8396,-0.7998,-0.6921,-0.6646,-0.6008,-0.4894,-0.4874,-0.4773,-0.4501,-0.5041,-0.5227,-0.5013,-0.4991,-0.4947,-0.487,-0.4528,-0.4055,-0.3498,-0.3418,-0.3049,-0.2485,-0.2362,-0.2158,-0.1906,-0.1675,-0.1502,-0.1363,-0.1191,-0.0878,-0.0563,-0.0552,-0.0322,0.0046,0.0377,0.0765,0.1109,0.116,0.1885,0.2834,0.3376,0.3508,0.3685,0.4639,0.5236,0.5679,0.6005,0.6429,0.6941,0.7565,0.8118,0.8538,0.8673,0.911,0.9664,1.027,1.0444,1.0568,1.0844,1.0959,1.1197,1.1632,1.1713,1.212,1.3188,1.329,1.3496,1.4019,1.4064,1.4294,1.4863,1.5264,1.5748,1.6403,1.7784,1.9032,2.0131,2.061,2.1142,2.171,2.1532,2.1652,2.2091,2.2391,2.2632,2.2788,2.3235,2.3432,2.3454,2.375,2.4105,2.4496,2.4829,2.5143,2.5476,2.5488,2.5617,2.5782,2.5793,2.5954,2.6115,-0.6915,-0.6579,-0.6312,-0.6256,-0.6447,-0.6604,-0.6642,-0.6855,-0.7093,-0.7321,-0.72,-0.7321,-0.7917,-0.7978,-0.8124,-0.8508,-0.8666,-0.8362,-0.7431,-0.7278,-0.6443,-0.4694,-0.4766,-0.4749,-0.4574,-0.5004,-0.513,-0.4894,-0.4987,-0.5042,-0.503,-0.4949,-0.4609,-0.4086,-0.4082,-0.3726,-0.3127,-0.306,-0.2851,-0.2548,-0.2357,-0.2177,-0.2002,-0.1852,-0.1548,-0.118,-0.1183,-0.08,-0.0224,0.0146,0.0636,0.1108,0.1185,0.1875,0.2794,0.3516,0.3445,0.3296,0.4044,0.4492,0.4888,0.5415,0.5729,0.6087,0.683,0.7381,0.7853,0.8264,0.8739,0.9319,1.0011,1.0214,1.049,1.1117,1.1294,1.1529,1.2011,1.2089,1.2251,1.2727,1.2773,1.3047,1.3739,1.3799,1.3989,1.447,1.4922,1.5526,1.6271,1.7809,1.9018,1.9786,2.0194,2.0821,2.1722,2.1423,2.1471,2.1876,2.2149,2.2289,2.2347,2.2734,2.2901,2.2923,2.3399,2.3794,2.4147,2.4609,2.4958,2.5202,2.5202,2.5403,2.571,2.571,2.5917,2.6211,-0.6582,-0.6513,-0.6643,-0.6769,-0.741,-0.8026,-0.8424,-0.8667,-0.8573,-0.7991,-0.7436,-0.6882,-0.6282,-0.6219,-0.6219,-0.6219,-0.6635,-0.6955,-0.7098,-0.6777,-0.6082,-0.4952,-0.4767,-0.4705,-0.4705,-0.4832,-0.4897,-0.4897,-0.4897,-0.4897,-0.4897,-0.4897,-0.4822,-0.4705,-0.4705,-0.4632,-0.4491,-0.4287,-0.4052,-0.3755,-0.3142,-0.2736,-0.2448,-0.1981,-0.1792,-0.1792,-0.1792,-0.1412,-0.0898,-0.0898,-0.0014,0.1057,0.0868,0.1308,0.1967,0.2375,0.2734,0.3077,0.3403,0.3746,0.4128,0.4664,0.4797,0.5027,0.5881,0.6091,0.6457,0.7727,0.7993,0.8374,0.9572,0.9686,0.9908,1.0848,1.0895,1.0996,1.1513,1.1591,1.1763,1.2243,1.229,1.269,1.3694,1.3799,1.3989,1.447,1.4922,1.5671,1.6737,1.7925,1.8829,1.9371,2.0042,2.0785,2.158,2.1459,2.1471,2.1616,2.2149,2.2324,2.2208,2.2675,2.2889,2.2923,2.3388,2.3784,2.4137,2.4599,2.4948,2.5192,2.5192,2.5403,2.5701,2.5701,2.5917,2.6211,-0.7792,-0.7126,-0.6614,-0.6658,-0.7038,-0.7383,-0.7492,-0.7882,-0.8256,-0.8494,-0.8389,-0.8217,-0.8044,-0.8024,-0.7851,-0.7423,-0.7517,-0.7456,-0.7125,-0.6436,-0.5782,-0.5213,-0.4969,-0.4749,-0.456,-0.4684,-0.4757,-0.4757,-0.4757,-0.4757,-0.4757,-0.467,-0.4601,-0.456,-0.456,-0.4532,-0.4491,-0.4436,-0.4228,-0.3882,-0.3283,-0.2881,-0.258,-0.2014,-0.1535,-0.1167,-0.1167,-0.0777,-0.0266,-0.0266,0.0,0.0385,0.07,0.0887,0.1204,0.2313,0.2652,0.2768,0.3353,0.3462,0.3544,0.3992,0.4178,0.4311,0.4575,0.5213,0.5966,0.6726,0.7628,0.8483,0.9184,0.9513,0.986,1.042,1.0665,1.0996,1.1513,1.1591,1.1654,1.1794,1.1809,1.2058,1.269,1.3056,1.345,1.3974,1.4848,1.5661,1.6407,1.7098,1.7861,1.8738,1.9279,1.9811,2.0334,2.1142,2.1652,2.1876,2.1841,2.1864,2.1926,2.1971,2.2041,2.2145,2.2626,2.3054,2.3428,2.3894,2.4287,2.4563,2.4563,2.4775,2.5101,2.533,2.5596,2.5874,-0.8372,-0.7739,-0.7213,-0.6998,-0.716,-0.7388,-0.7555,-0.7802,-0.8176,-0.8731,-0.8587,-0.8442,-0.8442,-0.8442,-0.8296,-0.7925,-0.8111,-0.7997,-0.7375,-0.6891,-0.6295,-0.5532,-0.5344,-0.5042,-0.4587,-0.466,-0.4705,-0.4705,-0.4646,-0.4619,-0.4619,-0.4532,-0.4505,-0.4505,-0.4505,-0.4505,-0.4505,-0.4505,-0.4339,-0.4052,-0.3688,-0.338,-0.307,-0.2458,-0.2014,-0.1651,-0.1358,-0.0897,-0.0421,-0.0378,-0.0196,0.0042,0.0258,0.0303,0.0466,0.1393,0.1678,0.185,0.2649,0.2777,0.2817,0.3349,0.3661,0.3877,0.4044,0.4461,0.5016,0.5771,0.6673,0.7542,0.822,0.8727,0.9309,1.0163,1.0364,1.0724,1.1633,1.1672,1.1591,1.1591,1.1591,1.1778,1.2259,1.2601,1.3173,1.4041,1.5063,1.5876,1.6436,1.68,1.7446,1.8388,1.8981,1.9447,1.9798,2.1015,2.1646,2.1688,2.1921,2.208,2.2166,2.2292,2.2291,2.2176,2.2675,2.2882,2.2912,2.3545,2.3925,2.4114,2.425,2.4492,2.4825,2.5019,2.5368,2.5728,-0.8573,-0.8351,-0.8138,-0.7623,-0.7648,-0.7866,-0.8241,-0.823,-0.8342,-0.8816,-0.8389,-0.8031,-0.7991,-0.7978,-0.7964,-0.7898,-0.8402,-0.8435,-0.7763,-0.7837,-0.7289,-0.5927,-0.5873,-0.5517,-0.477,-0.4729,-0.4701,-0.4688,-0.456,-0.4505,-0.4505,-0.4505,-0.4505,-0.4505,-0.4505,-0.4505,-0.4505,-0.4505,-0.4384,-0.4193,-0.4152,-0.3965,-0.3672,-0.3058,-0.2794,-0.2669,-0.1972,-0.1414,-0.0996,-0.087,-0.0449,-0.0042,-0.0294,-0.0294,-0.0155,0.0058,0.025,0.0612,0.1633,0.1902,0.2076,0.2786,0.3236,0.3604,0.3987,0.3824,0.3886,0.4913,0.5473,0.6069,0.7038,0.7638,0.8457,0.9933,0.9955,1.0277,1.1673,1.1746,1.1649,1.1643,1.1657,1.1829,1.2258,1.248,1.317,1.4516,1.5454,1.6185,1.6648,1.6892,1.7397,1.8228,1.9041,1.9576,1.978,2.1064,2.1509,2.1169,2.2199,2.2698,2.2681,2.3252,2.325,2.2848,2.3283,2.3143,2.2678,2.3451,2.376,2.3797,2.4135,2.4467,2.4751,2.4823,2.5207,2.5701,-0.9349,-0.8774,-0.8196,-0.7866,-0.7928,-0.8084,-0.8268,-0.859,-0.8955,-0.9376,-0.9308,-0.9073,-0.8653,-0.8606,-0.8415,-0.7938,-0.8018,-0.8031,-0.7864,-0.7885,-0.7458,-0.6471,-0.6431,-0.6032,-0.5185,-0.4969,-0.4753,-0.4546,-0.4519,-0.4505,-0.4505,-0.4505,-0.4505,-0.4505,-0.4505,-0.4505,-0.4505,-0.4505,-0.4384,-0.4166,-0.3741,-0.3447,-0.3172,-0.246,-0.1972,-0.1593,-0.1232,-0.0799,-0.0378,-0.0238,-0.0112,-0.0028,-0.0196,-0.0224,-0.0127,0.0233,0.0368,0.0612,0.1633,0.1902,0.2044,0.2618,0.2796,0.2853,0.2995,0.3274,0.3711,0.4368,0.548,0.6527,0.7159,0.7578,0.8129,0.8985,0.9453,0.9974,1.0709,1.154,1.203,1.193,1.2144,1.2273,1.2223,1.3013,1.386,1.4689,1.538,1.598,1.6437,1.6888,1.7403,1.7972,1.927,1.985,1.9649,2.1053,2.1428,2.0747,2.2072,2.2585,2.2407,2.3211,2.3662,2.3778,2.3371,2.328,2.344,2.3463,2.3469,2.3451,2.3882,2.4119,2.4249,2.4946,2.5366,2.5663,-0.9816,-0.932,-0.8841,-0.8572,-0.8289,-0.8195,-0.8454,-0.8506,-0.8741,-0.9331,-0.9409,-0.9358,-0.9196,-0.9184,-0.9079,-0.883,-0.8804,-0.8725,-0.854,-0.8514,-0.8164,-0.7345,-0.7318,-0.6875,-0.5946,-0.5782,-0.5377,-0.4694,-0.4694,-0.4625,-0.4505,-0.4505,-0.4505,-0.4505,-0.4505,-0.4505,-0.4505,-0.4505,-0.4436,-0.4315,-0.4042,-0.3766,-0.3452,-0.2782,-0.2334,-0.1998,-0.1512,-0.098,-0.0491,-0.0196,-0.0056,-0.0028,-0.0238,-0.0252,-0.0169,-0.0029,-0.0044,0.003,0.0717,0.0829,0.0956,0.1817,0.1961,0.2024,0.2537,0.2912,0.3302,0.377,0.4782,0.5736,0.6175,0.6819,0.7542,0.8375,0.8865,0.9568,1.0804,1.1345,1.1788,1.218,1.2383,1.2482,1.2438,1.3294,1.4132,1.4789,1.5294,1.5891,1.6647,1.6775,1.7145,1.7883,1.8864,1.9377,1.9354,2.0778,2.1139,2.0374,2.2023,2.2909,2.312,2.381,2.4267,2.4486,2.3853,2.3501,2.3405,2.3162,2.3057,2.3061,2.3505,2.3765,2.3959,2.4432,2.4844,2.5333,-1.0141,-0.9855,-0.9586,-0.9321,-0.8723,-0.8387,-0.8661,-0.8372,-0.8388,-0.9107,-0.92,-0.9297,-0.9572,-0.9601,-0.966,-0.9786,-0.9799,-0.9623,-0.9224,-0.9185,-0.8804,-0.7998,-0.7945,-0.7532,-0.6696,-0.658,-0.6018,-0.4966,-0.4966,-0.4832,-0.457,-0.457,-0.4546,-0.4505,-0.4505,-0.4505,-0.4505,-0.4505,-0.4505,-0.4505,-0.4505,-0.4339,-0.4021,-0.3494,-0.3158,-0.2894,-0.2223,-0.154,-0.087,-0.0393,-0.0154,-0.0112,-0.0336,-0.0322,-0.0252,-0.0364,-0.0546,-0.0623,-0.026,-0.0299,-0.0194,0.0901,0.1143,0.1353,0.2188,0.2628,0.2966,0.3293,0.4077,0.4775,0.5054,0.587,0.6835,0.7887,0.826,0.9086,1.0927,1.1215,1.1522,1.2332,1.2531,1.2676,1.2813,1.3505,1.4175,1.4754,1.5305,1.5984,1.6795,1.677,1.7072,1.7832,1.8474,1.8881,1.9084,2.0468,2.0842,2.0252,2.1865,2.3065,2.3878,2.4441,2.4873,2.512,2.4514,2.3881,2.3247,2.2987,2.2772,2.2663,2.3072,2.3403,2.3674,2.3867,2.4384,2.5112,-1.0445,-1.0167,-0.9852,-0.9588,-0.9276,-0.897,-0.8739,-0.8642,-0.8752,-0.9148,-0.92,-0.9297,-0.9572,-0.9601,-0.966,-0.9786,-0.9799,-0.9623,-0.9224,-0.9093,-0.8547,-0.7458,-0.7289,-0.7174,-0.7039,-0.6522,-0.5918,-0.525,-0.525,-0.5103,-0.4842,-0.4842,-0.4722,-0.4505,-0.4505,-0.4505,-0.4505,-0.4505,-0.4505,-0.4505,-0.4505,-0.4477,-0.4408,-0.4149,-0.3747,-0.3285,-0.2891,-0.2028,-0.0996,-0.0533,-0.0364,-0.035,-0.0393,-0.0393,-0.0378,-0.0393,-0.0546,-0.0608,-0.0153,-0.0126,-0.0097,0.0467,0.0941,0.131,0.1439,0.2339,0.3157,0.3207,0.4198,0.5037,0.5087,0.5406,0.6046,0.7236,0.7839,0.8569,0.9782,1.1207,1.2134,1.2149,1.272,1.3176,1.3371,1.3798,1.4165,1.4374,1.5714,1.643,1.6227,1.7388,1.796,1.7728,1.8969,1.944,1.9022,2.03,2.0892,2.0795,2.1346,2.2205,2.3338,2.4272,2.5092,2.5738,2.5134,2.4528,2.3947,2.3743,2.3094,2.231,2.2765,2.2979,2.3146,2.4131,2.4993,2.5689,-1.0603,-1.0424,-1.0244,-1.0113,-0.9788,-0.9481,-0.9341,-0.9036,-0.887,-0.9007,-0.9131,-0.9251,-0.937,-0.9511,-0.966,-0.9786,-0.9799,-0.9753,-0.9655,-0.9595,-0.9309,-0.8725,-0.8349,-0.7964,-0.7557,-0.699,-0.6408,-0.5809,-0.5645,-0.5426,-0.513,-0.513,-0.5024,-0.4836,-0.4914,-0.4901,-0.4836,-0.4914,-0.4952,-0.4952,-0.4952,-0.4901,-0.4794,-0.4363,-0.3907,-0.3366,-0.2279,-0.1499,-0.0926,-0.0533,-0.035,-0.0322,-0.0505,-0.0491,-0.0407,-0.0407,-0.0625,-0.085,-0.0754,-0.0941,-0.1026,-0.0519,-0.0218,0.0168,0.1008,0.2083,0.2922,0.2922,0.3635,0.4268,0.4268,0.4726,0.5286,0.5814,0.6859,0.7956,0.8993,1.0286,1.144,1.2283,1.3012,1.3441,1.3495,1.3655,1.392,1.4266,1.4967,1.5668,1.6393,1.6839,1.7376,1.8008,1.841,1.866,1.8727,1.9688,2.0166,2.0199,2.1314,2.2301,2.3164,2.361,2.4381,2.5342,2.4368,2.4189,2.4515,2.3379,2.2818,2.2698,2.2568,2.2768,2.3224,2.4147,2.4694,2.503]},{"header":{"parameterUnit":"m.s-1","parameterCategory":1,"la1":30.6,"la2":28.766,"lo1":-90.7593,"lo2":-88.6598,"dy":0.0162,"dx":0.0183,"nx":116,"ny":114,"refTime":"2023-05-01T00:00:00:Z","depth":0,"parameterNumber":3,"parameterNumberName":"V-component_of_WINDS"},"data":[0.0,0.0,0.0,0.0,0.0,0.0,0.0,0.0,0.0,0.0,0.0,0.0,0.0,0.0,0.0,0.0,0.0,0.0,0.0,0.0,0.0,0.0,0.0,0.0,0.0,0.0,0.0,0.0,0.0,0.0,0.0,0.0,0.0,0.0,0.0,0.0,0.0,0.0,0.0,0.0,0.0,0.0,0.0,0.0,0.0,0.0,0.0,0.0,0.0,0.0,0.0,0.0,0.0,0.0,0.0,0.0,0.0,0.0,0.0,0.0,0.0,0.0,0.0,0.0,0.0,0.0,0.0,0.0,0.0,0.0,0.0,0.0,0.0,0.0,0.0,0.0,0.0,0.0,0.0,0.0,0.0,0.0,0.0,0.0,0.0,0.0,0.0,0.0,0.0,0.0,0.0,0.0,0.0,0.0,0.0,0.0,0.0,0.0,0.0,0.0,0.0,0.0,0.0,0.0,0.0,0.0,0.0,0.0,0.0,0.0,0.0,0.0,0.0,0.0,0.0,0.0,0.0,0.0,0.0,0.0,0.0,0.0,0.0,0.0,0.0,0.0,0.0,0.0,0.0,0.0,0.0,0.0,0.0,0.0,0.0,0.0,0.0,0.0,0.0,0.0,0.0,0.0,0.0,0.0,0.0,0.0,0.0,0.0,0.0,0.0,0.0,0.0,0.0,0.0,0.0,0.0,0.0,0.0,0.0,0.0,0.0,0.0,0.0,0.0,0.0,0.0,0.0,0.0,0.0,0.0,0.0,0.0,0.0,0.0,0.0,0.0,0.0,0.0,0.0,0.0,0.0,0.0,0.0,0.0,0.0,0.0,0.0,0.0,0.0,0.0,0.0,0.0,0.0,0.0,0.0,0.0,0.0,0.0,0.0,0.0,0.0,0.0,0.0,0.0,0.0,0.0,0.0,0.0,0.0,0.0,0.0,0.0,0.0,0.0,0.0,0.0,0.0,0.0,0.0,0.0,0.0,0.0,0.0,0.0,0.0,0.0,0.0,0.0,0.0,0.0,0.0,0.0,0.0,0.0,0.0,0.0,0.0,0.0,0.0,0.0,0.0,0.0,0.0,0.0,0.0,0.0,0.0,0.0,0.0,0.0,0.0,0.0,0.0,0.0,0.0,0.0,0.0,0.0,0.0,0.0,0.0,0.0,0.0,0.0,0.0,0.0,0.0,0.0,0.0,0.0,0.0,0.0,0.0,0.0,0.0,0.0,0.0,0.0,0.0,0.0,0.0,0.0,0.0,0.0,0.0,0.0,0.0,0.0,0.0,0.0,0.0,0.0,0.0,0.0,0.0,0.0,0.0,0.0,0.0,0.0,0.0,0.0,0.0,0.0,0.0,0.0,0.0,0.0,0.0,0.0,0.0,0.0,0.0,0.0,0.0,0.0,0.0,0.0,0.0,0.0,0.0,0.0,0.0,0.0,0.0,0.0,0.0,0.0,0.0,0.0,0.0,0.0,0.0,0.0,0.0,0.0,0.0,0.0,0.0,0.0,0.0,0.0,0.0,0.0,0.0,0.0,0.0,0.0,0.0,0.0,0.0,0.0,0.0,0.0,0.0,0.0,0.0,0.0,0.0,0.0,0.0,0.0,0.0,0.0,0.0,0.0,0.0,0.0,0.0,0.0,0.0,0.0,0.0,0.0,0.0,0.0,0.0,0.0,0.0,0.0,0.0,0.0,0.0,0.0,0.0,0.0,0.0,0.0,0.0,0.0,0.0,0.0,0.0,0.0,0.0,0.0,0.0,0.0,0.0,0.0,0.0,0.0,0.0,0.0,0.0,0.0,0.0,0.0,0.0,0.0,0.0,0.0,0.0,0.0,0.0,0.0,0.0,0.0,0.0,0.0,0.0,0.0,0.0,0.0,0.0,0.0,0.0,0.0,0.0,0.0,0.0,0.0,0.0,0.0,0.0,0.0,0.0,0.0,0.0,0.0,0.0,0.0,0.0,0.0,0.0,0.0,0.0,0.0,0.0,0.0,0.0,0.0,0.0,0.0,0.0,0.0,0.0,0.0,0.0,0.0,0.0,0.0,0.0,0.0,0.0,0.0,0.0,0.0,0.0,0.0,0.0,0.0,0.0,0.0,0.0,0.0,0.0,0.0,0.0,0.0,0.0,0.0,0.0,0.0,0.0,0.0,0.0,0.0,0.0,0.0,0.0,0.0,0.0,0.0,0.0,0.0,0.0,0.0,0.0,0.0,0.0,0.0,0.0,0.0,0.0,0.0,0.0,0.0,0.0,0.0,0.0,0.0,0.0,0.0,0.0,0.0,0.0,0.0,0.0,0.0,0.0,0.0,0.0,0.0,0.0,0.0,0.0,0.0,0.0,0.0,0.0,0.0,0.0,0.0,0.0,0.0,0.0,0.0,0.0,0.0,0.0,0.0,0.0,0.0,0.0,0.0,0.0,0.0,0.0,0.0,0.0,0.0,0.0,0.0,0.0,0.0,0.0,0.0,0.0,0.0,0.0,0.0,0.0,0.0,0.0,0.0,0.0,0.0,0.0,0.0,0.0,0.0,0.0,0.0,0.0,0.0,0.0,0.0,0.0,0.0,0.0,0.0,0.0,0.0,0.0,0.0,0.0,0.0,0.0,0.0,0.0,0.0,0.0,0.0,0.0,0.0,0.0,0.0,0.0,0.0,0.0,0.0,0.0,0.0,0.0,0.0,0.0,0.0,0.0,0.0,0.0,0.0,0.0,0.0,0.0,0.0,0.0,0.0,0.0,0.0,0.0,0.0,0.0,0.0,0.0,0.0,0.0,0.0,0.0,0.0,0.0,0.0,0.0,0.0,0.0,0.0,0.0,0.0,0.0,0.0,0.0,0.0,0.0,0.0,0.0,0.0,0.0,0.0,0.0,0.0,0.0,0.0,0.0,0.0,0.0,0.0,0.0,0.0,0.0,0.0,0.0,0.0,0.0,0.0,0.0,0.0,0.0,0.0,0.0,0.0,0.0,0.0,0.0,0.0,0.0,0.0,0.0,0.0,0.0,0.0,0.0,0.0,0.0,0.0,0.0,0.0,0.0,0.0,0.0,0.0,0.0,0.0,0.0,0.0,0.0,0.0,0.0,0.0,0.0,0.0,0.0,0.0,0.0,0.0,0.0,0.0,0.0,0.0,0.0,0.0,0.0,0.0,0.0,0.0,0.0,0.0,0.0,0.0,0.0,0.0,0.0,0.0,0.0,0.0,0.0,0.0,0.0,0.0,0.0,0.0,0.0,0.0,0.0,0.0,0.0,0.0,0.0,0.0,0.0,0.0,0.0,0.0,0.0,0.0,0.0,0.0,0.0,0.0,0.0,0.0,0.0,0.0,0.0,0.0,0.0,0.0,0.0,0.0,0.0,0.0,0.0,0.0,0.0,0.0,0.0,0.0,0.0,0.0,0.0,0.0,0.0,0.0,0.0,0.0,0.0,0.0,0.0,0.0,0.0,0.0,0.0,0.0,0.0,0.0,0.0,0.0,0.0,0.0,0.0,0.0,0.0,0.0,0.0,0.0,0.0,0.0,0.0,0.0,0.0,0.0,0.0,0.0,0.0,0.0,0.0,0.0,0.0,0.0,0.0,0.0,0.0,0.0,0.0,0.0,0.0,0.0,0.0,0.0,0.0,0.0,0.0,0.0,0.0,0.0,0.0,0.0,0.0,0.0,0.0,0.0,0.0,0.0,0.0,0.0,0.0,0.0,0.0,0.0,0.0,0.0,0.0,0.0,0.0,0.0,0.0,0.0,0.0,0.0,0.0,0.0,0.0,0.0,0.0,0.0,0.0,0.0,0.0,0.0,0.0,0.0,0.0,0.0,0.0,0.0,0.0,0.0,0.0,0.0,0.0,0.0,0.0,0.0,0.0,0.0,0.0,0.0,0.0,0.0,0.0,0.0,0.0,0.0,0.0,0.0,0.0,0.0,0.0,0.0,0.0,0.0,0.0,0.0,0.0,0.0,0.0,0.0,0.0,0.0,0.0,0.0,0.0,0.0,0.0,0.0,0.0,0.0,0.0,0.0,0.0,0.0,0.0,0.0,0.0,0.0,0.0,0.0,0.0,0.0,0.0,0.0,0.0,0.0,0.0,0.0,0.0,0.0,0.0,0.0,0.0,0.0,0.0,0.0,0.0,0.0,0.0,0.0,0.0,0.0,0.0,0.0,0.0,0.0,0.0,0.0,0.0,0.0,0.0,0.0,0.0,0.0,0.0,0.0,0.0,0.0,0.0,0.0,0.0,0.0,0.0,0.0,0.0,0.0,0.0,0.0,0.0,0.0,0.0,0.0,0.0,0.0,0.0,0.0,0.0,0.0,0.0,0.0,0.0,0.0,0.0,0.0,0.0,0.0,0.0,0.0,0.0,0.0,0.0,0.0,0.0,0.0,0.0,0.0,0.0,0.0,0.0,0.0,0.0,0.0,0.0,0.0,0.0,0.0,0.0,0.0,0.0,0.0,0.0,0.0,0.0,0.0,0.0,0.0,0.0,0.0,0.0,0.0,0.0,0.0,0.0,0.0,0.0,0.0,0.0,0.0,0.0,0.0,0.0,0.0,0.0,0.0,0.0,0.0,0.0,0.0,0.0,0.0,0.0,0.0,0.0,0.0,0.0,0.0,0.0,0.0,0.0,0.0,0.0,0.0,0.0,0.0,0.0,0.0,0.0,0.0,0.0,0.0,0.0,0.0,0.0,0.0,0.0,0.0,0.0,0.0,0.0,0.0,0.0,0.0,0.0,0.0,0.0,0.0,0.0,0.0,0.0,0.0,0.0,0.0,0.0,0.0,0.0,0.0,0.0,0.0,0.0,0.0,0.0,0.0,0.0,0.0,0.0,0.0,0.0,0.0,0.0,0.0,0.0,0.0,0.0,0.0,0.0,0.0,0.0,0.0,0.0,0.0,0.0,0.0,0.0,0.0,0.0,0.0,0.0,0.0,0.0,0.0,0.0,0.0,0.0,0.0,0.0,0.0,0.0,0.0,0.0,0.0,0.0,0.0,0.0,0.0,0.0,0.0,0.0,0.0,0.0,0.0,0.0,0.0,0.0,0.0,0.0,0.0,0.0,0.0,0.0,0.0,0.0,0.0,0.0,0.0,0.0,0.0,0.0,0.0,0.0,0.0,0.0,0.0,0.0,0.0,0.0,0.0,0.0,0.0,0.0,0.0,0.0,0.0,0.0,0.0,0.0,0.0,0.0,0.0,0.0,0.0,0.0,0.0,0.0,0.0,0.0,0.0,0.0,0.0,0.0,0.0,0.0,0.0,0.0,0.0,0.0,0.0,0.0,0.0,0.0,0.0,0.0,0.0,0.0,0.0,0.0,0.0,0.0,0.0,0.0,0.0,0.0,0.0,0.0,0.0,0.0,0.0,0.0,0.0,0.0,0.0,0.0,0.0,0.0,0.0,0.0,0.0,0.0,0.0,0.0,0.0,0.0,0.0,0.0,0.0,0.0,0.0,0.0,0.0,0.0,0.0,0.0,0.0,0.0,0.0,0.0,0.0,0.0,0.0,0.0,0.0,0.0,0.0,0.0,0.0,0.0,0.0,0.0,0.0,0.0,0.0,0.0,0.0,0.0,0.0,0.0,0.0,0.0,0.0,0.0,0.0,0.0,0.0,0.0,0.0,0.0,0.0,0.0,0.0,0.0,0.0,0.0,0.0,0.0,0.0,0.0,0.0,0.0,0.0,0.0,0.0,0.0,0.0,0.0,0.0,0.0,0.0,0.0,0.0,0.0,0.0,0.0,0.0,0.0,0.0,0.0,0.0,0.0,0.0,0.0,0.0,0.0,0.0,0.0,0.0,0.0,0.0,0.0,0.0,0.0,0.0,0.0,0.0,0.0,0.0,0.0,0.0,0.0,0.0,0.0,0.0,0.0,0.0,0.0,0.0,0.0,0.0,0.0,0.0,0.0,0.0,0.0,0.0,0.0,0.0,0.0,0.0,0.0,0.0,0.0,0.0,0.0,0.0,0.0,0.0,0.0,0.0,0.0,0.0,0.0,0.0,0.0,0.0,0.0,0.0,0.0,0.0,0.0,0.0,0.0,0.0,0.0,0.0,0.0,0.0,0.0,0.0,0.0,0.0,0.0,0.0,0.0,0.0,0.0,0.0,1.5685,0.0,0.0,0.0,0.0,0.0,0.0,0.0,0.0,0.0,0.0,0.0,0.0,0.0,0.0,0.0,0.0,0.0,0.0,0.0,0.0,0.0,0.0,0.0,0.0,0.0,0.0,0.0,0.0,0.0,0.0,0.0,0.0,0.0,0.0,0.0,0.0,0.0,0.0,0.0,0.0,0.0,0.0,0.0,0.0,0.0,0.0,0.0,0.0,0.0,0.0,0.0,0.0,0.0,0.0,0.0,0.0,0.0,0.0,0.0,0.0,0.0,0.0,0.0,0.0,0.0,0.0,0.0,0.0,0.0,0.0,0.0,0.0,0.0,0.0,0.0,0.0,0.0,0.0,0.0,0.0,0.0,0.0,0.0,0.0,0.0,0.0,0.0,0.0,0.0,0.0,0.0,0.0,0.0,0.0,0.0,0.0,0.0,0.0,0.0,0.0,0.0,0.0,0.0,0.0,0.0,0.0,0.0,0.0,0.0,0.0,0.0,0.0,0.0,0.0,0.0,0.0,1.6261,0.0,0.0,0.0,0.0,0.0,0.0,0.0,0.0,0.0,0.0,0.0,0.0,0.0,0.0,0.0,0.0,0.0,0.0,0.0,0.0,0.0,0.0,0.0,0.0,0.0,0.0,0.0,0.0,0.0,0.0,0.0,0.0,0.0,0.0,0.0,0.0,0.0,0.0,0.0,0.0,0.0,0.0,0.0,0.0,0.0,0.0,0.0,0.0,0.0,0.0,0.0,0.0,0.0,0.0,0.0,0.0,0.0,0.0,0.0,0.0,0.0,0.0,0.0,0.0,0.0,0.0,0.0,0.0,0.0,0.0,0.0,0.0,0.0,0.0,0.0,0.0,0.0,0.0,0.0,0.0,0.0,0.0,0.0,0.0,0.0,0.0,0.0,0.0,0.0,0.0,0.0,0.0,0.0,0.0,0.0,0.0,0.0,0.0,0.0,0.0,0.0,0.0,0.0,0.0,0.0,0.0,0.0,0.0,1.9585,2.0309,2.0616,2.1077,2.1375,2.147,2.0232,1.9332,1.863,1.7142,0.0,0.0,0.0,0.0,0.0,0.0,0.0,0.0,0.0,0.0,0.0,0.0,0.0,0.0,0.0,0.0,0.0,0.0,0.0,0.0,0.0,0.0,0.0,0.0,0.0,0.0,0.0,0.0,0.0,0.0,0.0,0.0,0.0,0.0,0.0,0.0,0.0,0.0,0.0,0.0,0.0,0.0,0.0,0.0,0.0,0.0,0.0,0.0,0.0,0.0,0.0,0.0,0.0,0.0,0.0,0.0,0.0,0.0,0.0,0.0,0.0,0.0,0.0,0.0,0.0,0.0,0.0,0.0,0.0,0.0,0.0,0.0,0.0,0.0,0.0,0.0,0.0,0.0,0.0,0.0,0.0,0.0,0.0,0.0,0.0,0.0,1.5188,1.5097,0.0,0.0,0.0,0.0,0.0,0.0,0.0,0.0,0.0,0.0,0.0,0.0,0.0,1.8577,1.8537,2.0203,2.1761,2.3191,2.419,2.5608,2.7406,2.7474,2.7717,2.7933,2.5771,0.0,2.0071,1.9327,0.0,0.0,0.0,0.0,0.0,0.0,0.0,0.0,0.0,0.0,0.0,0.0,0.0,0.0,0.0,0.0,0.0,0.0,0.0,0.0,0.0,0.0,0.0,0.0,0.0,0.0,0.0,0.0,0.0,0.0,0.0,0.0,0.0,0.0,0.0,0.0,0.0,0.0,0.0,0.0,0.0,0.0,0.0,0.0,0.0,0.0,0.0,0.0,0.0,0.0,0.0,0.0,0.0,0.0,0.0,0.0,0.0,0.0,0.0,0.0,0.0,0.0,0.0,0.0,0.0,0.0,0.0,0.0,0.0,0.0,0.0,0.0,0.0,0.0,0.0,0.0,0.0,0.0,0.0,0.0,0.0,0.0,0.0,0.0,0.0,1.4428,1.4926,1.4926,1.544,1.5131,0.0,0.0,0.0,0.0,0.0,0.0,0.0,0.0,0.0,1.9699,2.1043,2.1773,2.1838,2.4035,2.5396,2.5907,2.7004,2.8026,2.8938,2.9463,2.9807,2.9927,2.8927,2.7347,2.5255,2.2617,2.1047,2.0217,0.0,0.0,0.0,0.0,1.6792,1.738,0.0,0.0,0.0,0.0,0.0,0.0,0.0,0.0,0.0,0.0,0.0,0.0,0.0,0.0,0.0,1.7658,0.0,0.0,0.0,0.0,0.0,0.0,0.0,0.0,0.0,0.0,0.0,0.0,0.0,0.0,0.0,0.0,0.0,0.0,0.0,0.0,0.0,0.0,0.0,0.0,0.0,0.0,0.0,0.0,0.0,0.0,0.0,0.0,0.0,0.0,0.0,0.0,0.0,0.0,0.0,0.0,0.0,0.0,0.0,0.0,0.0,0.0,0.0,0.0,0.0,0.0,0.0,0.0,0.0,0.0,0.0,0.0,0.0,0.0,0.0,0.0,0.0,1.4778,1.5377,1.5323,1.6167,1.6207,0.0,0.0,0.0,0.0,0.0,0.0,1.9612,1.9597,2.0472,2.2601,2.4173,2.5021,2.5133,2.7309,2.8317,2.8134,2.9033,2.9579,2.9828,3.0548,3.1007,3.1245,3.0947,3.0487,2.9628,2.5823,2.3569,2.2469,2.1857,2.0824,1.9657,1.9584,1.9748,2.0156,0.0,0.0,0.0,0.0,0.0,0.0,0.0,0.0,0.0,0.0,0.0,0.0,0.0,0.0,1.9742,1.9751,1.9415,1.8696,0.0,0.0,0.0,0.0,0.0,0.0,0.0,0.0,0.0,0.0,0.0,0.0,0.0,0.0,0.0,0.0,0.0,0.0,0.0,0.0,0.0,0.0,0.0,0.0,0.0,0.0,0.0,0.0,0.0,0.0,0.0,0.0,0.0,0.0,0.0,0.0,0.0,0.0,0.0,0.0,0.0,0.0,0.0,0.0,0.0,0.0,0.0,0.0,0.0,0.0,0.0,0.0,0.0,0.0,0.0,0.0,0.0,0.0,0.0,0.0,0.0,1.6714,1.956,0.0,0.0,0.0,0.0,1.899,1.875,2.0101,2.3447,2.307,2.4204,2.7353,2.8098,2.845,2.845,2.915,2.9794,3.0341,3.0397,3.0898,3.1758,3.1803,3.2389,3.328,3.2015,3.1419,3.1185,2.8488,2.6886,2.5908,2.3609,2.267,2.2536,2.2023,2.2714,2.4106,0.0,0.0,0.0,0.0,0.0,0.0,0.0,0.0,0.0,0.0,0.0,0.0,0.0,2.0022,2.2287,2.3239,2.3519,2.2781,2.0701,0.0,0.0,0.0,0.0,0.0,0.0,0.0,0.0,0.0,0.0,0.0,0.0,0.0,0.0,0.0,0.0,0.0,0.0,0.0,0.0,0.0,0.0,0.0,0.0,0.0,0.0,0.0,0.0,0.0,0.0,0.0,0.0,0.0,0.0,0.0,0.0,0.0,0.0,0.0,0.0,0.0,0.0,0.0,0.0,0.0,0.0,0.0,0.0,0.0,0.0,0.0,0.0,0.0,0.0,0.0,0.0,0.0,0.0,0.0,0.0,1.7711,1.9975,0.0,1.969,2.0905,2.1796,2.1836,2.2991,2.4847,2.7497,2.7429,2.837,3.069,3.0389,3.037,3.0768,3.0594,3.0605,3.0818,3.0818,3.1194,3.1909,3.2179,3.2733,3.3503,3.3412,3.3151,3.2687,3.1319,2.957,2.767,2.6806,2.6399,2.6246,2.6063,2.6398,2.7087,0.0,0.0,0.0,0.0,0.0,0.0,0.0,0.0,0.0,0.0,0.0,1.7371,1.9466,2.2316,2.456,2.5714,2.6091,2.4952,2.1831,0.0,0.0,0.0,0.0,0.0,0.0,0.0,0.0,0.0,0.0,0.0,0.0,0.0,0.0,0.0,0.0,0.0,0.0,0.0,0.0,0.0,0.0,0.0,2.1574,0.0,0.0,0.0,0.0,0.0,0.0,0.0,0.0,0.0,0.0,0.0,0.0,0.0,0.0,0.0,0.0,0.0,0.0,0.0,0.0,0.0,0.0,0.0,0.0,0.0,0.0,0.0,0.0,0.0,0.0,0.0,0.0,0.0,0.0,0.0,1.8633,1.9386,2.1277,2.2457,2.2278,2.3453,2.4544,2.5361,2.6809,2.8481,3.0377,3.0279,3.0878,3.2388,3.1602,3.1355,3.1755,3.1167,3.0866,3.0866,3.0866,3.115,3.172,3.2022,3.2215,3.232,3.3086,3.2914,3.2069,3.1915,3.0812,2.9189,2.8958,2.867,2.8397,2.8598,2.8757,2.8958,0.0,0.0,0.0,0.0,0.0,0.0,0.0,0.0,0.0,0.0,1.7008,1.9176,2.2601,2.4876,2.6394,2.699,2.6635,2.471,2.08,1.8714,0.0,0.0,0.0,0.0,2.5083,0.0,0.0,0.0,0.0,0.0,0.0,0.0,0.0,0.0,0.0,0.0,0.0,0.0,0.0,0.0,0.0,0.0,2.5,0.0,0.0,0.0,0.0,0.0,0.0,0.0,0.0,0.0,0.0,0.0,0.0,0.0,0.0,0.0,0.0,0.0,0.0,0.0,0.0,0.0,0.0,0.0,0.0,0.0,0.0,0.0,0.0,0.0,0.0,0.0,0.0,0.0,1.5496,1.87,2.1233,2.1823,2.3728,2.5368,2.6261,2.7055,2.8106,2.954,2.9959,3.0701,3.1988,3.143,3.1487,3.2408,3.1814,3.1466,3.1422,3.0916,3.0641,3.0598,3.0627,3.0869,3.1305,3.1461,3.096,3.0046,3.1094,3.0706,2.9474,3.0319,3.0656,3.0569,2.9885,2.9261,2.8825,2.9421,2.9639,2.974,0.0,0.0,0.0,0.0,0.0,0.0,0.0,0.0,0.0,0.0,1.5728,1.8783,2.1664,2.4064,2.6168,2.7869,2.6535,2.4506,2.19,0.0,0.0,0.0,0.0,0.0,2.7547,3.0561,0.0,0.0,0.0,0.0,0.0,0.0,0.0,0.0,0.0,0.0,0.0,0.0,0.0,0.0,0.0,0.0,2.6553,0.0,0.0,0.0,0.0,0.0,0.0,0.0,0.0,0.0,0.0,0.0,0.0,0.0,0.0,0.0,0.0,0.0,0.0,0.0,0.0,0.0,0.0,0.0,0.0,0.0,0.0,0.0,0.0,0.0,0.0,0.0,0.0,1.8861,1.8428,2.0314,2.2254,2.3664,2.608,2.7515,2.7139,2.901,3.0375,3.0739,3.1123,3.1846,3.3008,3.1418,3.058,3.0829,3.1131,3.0844,2.9907,3.1273,3.1511,3.0612,3.1032,3.1321,3.1447,3.2002,3.2056,3.1801,3.2101,3.1985,3.1634,3.1886,3.1684,3.1192,3.0583,3.022,3.0104,3.0263,3.0597,3.0814,0.0,0.0,0.0,0.0,0.0,0.0,0.0,0.0,0.0,0.0,1.5874,1.8753,2.1774,2.3958,2.5816,2.7356,2.6128,2.3845,2.0527,0.0,0.0,0.0,0.0,2.6587,3.066,3.301,3.4825,0.0,0.0,0.0,0.0,0.0,0.0,0.0,0.0,0.0,0.0,0.0,0.0,0.0,0.0,0.0,2.9354,2.8297,2.6111,2.3509,2.2784,2.2186,2.1466,1.9847,0.0,0.0,0.0,0.0,0.0,0.0,0.0,0.0,0.0,0.0,0.0,0.0,0.0,0.0,0.0,0.0,0.0,0.0,0.0,0.0,0.0,0.0,0.0,0.0,1.9403,2.1822,2.2471,2.3227,2.4449,2.6379,2.8313,2.9551,2.9656,3.1297,3.2433,3.2644,3.2869,3.339,3.4261,3.3066,3.1724,3.0293,3.1737,3.1493,2.933,3.143,3.2266,3.1818,3.218,3.2421,3.2601,3.2829,3.2373,3.1434,3.1881,3.1564,3.0793,3.1436,3.1467,0.0,0.0,0.0,0.0,0.0,3.0815,3.0974,0.0,0.0,0.0,0.0,0.0,0.0,0.0,0.0,0.0,0.0,0.0,1.8866,2.228,2.4106,2.535,2.6034,2.5258,2.2767,0.0,0.0,0.0,2.3905,2.5962,2.9137,3.3795,3.4747,3.6054,3.7791,0.0,0.0,0.0,0.0,0.0,0.0,0.0,0.0,0.0,0.0,0.0,0.0,0.0,0.0,3.2676,3.062,2.8733,2.6981,2.5464,2.4134,2.3049,2.248,0.0,0.0,0.0,0.0,0.0,0.0,0.0,0.0,0.0,0.0,0.0,0.0,0.0,0.0,0.0,0.0,0.0,0.0,0.0,0.0,0.0,0.0,0.0,0.0,2.1737,2.4405,2.6578,2.6736,2.7338,2.9218,3.0172,3.1206,3.2582,3.3411,3.4087,3.4641,3.4664,3.4845,3.5261,0.0,0.0,0.0,0.0,3.263,2.9432,3.1589,3.2904,3.3285,3.3431,3.3622,3.3799,3.3506,3.2176,3.0135,3.1007,3.0316,2.867,3.0044,3.0598,3.0656,3.1192,3.1061,3.0583,3.035,3.0408,3.0569,0.0,0.0,0.0,0.0,0.0,0.0,0.0,0.0,0.0,1.3653,1.596,1.8548,2.1446,2.3324,2.4693,2.5402,2.3228,2.0919,0.0,0.0,1.9847,2.559,2.8328,3.1429,3.5074,3.6353,3.7448,3.834,3.8928,0.0,0.0,0.0,0.0,0.0,0.0,0.0,0.0,0.0,0.0,0.0,0.0,0.0,3.4656,3.3583,3.1687,2.9431,2.8008,2.7787,2.7837,2.5507,2.4984,2.4888,2.2551,0.0,0.0,0.0,0.0,0.0,0.0,0.0,0.0,0.0,0.0,0.0,0.0,0.0,0.0,0.0,0.0,0.0,0.0,0.0,0.0,2.154,2.4644,2.7062,2.733,2.8866,2.9905,2.9751,3.0581,3.1417,3.2092,3.3448,3.4328,3.4445,3.4465,3.4506,3.4588,3.2957,3.146,3.0249,3.1733,3.1733,3.0048,3.2688,3.3309,3.1887,0.0,0.0,3.2028,3.2481,3.2146,3.1169,3.09,3.0539,3.0175,3.0466,3.0598,3.0612,3.0728,3.0699,3.0408,2.884,2.9247,3.0379,0.0,0.0,0.0,0.0,0.0,0.0,0.0,0.0,0.0,0.0,1.4454,1.6663,1.9173,1.9983,2.0948,2.2427,2.024,0.0,0.0,2.0776,2.3509,2.9113,3.1378,3.3763,3.6446,3.7153,3.8,3.8999,3.9166,3.9639,0.0,0.0,0.0,0.0,0.0,0.0,0.0,0.0,0.0,0.0,0.0,0.0,3.7005,3.5747,3.3841,3.1681,3.0341,2.9698,2.9212,2.7407,2.6879,2.6699,2.5263,2.3545,2.1494,0.0,0.0,0.0,0.0,0.0,0.0,0.0,0.0,0.0,0.0,0.0,0.0,0.0,0.0,1.8674,0.0,0.0,2.2436,2.4051,2.5965,2.7921,2.9834,3.0796,3.1142,3.065,3.1866,3.2919,3.3314,3.464,3.5348,3.503,3.5001,3.4981,3.4895,3.3878,3.2362,3.0307,3.2535,3.2621,3.0264,3.3008,3.408,3.3472,3.4143,3.4114,3.3443,3.3153,3.2817,3.2425,3.1149,3.0771,3.1048,3.1043,3.1397,3.19,3.19,3.1723,3.1337,3.0352,3.0984,3.208,0.0,0.0,0.0,0.0,0.0,0.0,0.0,0.0,0.0,0.0,0.0,1.4464,1.659,1.6516,1.6922,0.0,0.0,0.0,0.0,2.3537,2.7036,3.2367,3.4182,3.5907,3.7661,3.7831,3.8476,3.9691,3.942,3.9929,4.114,0.0,0.0,0.0,0.0,0.0,0.0,0.0,0.0,0.0,0.0,0.0,3.8701,3.715,3.5381,3.354,3.1884,3.0559,2.9425,2.8439,2.7821,2.7427,2.7305,2.5709,2.3381,2.0772,1.9034,0.0,0.0,0.0,0.0,0.0,0.0,0.0,0.0,0.0,1.8408,1.9349,2.0344,2.1226,2.185,2.2714,2.4148,2.6609,2.7313,2.87,3.2046,3.2069,3.1751,3.1764,3.3095,3.4115,3.4432,3.5577,3.6041,3.5353,3.5528,3.556,3.5288,3.5357,3.4057,3.1129,3.375,3.3868,3.1118,3.3285,3.4603,3.5029,3.516,3.5145,3.5,3.3968,3.3431,3.3213,3.1505,3.1129,3.166,3.1544,3.2096,3.3026,3.2912,3.2773,3.2645,3.2647,3.3216,3.3878,0.0,0.0,0.0,0.0,0.0,0.0,0.0,0.0,0.0,0.0,0.0,0.0,0.0,0.0,0.0,0.0,0.0,0.0,2.0559,2.4461,2.8653,3.3091,3.5784,3.7554,3.8368,3.8968,3.9645,4.0382,4.0356,4.0422,4.0593,0.0,0.0,0.0,0.0,0.0,0.0,0.0,0.0,0.0,0.0,0.0,3.8295,3.7445,3.6228,3.4608,3.1673,3.0431,2.9957,2.8375,2.8229,2.86,2.8064,2.7519,2.6443,2.3124,0.0,1.8696,1.4757,1.2413,1.1579,1.361,1.4897,1.6067,0.0,0.0,2.2376,2.1631,2.3616,2.5623,2.6059,2.7226,2.8449,2.9429,3.0295,3.1086,3.172,3.1899,3.2214,3.2914,3.3182,3.341,3.3614,3.4633,3.499,3.4323,3.5318,3.5636,3.4917,3.5218,3.4868,3.3722,3.4225,3.4339,3.3943,3.4252,3.4167,3.3721,3.4271,3.4225,3.3707,3.3561,3.3182,3.2558,3.1753,3.174,3.2253,3.1725,3.1896,3.2436,3.19,3.2592,3.3884,3.3827,3.3894,3.3984,0.0,0.0,0.0,0.0,0.0,0.0,0.0,0.0,0.0,0.0,0.0,0.0,0.0,0.0,0.0,0.0,0.0,0.0,1.9772,2.4405,2.89,3.3215,3.566,3.723,3.7908,3.8568,3.9245,3.9922,4.011,4.0463,4.097,4.0782,0.0,0.0,0.0,0.0,0.0,0.0,0.0,0.0,0.0,0.0,3.8366,3.7541,3.567,3.3055,2.9584,2.7858,0.0,0.0,2.5849,2.6326,2.7598,2.6297,2.4047,2.2856,2.0202,0.0,1.5421,1.532,1.6009,0.0,1.8885,2.0691,2.1905,2.3621,2.4964,2.4859,2.6678,2.8231,2.8057,2.8064,2.8587,0.0,2.9661,2.9896,3.2097,3.2177,3.2205,3.2742,3.1359,3.0586,3.1182,3.3221,3.363,3.148,3.3894,3.5161,3.4424,3.4669,3.4656,3.4278,3.4363,3.4397,3.4397,3.4397,3.4283,3.4022,3.4283,3.4283,3.3993,3.3253,3.2353,3.1396,3.1481,3.2019,3.2824,3.2272,3.2781,3.3893,3.3634,3.3986,3.457,3.419,3.4741,3.5525,0.0,0.0,0.0,0.0,0.0,0.0,0.0,0.0,0.0,0.0,0.0,0.0,0.0,0.0,0.0,0.0,0.0,0.0,0.0,2.3779,2.8455,3.2922,3.5121,3.6615,3.7477,3.8235,3.887,3.9365,3.9882,4.0456,4.1074,4.094,4.1001,0.0,0.0,0.0,0.0,0.0,0.0,0.0,0.0,0.0,3.7962,3.6562,3.3945,3.0642,2.7611,2.5607,0.0,0.0,2.2898,2.3758,2.4982,2.3688,2.1642,2.142,1.8659,1.5751,1.6187,1.7384,0.0,2.0125,2.2008,2.39,2.5164,2.6076,2.6791,2.7358,2.8581,2.9478,2.9195,2.845,2.848,3.031,2.9215,2.9176,3.2216,3.1816,3.1289,3.1405,2.9101,2.7329,2.6883,3.0221,3.1764,3.0217,3.2887,3.4413,3.4071,3.4278,3.438,3.4329,3.438,3.4397,3.4397,3.4397,3.4397,3.4397,3.4397,3.4397,3.437,3.3257,3.2231,3.1383,3.2005,3.2714,3.3424,3.306,3.3641,3.4745,3.457,3.4738,3.4977,3.434,3.5295,3.6731,0.0,0.0,0.0,0.0,0.0,0.0,0.0,0.0,0.0,0.0,0.0,0.0,0.0,0.0,0.0,0.0,0.0,0.0,0.0,2.2596,2.7279,3.2199,3.4428,3.6153,3.7477,3.8477,3.8995,3.9027,4.0006,4.0497,4.0529,4.0911,4.109,0.0,0.0,0.0,0.0,0.0,0.0,0.0,0.0,0.0,3.6569,3.4024,3.0861,2.7655,2.6321,0.0,0.0,0.0,1.9898,2.1769,1.95,1.9859,0.0,1.9041,1.6634,1.4989,1.6996,0.0,1.6945,2.0848,2.2381,2.3532,2.5839,2.7084,2.7928,2.8524,2.8794,2.9095,2.9666,2.927,2.9239,3.0412,3.0098,3.0266,3.1808,3.0439,2.9135,2.8755,2.6803,2.4016,0.0,2.4928,2.9279,3.1915,3.283,3.3456,3.3871,3.4225,3.4312,3.4128,3.4312,3.4397,3.4397,3.4397,3.4397,3.4397,3.4397,3.4397,3.4387,3.3692,3.3321,3.3264,3.3928,3.4163,3.4093,3.4189,3.4197,3.4083,3.3481,3.4042,3.5117,3.4367,3.5296,3.6974,0.0,0.0,0.0,0.0,0.0,0.0,0.0,0.0,0.0,0.0,0.0,0.0,0.0,0.0,0.0,0.0,0.0,0.0,0.0,1.8933,2.2979,2.6673,3.0652,3.2997,3.3443,3.5148,3.5765,3.527,3.7452,3.8291,3.7872,3.8908,3.9368,3.9368,0.0,0.0,0.0,0.0,0.0,0.0,0.0,0.0,3.4484,3.0867,2.7323,2.3883,0.0,0.0,0.0,0.0,1.5814,1.6728,1.7524,0.0,0.0,1.3796,1.4557,1.6054,1.6231,0.0,2.1005,2.3473,2.5209,2.6687,2.8176,2.9015,2.9256,2.8576,2.8294,2.7808,2.6636,2.5788,2.5592,2.665,2.581,2.6274,2.9899,2.7179,2.5791,2.8368,2.5237,0.0,0.0,0.0,0.0,2.6414,3.0688,3.3413,3.3563,3.4215,3.4498,3.4312,3.4363,3.4397,3.4397,3.4397,3.4397,3.4397,3.3978,3.3572,3.3106,3.2457,3.1912,3.153,3.2169,3.2652,3.2996,3.34,3.3792,3.4088,3.3968,3.4154,3.4502,3.4847,3.5309,3.5809,0.0,0.0,0.0,0.0,0.0,0.0,0.0,0.0,0.0,0.0,0.0,0.0,0.0,0.0,0.0,0.0,0.0,0.0,0.0,0.0,1.8758,2.2249,2.5704,2.7875,2.8552,3.0817,3.1769,3.1292,3.4369,3.5637,3.5245,3.6267,3.6751,3.6751,3.663,0.0,0.0,0.0,0.0,0.0,0.0,0.0,3.0662,2.6407,2.2867,0.0,0.0,0.0,0.0,0.0,0.0,0.0,1.416,1.3373,1.2291,1.2722,1.4483,1.6627,1.8115,2.085,2.38,2.5991,2.7357,2.8377,2.9136,2.9388,2.9204,2.8228,2.7415,2.6253,2.4101,2.3099,2.2901,2.3757,2.3219,2.4222,2.8582,2.6414,2.5283,2.7698,2.5223,2.4299,0.0,0.0,0.0,2.524,2.9096,3.173,3.224,3.274,3.3489,3.4484,3.4498,3.4465,3.4397,3.4397,3.4397,3.4382,3.3792,3.3252,3.2817,3.2358,3.1368,3.0139,3.2013,3.2317,3.1643,3.3297,3.4066,3.4188,3.4325,3.4488,3.4673,3.4919,3.5275,3.5636,0.0,0.0,0.0,0.0,0.0,0.0,0.0,0.0,0.0,0.0,0.0,0.0,0.0,0.0,0.0,0.0,0.0,0.0,0.0,0.0,0.0,1.8889,1.9927,2.1242,2.3095,2.5693,2.7019,2.6988,3.0537,3.2249,3.222,3.2732,3.2981,3.2969,3.2667,3.2766,0.0,0.0,0.0,0.0,0.0,0.0,2.5232,2.0821,0.0,0.0,0.0,0.0,0.0,0.0,0.0,0.0,1.0007,0.9636,1.0937,1.5472,1.6308,1.6939,2.2235,2.4097,2.5218,2.823,2.8745,2.8558,2.8764,2.8366,2.7834,2.7324,2.601,2.4258,0.0,0.0,2.1023,2.1826,2.235,2.3987,2.7795,2.7778,2.725,0.0,0.0,0.0,0.0,0.0,0.0,2.834,0.0,2.8941,3.0323,3.0318,3.1641,3.4624,3.4714,3.4631,3.4414,3.4414,3.4368,3.4339,3.3748,3.3403,3.3304,3.3209,3.1683,2.935,3.3332,3.3156,3.0341,3.3867,3.4919,3.43,3.4436,3.491,3.5422,3.461,3.5138,3.6273,0.0,0.0,0.0,0.0,0.0,0.0,0.0,0.0,0.0,0.0,0.0,0.0,0.0,0.0,0.0,0.0,0.0,0.0,0.0,0.0,0.0,0.0,0.0,0.0,0.0,0.0,0.0,0.0,0.0,2.3417,2.2942,2.4111,2.4667,0.0,2.4612,2.467,0.0,0.0,0.0,0.0,0.0,0.0,2.0283,0.0,0.0,0.0,0.0,0.0,0.0,0.0,0.0,0.0,1.423,1.4633,1.4744,1.5367,1.8032,2.0957,2.178,2.4666,2.7849,2.959,2.9379,2.8744,2.8835,2.8228,2.6846,2.4118,2.178,1.9489,0.0,0.0,0.0,1.9571,1.981,0.0,2.5357,2.5282,0.0,2.689,0.0,2.8197,2.9928,3.0661,0.0,0.0,3.085,3.2157,3.3135,3.3619,3.4177,3.4837,3.4835,3.4783,3.4616,3.4465,3.4167,3.3719,3.3064,3.2476,3.1977,3.1499,3.1129,3.0943,3.2473,3.2837,3.2465,3.386,3.4313,3.4163,3.43,3.4402,3.4473,3.434,3.4453,3.4673,0.0,0.0,0.0,0.0,0.0,0.0,0.0,0.0,0.0,0.0,0.0,0.0,0.0,0.0,0.0,0.0,0.0,0.0,0.0,0.0,0.0,0.0,0.0,0.0,0.0,0.0,0.0,0.0,0.0,0.0,0.0,1.8837,1.9228,1.9228,1.9275,1.9399,1.9583,0.0,0.0,0.0,0.0,0.0,0.0,0.0,0.0,0.0,0.0,0.0,0.0,0.0,0.0,1.3559,1.7211,1.781,1.7541,1.9389,0.0,2.3399,2.4659,2.6776,2.8931,3.0108,2.9472,2.8227,2.6884,2.5769,2.3986,2.0437,1.8188,0.0,1.3903,1.3012,0.0,0.0,0.0,0.0,2.4193,2.467,2.5339,0.0,2.8238,0.0,3.285,3.3088,3.2818,0.0,3.1793,3.1851,3.2622,3.2988,3.3709,3.4857,3.4902,3.4785,3.458,3.4465,3.424,3.3879,3.3013,3.25,3.2308,3.153,3.0887,3.051,0.0,3.2447,3.1887,3.358,3.4275,3.4288,3.4485,3.4485,3.4374,3.4386,3.43,3.4176,0.0,0.0,0.0,0.0,0.0,0.0,0.0,0.0,0.0,0.0,0.0,0.0,0.0,0.0,0.0,0.0,0.0,0.0,0.0,0.0,0.0,0.0,0.0,0.0,0.0,0.0,0.0,0.0,0.0,0.0,0.0,0.0,0.0,0.0,0.0,0.0,0.0,0.0,0.0,0.0,0.0,0.0,0.0,0.0,0.0,0.0,0.0,0.0,0.0,0.0,1.5584,1.4677,1.9771,2.0496,2.0313,2.4694,2.5272,2.5211,2.838,2.9124,2.9241,3.0144,2.9305,2.7485,2.4525,2.2669,2.0574,1.7089,0.0,1.3751,1.2225,1.2363,1.3769,1.7016,0.0,2.0412,2.3028,2.4855,2.6357,2.7569,2.8917,3.0969,3.4034,3.3866,3.4106,3.5397,3.2311,3.066,3.1291,3.1229,3.2328,3.4828,3.4902,3.4752,3.4465,3.4465,3.4438,3.4336,3.3331,3.3031,3.3287,3.2344,3.1058,2.9712,3.2217,3.2215,3.0691,3.3303,3.4436,3.4521,3.4768,3.478,3.4655,3.4521,3.4399,3.4275,0.0,0.0,0.0,0.0,0.0,0.0,0.0,0.0,0.0,0.0,0.0,0.0,0.0,0.0,0.0,0.0,0.0,0.0,0.0,0.0,0.0,0.0,0.0,0.0,0.0,0.0,0.0,0.0,0.0,0.0,0.0,0.0,0.0,0.0,0.0,0.0,0.0,0.0,0.0,0.0,0.0,0.0,0.0,0.0,0.0,0.0,0.0,0.0,0.0,0.0,1.6712,1.7848,2.3648,2.5476,2.5458,2.5328,2.6642,2.8074,2.7519,2.8718,3.0139,3.0142,2.9096,2.755,2.5612,2.2654,0.0,0.0,1.3269,1.1482,1.2517,1.2442,1.3533,1.7569,1.8941,1.931,1.8759,2.377,2.7043,0.0,2.8318,3.1402,3.4716,3.2737,0.0,0.0,3.4869,3.4538,3.4658,3.4338,3.4381,3.4887,3.4902,3.4868,3.4819,3.4819,3.4571,3.4074,3.3871,3.3456,3.2879,3.2254,3.2181,3.2545,3.2293,0.0,3.355,3.375,3.4101,3.4509,3.4546,3.4558,3.4521,3.4386,3.4325,3.4275,0.0,0.0,0.0,0.0,0.0,0.0,0.0,0.0,0.0,0.0,0.806,0.8216,0.0,0.0,0.0,0.0,0.0,0.0,0.0,0.0,0.0,0.0,0.0,0.0,0.0,0.0,0.0,0.0,0.0,0.0,0.0,0.0,0.0,0.0,0.0,0.0,0.0,0.0,0.0,0.0,0.0,0.0,0.0,0.0,0.0,0.0,0.0,0.0,0.0,0.0,1.5372,1.675,2.3812,2.6475,2.6692,2.5114,2.6553,2.8355,2.68,2.8081,2.9886,2.9975,2.8722,2.6474,2.2675,0.0,0.0,0.0,0.9851,0.9054,1.01,1.0728,0.0,1.723,1.884,1.9926,2.1127,2.4791,0.0,2.747,2.9369,3.1372,0.0,3.1731,3.1467,3.3331,3.3107,3.3646,3.5413,3.5213,3.5065,3.5065,3.4951,3.4902,3.4902,3.4902,3.4721,3.4347,3.4123,3.3717,3.3137,3.2781,3.2931,3.3436,3.3126,3.2821,3.2629,3.3756,3.3596,3.2784,3.4163,3.4667,3.4643,3.496,3.5045,3.5019,0.0,0.0,0.0,0.0,0.0,0.0,0.0,0.7688,0.7744,0.7884,0.7761,0.7799,0.8158,0.8108,0.0,0.0,0.0,0.0,0.0,0.0,0.0,0.0,0.0,0.0,0.0,0.0,0.0,0.0,0.0,0.0,0.0,0.0,0.0,0.0,0.0,0.0,0.0,0.0,0.0,0.0,0.0,0.0,0.0,0.0,0.0,0.0,0.0,0.0,0.0,0.0,1.3405,1.4481,2.1383,2.4316,2.5061,2.4331,2.5684,2.7335,2.687,2.8118,2.9588,2.9704,2.8316,2.5514,2.0057,1.691,0.0,0.8901,0.7517,0.7526,0.8676,0.9777,1.2048,0.0,1.7998,1.9594,2.302,2.5011,2.6839,0.0,3.021,0.0,3.2283,3.1362,0.0,3.2346,3.1903,3.2689,3.5238,3.5213,3.5115,3.5082,3.4949,3.4852,3.4852,3.4885,3.4883,3.48,3.4401,3.4053,3.3793,3.3634,3.3651,3.3788,3.396,3.284,3.1105,3.3559,3.3242,3.1453,3.4117,3.517,3.5271,3.5824,3.5963,3.5956,0.0,0.0,0.0,0.0,0.0,0.0,0.0,0.7656,0.7744,0.7884,0.7891,0.7958,0.8173,0.7819,0.0,0.0,0.0,0.0,0.0,0.0,0.0,0.0,0.0,0.0,0.0,0.0,0.0,0.0,0.0,0.0,0.0,0.0,0.0,0.0,0.0,0.0,0.0,0.0,0.0,0.0,0.0,0.0,0.0,0.0,0.0,0.0,0.0,0.0,0.0,0.0,0.0,1.2794,1.5967,1.808,1.9968,2.2963,0.0,0.0,2.865,2.983,2.9973,2.9335,2.7951,2.5568,2.1132,0.0,1.3861,1.1043,0.8669,0.8122,1.147,1.1933,0.0,0.0,0.0,1.585,1.892,2.1911,2.4734,2.7219,0.0,0.0,3.4595,3.2337,3.1926,3.4913,3.5078,3.5024,3.4953,3.4935,3.4883,3.4748,3.4731,3.4714,3.4714,3.4835,3.4999,3.5148,3.494,3.4797,3.4767,3.4747,3.4622,3.441,3.4187,3.2921,0.0,3.3275,3.338,3.2421,3.4924,3.6295,3.6865,3.6818,3.6799,3.6761,0.0,0.0,0.0,0.0,0.0,0.0,0.0,0.8048,0.8105,0.8237,0.7977,0.7744,0.7664,0.7381,0.7405,0.0,0.0,0.0,0.0,0.0,0.0,0.0,0.0,0.0,0.0,0.0,0.0,0.0,0.0,0.0,0.0,0.0,0.0,0.0,0.0,0.0,0.0,0.0,0.0,0.0,0.0,0.0,0.0,0.0,0.0,0.0,0.0,0.0,0.0,0.0,0.0,0.0,1.005,1.0914,0.0,0.0,2.0612,2.3899,2.4026,2.7036,2.9942,2.916,2.768,2.5077,2.0008,0.0,1.367,0.9547,0.8069,0.8009,0.961,1.0234,1.1429,0.0,0.0,0.0,2.0284,2.2787,2.5588,2.9425,3.1682,0.0,0.0,0.0,3.1748,3.2824,3.305,3.3861,3.5483,3.5444,3.5265,3.5014,3.5198,3.5215,3.5014,3.5164,3.5245,3.5197,3.4716,3.4475,3.4459,3.4064,3.3878,3.3894,3.3733,3.1539,0.0,3.2862,3.2712,3.0121,3.4828,3.6841,3.7156,3.7551,3.7674,3.774,0.0,0.0,0.0,0.0,0.0,0.0,0.8269,0.8305,0.8354,0.8502,0.8077,0.7722,0.7613,0.7327,0.7388,0.8004,0.0,0.0,0.0,0.0,0.0,0.0,0.0,0.0,0.0,0.0,0.0,0.0,0.0,0.0,0.0,0.0,0.8984,0.0,0.0,0.0,0.0,0.0,0.0,0.0,0.0,0.0,0.0,0.0,0.0,0.0,0.0,0.0,0.0,0.0,0.0,0.0,0.0,0.0,0.0,0.0,1.7149,2.1507,2.1215,2.5127,2.9125,2.8482,2.6682,2.3716,0.0,0.0,1.2751,0.8379,0.7714,0.8061,0.8495,0.9087,1.0303,0.0,0.0,1.5691,2.022,2.2375,2.5019,2.9102,0.0,3.2612,0.0,3.2559,3.2742,3.2497,3.2647,3.3667,3.5739,3.5751,3.5542,3.5197,3.5363,3.5347,3.5115,3.5261,3.519,3.49,3.4378,3.377,3.3059,3.3333,3.3096,3.2538,3.328,3.1359,0.0,3.3039,3.303,3.0367,3.5428,3.7566,3.7814,3.8328,3.8579,3.8711,0.0,0.0,0.0,0.0,0.0,0.0,0.0,0.8305,0.8375,0.8579,0.8191,0.7999,0.8259,0.7817,0.7554,0.7693,0.0,0.0,0.0,0.0,0.0,0.0,0.0,0.0,0.0,0.0,0.0,0.0,0.0,0.0,0.0,0.0,0.0,0.0,0.0,0.0,0.0,0.0,0.0,0.0,0.0,0.0,0.0,0.0,0.0,0.0,0.0,0.0,0.0,0.0,0.0,0.0,0.0,0.0,0.0,0.0,1.4322,1.7731,2.2165,2.5319,2.7286,2.7058,2.4714,2.1311,0.0,1.375,1.0913,0.8406,0.8053,0.846,0.9325,0.9496,1.0328,0.0,0.0,0.0,1.7111,1.9464,2.1921,0.0,0.0,2.9928,3.3169,3.468,3.5458,3.5474,3.5459,0.0,3.5504,3.5637,3.5542,3.5197,3.5001,3.4918,3.4902,3.4918,3.4661,3.4203,3.4074,3.2713,3.0416,3.2883,3.2581,3.0287,3.293,3.309,0.0,3.4091,3.4852,3.4685,3.7202,3.8626,3.9282,3.9282,3.9455,3.9651,0.0,0.0,0.0,0.0,0.0,0.0,0.0,0.8474,0.8481,0.8411,0.8106,0.7847,0.7703,0.7366,0.716,0.716,0.0,0.0,0.0,0.0,0.0,0.0,0.0,0.0,0.0,0.0,0.0,0.0,0.0,0.0,0.0,0.0,0.0,0.0,0.0,0.0,0.0,0.0,0.0,0.0,0.0,0.0,0.0,0.0,0.0,0.0,0.0,0.0,0.0,0.0,0.0,0.0,0.0,0.0,0.0,0.0,0.0,0.0,1.5641,1.8667,2.126,2.0893,1.9761,1.789,1.4508,1.2739,1.1063,0.8437,0.7958,0.8171,0.8774,0.892,0.9933,0.0,0.0,0.0,0.0,0.0,0.0,2.7981,3.1712,3.4743,0.0,0.0,3.4718,3.6972,3.5259,3.5018,3.7018,3.7079,3.6493,3.5245,3.5363,3.5331,3.5115,3.5245,3.5238,3.508,3.4122,3.2361,2.9999,3.1586,3.091,2.8675,3.1221,3.1131,2.9418,3.2666,3.2985,3.1742,3.5014,3.6967,3.7924,3.7924,3.8565,3.9418,0.0,0.0,0.0,0.0,0.0,0.0,0.0,0.8603,0.8575,0.84,0.8074,0.7751,0.7471,0.7131,0.6929,0.6936,0.0,0.0,0.0,0.0,0.0,0.0,0.0,0.0,0.0,0.0,0.0,0.0,0.0,0.0,0.0,0.0,0.0,0.0,0.0,0.0,0.0,0.0,0.0,0.0,0.0,0.0,0.8181,0.0,0.0,0.0,0.0,0.0,0.0,0.0,0.0,0.0,0.0,0.0,0.0,0.0,0.7634,1.007,0.0,1.4823,1.7377,1.7345,1.6337,0.0,0.0,1.1325,0.9916,0.8238,0.8619,0.9174,0.8921,0.9646,1.0715,1.2017,0.0,0.0,0.0,0.0,0.0,2.7315,0.0,0.0,0.0,3.5848,3.5575,3.7758,3.6237,3.5969,3.7738,3.7756,3.7106,3.5813,3.591,3.5831,3.5507,3.5635,3.5516,3.5197,3.4356,3.2587,3.0113,3.1392,3.0762,2.883,3.0817,3.1359,0.0,3.3325,3.3734,3.3179,3.5821,3.7218,3.775,3.7975,3.8655,3.9445,0.0,0.0,0.0,0.0,0.0,0.0,0.0,0.0,0.0,0.0,0.8078,0.7715,0.7519,0.7096,0.6902,0.0,0.0,0.0,0.0,0.0,0.0,0.0,0.0,0.0,0.0,0.0,0.0,0.0,0.7722,0.7688,0.7695,0.0,0.0,0.0,0.0,0.0,0.0,0.0,0.0,0.0,0.0,0.0,0.0,0.0,0.0,0.0,0.0,0.0,0.0,0.0,0.0,0.0,0.0,0.0,0.0,0.0,0.0,0.0,0.0,1.3064,1.4959,1.561,1.3933,0.0,0.0,0.0,0.0,0.8064,0.9858,1.1019,0.9738,1.1464,1.2473,1.0656,0.0,0.0,0.0,1.7558,0.0,0.0,2.7649,0.0,3.5783,3.6971,3.7635,3.7945,3.7978,3.7889,3.7682,3.7668,3.7374,3.6724,3.6569,3.6367,3.6053,3.6037,3.5486,3.4407,3.4604,3.3081,3.0151,3.1907,3.1755,0.0,3.1483,3.3218,3.5114,3.5322,3.6157,3.7423,3.8436,3.8533,3.8199,3.8735,3.9222,3.9555,0.0,0.0,0.0,0.0,0.0,0.0,0.0,0.0,0.0,0.0,0.0,0.7642,0.7448,0.7322,0.0,0.0,0.0,0.0,0.0,0.0,0.0,0.0,0.0,0.0,0.0,0.0,0.0,0.8314,0.7849,0.7598,0.7549,0.7449,0.0,0.0,0.0,0.0,0.0,0.0,0.0,0.0,0.0,0.0,0.0,0.0,0.0,0.0,0.7471,0.7459,0.0,0.0,0.0,0.0,0.0,0.0,0.0,0.0,0.6138,0.6557,0.7548,0.0,0.8955,0.953,0.9014,0.8323,0.0,0.0,0.0,0.0,0.0,1.0773,1.1404,1.3278,1.4345,1.3128,0.0,1.7676,1.7206,0.0,0.0,2.4921,3.1217,3.4935,3.3283,3.6315,3.8215,3.7803,3.7775,3.7682,3.7469,3.7382,3.7143,3.6715,3.6565,3.6507,3.6538,3.643,3.4805,3.1735,3.3687,3.1632,2.6293,3.0744,3.1472,2.934,3.1614,3.2786,3.3094,3.3353,3.3529,3.3689,3.4051,3.4715,3.5484,3.5482,3.6786,3.8511,0.0,0.0,0.0,0.0,0.0,0.0,0.0,0.0,0.0,0.0,0.0,0.0,0.0,0.0,0.0,0.0,0.0,0.0,0.0,0.0,0.0,0.0,0.0,0.0,0.0,0.0,0.0,0.0,0.0,0.7858,0.0,0.0,0.0,0.0,0.0,0.0,0.0,0.7857,0.7983,0.0,0.7843,0.0,0.0,0.0,0.0,0.0,0.7171,0.7204,0.0,0.7309,0.7042,0.6656,0.0,0.0,0.0,0.0,0.635,0.67,0.6989,0.6884,0.6971,0.81,0.7577,0.7031,0.0,0.0,0.0,0.0,0.0,1.087,1.1848,1.316,0.0,0.0,1.5668,0.0,0.0,0.0,2.4213,2.4816,2.9102,3.2155,0.0,3.5901,3.8032,3.7841,3.7842,3.7758,3.7557,3.7469,3.7211,3.6728,3.6384,3.6261,3.6383,3.606,3.4089,3.0563,3.3171,3.1738,2.6915,3.107,3.235,3.1224,3.0887,3.1707,3.3181,3.2123,3.2303,3.3287,3.4081,3.459,3.4901,3.5126,3.6108,3.7334,0.0,0.0,0.0,0.0,0.0,0.0,0.0,0.0,0.0,0.0,0.0,0.0,0.0,0.0,0.0,0.0,0.0,0.0,0.0,0.0,0.0,0.0,0.0,0.0,0.0,0.0,0.0,0.0,0.0,0.0,0.0,0.0,0.0,0.0,0.0,0.0,0.762,0.7622,0.7683,0.7778,0.7664,0.0,0.0,0.0,0.0,0.0,0.0,0.0,0.0,0.7015,0.683,0.6538,0.6194,0.0,0.0,0.0,0.0,0.0,0.7383,0.7123,0.716,0.8995,0.7926,0.7,0.0,0.0,0.0,0.0,0.0,0.0,0.0,1.3423,0.0,0.0,0.0,0.0,2.0228,2.103,2.2023,2.3985,2.598,0.0,3.2021,3.5349,3.7395,3.7625,3.7584,3.7445,3.7264,3.7249,3.694,3.6291,3.5903,3.5706,3.567,3.534,3.3452,3.0097,3.2857,3.2344,2.9062,3.1928,3.3457,3.3715,0.0,0.0,3.3923,3.1739,3.2082,3.4119,3.5457,3.5532,3.4946,3.5558,3.5902,3.6136,0.0,0.0,0.0,0.0,0.0,0.0,0.0,0.0,0.0,0.0,0.0,0.0,0.0,0.0,0.0,0.0,0.0,0.0,0.0,0.0,0.0,0.0,0.0,0.0,0.0,0.0,0.0,0.0,0.0,0.0,0.7281,0.6915,0.6739,0.0,0.0,0.7255,0.729,0.7569,0.7693,0.7693,0.7395,0.0,0.0,0.0,0.0,0.0,0.0,0.0,0.0,0.6716,0.6638,0.6583,0.6462,0.0,0.0,0.0,0.0,0.0,0.7119,0.7229,0.7739,0.9668,0.8337,0.7179,0.0,0.0,0.0,0.0,0.0,0.0,0.0,1.8529,2.0325,0.0,0.0,1.9749,0.0,0.0,2.5517,2.3165,0.0,3.2982,3.013,3.4068,3.6589,3.6083,3.5682,3.5381,3.5165,3.5165,3.491,3.4349,3.4698,3.4667,3.4228,3.4703,3.3089,2.9485,3.2621,3.2082,2.8439,3.1761,3.3331,3.3366,0.0,3.2753,3.3103,3.2927,3.2953,3.3134,3.35,3.3548,3.3416,3.3419,3.4093,3.5176,0.0,0.0,0.0,0.0,0.0,0.0,0.0,0.0,0.0,0.0,0.0,0.0,0.0,0.0,0.0,0.0,0.0,0.0,0.0,0.0,0.0,0.0,0.0,0.0,0.0,0.0,0.0,0.0,0.0,0.7644,0.7136,0.692,0.6858,0.6929,0.704,0.715,0.7257,0.7265,0.727,0.7248,0.0,0.0,0.0,0.0,0.0,0.0,0.0,0.0,0.0,0.0,0.6427,0.63,0.6456,0.0,0.0,0.0,0.0,0.0,0.734,0.7436,0.8265,1.1412,0.9486,0.7851,0.0,0.0,0.0,0.0,0.0,0.0,0.0,0.0,1.8166,1.7727,0.0,2.4645,2.3111,2.4908,2.5843,0.0,0.0,3.0209,2.9434,3.2915,3.5368,3.5688,3.5496,3.5313,3.5136,3.5136,3.5018,3.4766,3.4438,3.4152,3.3894,3.3676,3.1955,2.886,3.1774,3.1323,2.7987,3.1294,3.292,3.2991,0.0,3.147,3.2788,3.1387,3.1522,3.2662,3.2976,3.2989,3.2841,3.2883,3.34,3.4187,0.0,0.0,0.0,0.0,0.0,0.0,0.0,0.0,0.0,0.0,0.0,0.0,0.0,0.0,0.0,0.0,0.0,0.0,0.0,0.0,0.0,0.0,0.0,0.0,0.0,0.0,0.9206,0.8425,0.788,0.7399,0.6985,0.6925,0.7015,0.0,0.7097,0.7164,0.7357,0.7087,0.6946,0.6907,0.0,0.0,0.0,0.0,0.0,0.0,0.0,0.0,0.0,0.0,0.0,0.0,0.0,0.0,0.0,0.6931,0.7263,0.7445,0.7545,0.7583,0.8468,1.205,0.0,0.0,0.0,0.0,0.0,0.0,0.0,0.0,0.0,1.4788,0.0,2.0245,2.5069,2.7681,2.5982,2.6141,2.6561,2.6952,2.7227,2.8204,3.0298,3.2578,3.4409,3.5611,3.5552,3.5429,3.5394,3.5378,3.5244,3.496,3.4303,3.3848,3.3682,3.2924,3.1453,2.9355,3.1413,3.11,2.881,3.128,3.2537,3.265,3.0294,3.0611,3.2631,3.0459,3.0688,3.2439,3.2798,3.2784,3.2564,3.2732,3.2962,3.3326,0.0,0.0,0.0,0.0,0.0,0.0,0.0,0.0,0.0,0.0,0.0,0.0,0.0,0.0,0.0,0.0,0.0,0.0,0.0,0.0,0.0,0.0,0.0,0.0,0.0,0.903,0.8514,0.7584,0.723,0.6917,0.6637,0.6635,0.6831,0.7195,0.7195,0.7338,0.7563,0.729,0.7107,0.6967,0.6715,0.0,0.0,0.0,0.0,0.0,0.0,0.0,0.0,0.0,0.0,0.0,0.0,0.0,0.6322,0.7001,0.7328,0.7493,0.7504,0.7559,0.8055,0.9983,0.8905,0.0,0.0,0.0,0.0,0.0,0.0,0.0,0.0,1.6777,1.8146,2.2943,2.4261,2.5725,2.8725,0.0,2.9765,3.0771,3.0868,3.1603,3.3576,3.3745,3.428,3.5595,3.5113,3.4845,3.5032,3.5047,3.4531,3.3401,3.3771,3.3696,3.3074,3.2982,3.267,3.2112,3.2307,3.2276,3.2064,3.2292,3.2411,3.241,3.2211,3.2227,3.2424,3.2223,3.224,3.2398,3.2439,3.2439,3.2425,3.2425,3.254,3.2671,0.0,0.0,0.0,0.0,0.0,0.0,0.0,0.0,0.0,0.0,0.0,0.0,0.0,0.0,0.0,0.0,0.0,0.0,0.0,0.0,0.0,0.0,0.0,0.8672,0.8476,0.8307,0.7957,0.7435,0.714,0.6884,0.6675,0.7043,0.0,0.0,0.7406,0.7398,0.7405,0.7173,0.6974,0.6801,0.6706,0.6561,0.0,0.0,0.0,0.0,0.0,0.0,0.0,0.0,0.6145,0.6136,0.0,0.6515,0.6605,0.7063,0.7316,0.7467,0.7596,0.764,0.8333,1.1126,0.0,0.0,0.0,0.0,0.0,0.0,0.0,0.0,0.0,0.0,2.0475,2.3126,2.548,2.7393,2.859,2.9547,3.0045,2.9779,3.006,3.0879,3.2471,3.2182,3.2645,3.4455,3.3998,3.3766,3.4044,3.4074,3.3864,3.3397,3.326,3.3079,3.2807,3.253,3.231,3.2164,3.2661,3.2729,3.2398,3.2398,3.2509,3.2689,3.2496,3.2523,3.2718,3.2718,3.2718,3.2718,3.2718,3.2718,3.2689,3.2467,3.2425,3.2467,0.0,0.0,0.0,0.0,0.0,0.0,0.0,0.0,0.0,0.0,0.0,0.0,0.0,0.0,0.0,0.0,0.0,0.0,0.0,0.0,0.0,0.0,0.0,0.806,0.7815,0.7577,0.7404,0.7304,0.6991,0.6843,0.6834,0.0,0.0,0.0,0.7479,0.7432,0.7347,0.7131,0.6937,0.679,0.6679,0.653,0.0,0.0,0.0,0.0,0.0,0.0,0.0,0.0,0.5943,0.0,0.0,0.0,0.0,0.0,0.7088,0.7301,0.7567,0.7669,0.8363,0.0,0.0,0.0,0.0,0.0,0.0,0.0,0.0,0.0,0.0,0.0,0.0,0.0,2.4646,2.6658,2.7498,2.8557,2.9119,2.877,2.8971,2.979,3.1481,3.1096,3.1487,3.3263,3.2942,3.2881,3.3331,3.3377,3.338,3.3337,3.299,3.2763,3.2704,3.234,3.2171,3.2229,3.2784,3.2761,3.2259,3.2259,3.2401,3.2595,3.2358,3.2401,3.2624,3.2705,3.2827,3.2964,3.2964,3.2937,3.287,3.2635,3.2496,3.2398,0.0,0.0,0.0,0.0,0.0,0.0,0.0,0.0,0.0,0.0,0.0,0.0,0.0,0.0,0.0,0.0,0.0,0.0,0.0,0.0,0.0,0.0,0.0,0.768,0.7214,0.6877,0.6834,0.709,0.67,0.6714,0.7104,0.6972,0.0,0.0,0.0,0.7452,0.7484,0.7218,0.7063,0.6974,0.6634,0.6422,0.6307,0.0,0.0,0.0,0.0,0.0,0.0,0.0,0.5388,0.55,0.0,0.0,0.0,0.6217,0.6638,0.6989,0.7393,0.7609,0.8011,0.0,0.0,0.0,0.0,0.0,0.0,0.0,0.0,0.0,0.0,0.0,0.0,2.0303,2.1124,2.2596,2.5656,2.649,2.7242,2.8438,2.8188,2.8833,3.1246,3.0932,3.1045,3.2189,3.2089,3.2251,3.2915,3.3087,3.308,3.2953,3.2953,3.288,3.2659,3.2541,3.2541,3.2659,3.2689,3.243,3.1996,3.1996,3.1996,3.1995,3.1996,3.1996,3.201,3.2287,3.2674,3.3096,3.3096,3.3018,3.2897,3.2897,3.2689,3.2398,0.0,0.0,0.0,0.0,0.0,0.0,0.0,0.0,0.0,0.0,0.0,0.0,0.0,0.0,0.0,0.0,0.0,0.0,0.0,0.0,0.0,0.0,0.0,0.0,0.0,0.0,0.6933,0.6541,0.6796,0.6986,0.0,0.0,0.0,0.7395,0.0,0.0,0.0,0.0,0.741,0.6764,0.6479,0.6331,0.6307,0.0,0.0,0.0,0.0,0.0,0.0,0.0,0.0,0.0,0.0,0.0,0.0,0.697,0.722,0.7268,0.7953,0.8021,0.0,0.0,0.0,0.0,0.0,0.0,0.0,0.0,0.0,0.0,0.0,0.0,0.0,2.0329,2.2014,2.3872,2.5209,2.628,2.6956,2.6988,2.7532,2.8359,2.9493,2.8714,2.872,3.0087,2.9354,2.9222,3.0074,2.9886,2.9856,3.0109,3.0123,3.0136,3.0163,3.0362,3.0531,3.0656,3.098,3.1439,3.1996,3.1996,3.2094,3.2259,3.208,3.2108,3.2288,3.237,3.2658,3.3009,3.2821,3.2812,3.287,3.2635,3.2496,3.2398,0.0,0.0,0.0,0.0,0.0,0.0,0.0,0.0,0.0,0.0,0.0,0.0,0.0,0.0,0.0,0.0,0.0,0.0,0.0,0.0,0.0,0.0,0.0,0.0,0.0,0.725,0.6986,0.0,0.0,0.0,0.0,0.0,0.0,0.7261,0.0,0.7543,0.0,0.0,0.6864,0.6121,0.6302,0.6155,0.585,0.0,0.0,0.0,0.0,0.0,0.0,0.0,0.0,0.0,0.0,0.0,0.0,0.6614,0.7024,0.7398,0.8494,0.872,0.0,0.0,0.0,0.0,0.0,0.0,0.0,0.0,0.0,1.8339,1.7913,1.9939,0.0,2.0734,2.2232,2.3638,2.4057,2.4931,2.5547,2.5584,2.6319,2.7051,2.7593,2.7232,2.7323,2.8159,2.7601,2.7558,2.8297,2.8197,2.8312,2.8735,2.8903,2.8944,2.886,2.9346,2.9552,2.9457,2.9912,3.0482,3.1126,3.1599,3.1773,3.1708,3.1369,3.137,3.1626,3.1835,3.216,3.2524,3.2575,3.2672,3.2757,3.2549,3.2453,3.2398,0.0,0.0,0.0,0.0,0.0,0.0,0.0,0.0,0.0,0.0,0.0,0.0,0.0,0.0,0.0,0.0,0.0,0.0,0.0,0.0,0.0,0.0,0.0,0.0,0.0,0.0,0.0,0.0,0.0,0.0,0.0,0.0,0.7117,0.6994,0.0,0.6724,0.0,0.6251,0.5849,0.5263,0.6034,0.5841,0.5149,0.5698,0.0,0.0,0.0,0.0,0.0,0.0,0.0,0.0,0.4258,0.4518,0.5115,0.5629,0.6412,0.745,0.8984,0.0,0.0,0.0,0.0,0.0,0.0,0.0,0.0,0.0,0.0,1.9711,2.042,2.0539,2.07,2.1198,2.1815,2.2283,2.2436,2.2895,2.3487,2.4216,2.471,2.5203,2.568,2.6178,2.6481,2.6425,2.6521,2.6783,2.7289,2.7449,2.7768,2.8238,2.8601,2.8615,2.8266,2.899,2.9155,2.8741,2.9269,2.957,2.9725,3.0834,3.1087,3.061,3.0199,3.0151,3.0402,3.0886,3.1338,3.1762,3.2212,3.242,3.2482,3.2482,3.24,3.2292,0.0,0.0,0.0,0.0,0.0,0.0,0.0,0.0,0.0,0.0,0.0,0.0,0.0,0.0,0.0,0.0,0.0,0.0,0.0,0.0,0.0,0.0,0.0,0.0,0.0,0.0,0.0,0.0,0.0,0.0,0.0,0.0,0.0,0.6957,0.0,0.7345,0.6151,0.6623,0.6168,0.5128,0.515,0.5111,0.5036,0.5164,0.4975,0.0,0.0,0.0,0.0,0.0,0.0,0.0,0.4361,0.4238,0.4648,0.5952,0.6767,0.7577,0.0,0.9193,0.0,0.0,0.0,0.0,0.0,0.0,0.0,1.7618,1.7678,1.782,1.9841,2.0091,2.0058,2.035,2.072,2.1056,2.123,2.2021,2.2653,2.2822,2.3263,2.3781,2.4353,2.4194,2.4356,2.5062,2.4939,2.5128,2.5812,2.5699,2.5826,2.6301,2.6383,2.6438,2.6452,2.7141,2.747,2.7497,2.8388,2.883,2.8886,2.9776,3.017,3.0139,3.0042,3.0033,3.0085,3.0211,3.0618,3.114,3.0849,3.1044,3.1505,3.1505,3.1478,3.1513,0.0,0.0,0.0,0.0,0.0,0.0,0.0,0.0,0.0,0.0,0.0,0.0,0.0,0.0,0.0,0.0,0.0,0.0,0.0,0.0,0.0,0.0,0.0,0.0,0.0,0.0,0.0,0.0,0.0,0.0,0.0,0.0,0.0,0.6823,0.0,0.6983,0.6077,0.6451,0.6044,0.5174,0.5414,0.5335,0.5071,0.5303,0.5136,0.4793,0.486,0.0,0.0,0.0,0.0,0.0,0.0,0.0,0.5086,0.5954,0.6503,0.716,0.0,0.0,0.0,0.0,0.0,0.0,0.0,1.4927,1.5449,1.6815,1.7077,1.7484,1.8802,1.9206,1.9255,1.9041,1.9334,1.9773,2.0261,2.0713,2.1272,2.1986,2.2384,2.2757,2.3099,2.3036,2.317,2.3654,2.3863,2.4019,2.4154,2.4624,2.4907,2.4921,2.5425,2.5633,2.5467,2.6229,2.6549,2.6444,2.736,2.7943,2.8246,2.8972,2.9352,2.9401,2.9163,2.9039,2.9082,2.9401,2.9735,3.0052,3.0101,3.0508,3.1102,3.1102,3.1316,3.1622,0.0,0.0,0.0,0.0,0.0,0.0,0.0,0.0,0.0,0.0,0.0,0.0,0.0,0.0,0.0,0.0,0.0,0.0,0.0,0.0,0.0,0.0,0.0,0.0,0.0,0.0,0.0,0.0,0.0,0.0,0.0,0.0,0.0,0.6914,0.0,0.0,0.5983,0.6066,0.5726,0.5181,0.5796,0.5639,0.5101,0.5555,0.5491,0.5175,0.5348,0.5531,0.5642,0.5315,0.0,0.0,0.0,0.0,0.5682,0.581,0.6139,0.6803,0.0,0.0,1.1188,1.289,1.4081,0.0,1.4234,1.4884,1.5673,1.6068,1.6823,1.7456,1.7588,1.8007,1.8171,1.7615,1.7936,1.8469,1.9119,1.9186,1.9669,2.1069,2.1428,2.1666,2.1925,2.2153,2.2332,2.2424,2.2967,2.3148,2.2776,2.393,2.4378,2.3886,2.4935,2.5272,2.4793,2.5674,2.5933,2.5619,2.6349,2.7032,2.763,2.8077,2.8434,2.8664,2.8235,2.8029,2.8075,2.8546,2.8821,2.9013,2.9412,3.0014,3.0661,3.0673,3.1036,3.1537,0.0,0.0,0.0,0.0,0.0,0.0,0.0,0.0,0.0,0.0,0.0,0.0,0.0,0.0,0.0,0.0,0.0,0.0,0.0,0.0,0.0,0.0,0.0,0.0,0.0,0.0,0.0,0.0,0.0,0.0,0.0,0.0,0.0,0.7824,0.0,0.0,0.0,0.5747,0.5358,0.4863,0.496,0.4941,0.4883,0.5294,0.5417,0.5399,0.571,0.6458,0.7121,0.6001,0.6291,0.0,0.0,0.0,0.5544,0.5612,0.6364,0.7282,0.0,0.0,1.1131,0.0,1.2622,1.2497,0.0,0.0,1.457,0.0,1.6087,1.6266,1.6399,1.6491,1.6517,1.6424,1.6865,1.7209,1.7189,1.7564,1.8222,1.923,1.939,1.9807,2.08,2.1031,2.1293,2.1694,2.1986,2.2267,2.2607,2.3342,2.352,2.2987,2.4133,2.4493,2.3961,2.4881,2.5315,2.5273,2.5728,2.627,2.6827,2.6395,2.6954,2.8287,2.8192,2.8174,2.8137,2.7823,2.8151,2.8751,2.8096,2.8411,2.9277,2.9406,2.9503,2.963,0.0,0.0,0.0,0.0,0.0,0.0,0.0,0.0,0.0,0.0,0.0,0.0,0.0,0.0,0.0,0.0,0.0,0.0,0.0,0.0,0.0,0.8675,0.8675,0.8723,0.0,0.0,0.0,0.0,0.0,0.0,0.0,0.9395,0.8921,0.0,0.0,0.0,0.0,0.0,0.6429,0.5835,0.5458,0.557,0.5984,0.6092,0.6407,0.6785,0.0,0.0,0.0,0.6359,0.644,0.6861,0.6324,0.0,0.0,0.0,0.6001,0.0,0.8274,0.9123,1.0251,0.0,1.2554,1.1768,1.4244,0.0,1.3775,1.4751,1.5109,1.5405,1.5837,1.6169,1.6144,1.5469,1.5783,1.6205,1.6528,1.6717,1.7226,1.8368,1.8968,1.9484,1.9984,2.049,2.0834,2.0924,2.1356,2.1545,2.1388,2.2424,2.2925,2.2698,2.3371,2.3928,2.4247,2.4366,2.4668,2.5203,2.5161,2.5495,2.6176,2.5687,2.6162,2.7369,2.7369,2.7393,2.7479,2.7608,2.7773,2.7921,2.7531,2.7702,2.819,2.8558,2.889,2.9255,0.0,0.0,0.0,0.0,0.0,0.0,0.0,0.0,0.0,0.0,0.0,0.0,0.0,0.0,0.0,0.0,0.0,0.0,0.0,0.0,0.0,0.8846,0.9091,0.9287,0.9474,0.0,0.0,0.0,0.0,0.0,1.0354,1.0375,0.9994,0.0,0.9323,0.0,0.0,0.0,0.0,0.0,0.6463,0.6529,0.6905,0.0,0.0,0.0,0.0,0.0,0.0,0.0,0.0,0.0,0.675,0.6422,0.0,0.0,0.0,0.0,0.0,0.0,0.9321,1.2753,1.2004,1.0983,0.0,0.0,1.269,0.0,1.4216,1.4739,1.5255,1.5697,1.5699,1.4803,1.4931,1.5319,1.5723,1.5708,1.6075,1.7226,1.8212,1.8927,1.9218,2.0048,2.0468,2.0282,2.0771,2.0846,2.0298,2.151,2.219,2.2113,2.265,2.331,2.4074,2.3943,2.4221,2.4921,2.4621,2.4878,2.5577,2.5119,2.5412,2.627,2.6443,2.6574,2.6704,2.7084,2.7199,2.7119,2.699,2.7128,2.7431,2.7765,2.8154,2.8599,0.0,0.0,0.0,0.0,0.0,0.0,0.0,0.0,0.0,0.0,0.0,0.0,0.0,0.0,0.0,0.801,0.7731,0.7919,0.8807,0.8136,0.8209,0.9313,0.9257,0.0,0.9409,0.0,0.0,0.0,0.0,0.0,1.022,1.066,1.1002,1.122,1.054,0.9769,0.8956,0.0,0.0,0.0,0.7825,0.7485,0.0,0.0,0.0,0.0,0.0,0.0,0.0,0.0,0.0,0.0,0.0,0.0,0.0,0.0,0.0,0.0,0.0,0.8295,0.0,1.0451,0.0,0.0,0.0,0.0,0.0,1.2315,1.3515,1.4339,1.4367,1.4495,1.4576,1.4515,1.4524,1.4444,1.4156,1.4112,1.4421,1.525,1.6299,1.7357,1.8447,1.9506,2.0067,1.993,2.0081,2.0088,1.9934,2.0725,2.1056,2.0814,2.1858,2.2512,2.2698,2.3617,2.4112,2.4156,2.4141,2.4447,2.5019,2.4433,2.4505,2.5118,2.5755,2.6038,2.6039,2.581,2.6122,2.6669,2.6164,2.6432,2.7089,2.6867,2.6803,2.6832,0.0,0.0,0.0,0.0,0.0,0.0,0.0,0.0,0.0,0.0,0.0,0.0,0.0,0.0,0.7202,0.7171,0.7175,0.7268,0.7471,0.7815,0.8143,0.8422,0.8802,0.9129,0.9392,0.0,0.0,0.0,0.0,0.9313,1.0208,1.037,1.0696,1.1163,1.177,1.0924,0.9077,0.9657,0.0,0.0,0.8414,0.8408,0.7944,0.0,0.0,0.0,0.0,0.0,0.0,0.0,0.0,0.0,0.0,0.0,0.0,0.0,0.0,0.0,0.0,0.0,0.0,0.9586,0.8986,0.829,0.9843,1.0752,1.1239,1.1116,1.3044,1.4504,1.3676,1.4245,1.4817,1.4817,1.4719,1.4591,1.4464,1.4449,1.4563,1.4836,1.5742,1.6517,1.6923,1.8243,1.9011,1.8822,1.8538,1.8677,1.9354,1.8962,1.9376,2.0781,2.1019,2.159,2.2592,2.3601,2.4098,2.4098,2.4098,2.4214,2.4419,2.42,2.4214,2.4433,2.4679,2.5049,2.5494,2.566,2.5769,2.5837,2.555,2.5522,2.5646,2.5905,2.6082,2.6287,0.0,0.0,0.0,0.0,0.0,0.0,0.0,0.0,0.0,0.0,0.0,0.0,0.0,0.0,0.6698,0.6608,0.6685,0.6862,0.7149,0.7773,0.821,0.8393,0.8892,0.9238,0.9401,0.0,0.0,0.0,0.0,0.0,0.0,0.9961,1.0254,1.0685,1.1699,1.1325,0.0,0.0,0.0,0.866,0.0,0.9334,0.9238,0.0,0.0,0.0,0.0,0.0,0.0,0.0,0.0,0.0,0.0,0.0,0.0,0.0,0.0,0.0,0.6872,0.0,0.0,0.0,0.0,0.7404,0.8702,0.0,1.1044,1.0541,1.2694,1.4411,1.3551,1.428,1.5,1.5,1.4828,1.4677,1.4632,1.4597,1.4547,1.4478,1.5341,1.5973,1.5973,1.7262,1.7994,1.7744,1.7685,1.8003,1.8764,1.8383,1.8973,2.0773,2.0695,2.1195,2.2394,2.3204,2.3688,2.3869,2.3875,2.3951,2.4098,2.4098,2.4098,2.4098,2.4098,2.4405,2.4908,2.5189,2.5315,2.5315,2.5091,2.4978,2.4963,2.5189,2.537,2.5633,0.0,0.0,0.0,0.0,0.0,0.0,0.0,0.0,0.0,0.0,0.0,0.0,0.0,0.0,0.0,0.6427,0.6313,0.6772,0.7996,0.8044,0.8422,0.9311,0.9561,0.9575,0.9381,0.957,0.0,0.0,0.0,0.0,0.0,0.0,0.9745,0.0,1.0292,1.0892,1.1611,0.0,1.1273,1.1044,0.0,1.0313,1.0697,0.0,0.0,0.0,1.1137,1.0933,0.0,1.1288,0.0,0.0,0.0,0.0,0.0,0.0,0.0,0.0,0.0,0.0,0.0,0.0,0.0,0.0,0.7293,0.0,1.0269,1.0577,1.2423,1.3974,1.3959,1.4538,1.5,1.5,1.4843,1.4662,1.4529,1.4393,1.4237,1.404,1.4985,1.567,1.567,1.6617,1.7103,1.6782,1.7594,1.8131,1.8178,1.9076,1.9903,2.0623,2.0942,2.1364,2.1964,2.2396,2.2858,2.3363,2.3403,2.3656,2.4068,2.4083,2.4098,2.4098,2.4098,2.4187,2.4307,2.4292,2.4638,2.5133,2.475,2.4836,2.5133,2.475,2.4692,2.4778,0.0,0.0,0.0,0.0,0.0,0.0,0.0,0.0,0.0,0.0,0.0,0.0,0.0,0.0,0.0,0.7125,0.7307,0.7479,0.7592,0.8071,0.8375,0.8388,0.8766,0.8952,0.8894,0.8952,0.0,0.0,0.0,0.0,0.0,0.0,0.0,0.0,0.957,0.9864,0.9807,1.0763,0.0,0.0,1.1373,1.1386,0.0,0.0,0.0,0.0,0.0,1.2727,1.1979,0.0,1.0916,0.9491,0.0,0.0,0.0,0.0,0.0,0.0,0.6328,0.0,0.0,0.0,0.0,0.0,0.0,0.0,0.9672,0.9327,1.1353,1.3155,1.3018,1.4093,1.5,1.5,1.4956,1.4858,1.4671,1.4612,1.4532,1.4387,1.4642,1.4827,1.4827,1.5505,1.5886,0.0,1.599,1.6498,1.7431,1.8494,1.9189,1.9384,2.0176,2.078,2.1206,2.2142,2.2636,2.2683,2.3509,2.3804,2.3611,2.3951,2.4098,2.4098,2.4098,2.4187,2.4292,2.4188,2.4259,2.4391,2.4274,2.4376,2.4551,2.4422,2.4506,2.4663,0.0,0.0,0.0,0.0,0.0,0.0,0.0,0.0,0.0,0.0,0.0,0.0,0.0,0.0,0.0,0.7391,0.7527,0.7624,0.7645,0.8052,0.8288,0.8288,0.8553,0.8777,0.8948,0.8948,0.0,0.0,0.0,0.0,0.0,0.0,0.0,0.0,0.0,0.0,0.0,0.0,0.0,0.0,1.1546,0.0,0.0,1.4566,1.4638,0.0,0.0,0.0,1.3266,1.3537,1.2233,0.0,0.0,0.0,0.0,0.0,0.0,0.0,0.0,0.0,0.0,0.0,0.0,0.0,0.7345,0.8848,1.0243,0.0,1.1772,1.3196,1.268,1.3524,1.426,1.418,1.435,1.4549,1.4684,1.4651,1.4586,1.4506,1.45,1.45,1.45,1.4823,1.502,1.502,1.5447,1.6313,1.7711,1.8402,1.8888,1.9094,1.9546,2.0029,2.0609,2.146,2.2053,2.2407,2.3,2.3392,2.3611,2.3601,2.3717,2.3892,2.3892,2.3982,2.413,2.4054,2.4083,2.4187,2.4127,2.4143,2.4217,2.4217,2.4333,2.4464,0.0,0.0,0.0,0.0,0.0,0.0,0.0,0.0,0.0,0.0,0.0,0.0,0.0,0.0,0.0,0.0,0.7461,0.7568,0.8052,0.8031,0.8185,0.8604,0.8675,0.8868,0.9229,0.9279,0.0,0.0,0.0,0.0,0.0,0.0,0.0,0.0,0.0,0.0,0.0,0.0,0.0,1.0982,1.1298,1.2901,0.0,0.0,1.592,1.5858,1.6756,1.5875,1.4436,1.5421,1.3974,0.0,0.0,0.0,0.0,0.0,0.7892,0.0,0.0,0.0,0.0,0.0,0.0,0.0,0.8207,0.9694,1.1163,0.0,1.2672,1.3466,1.271,1.2979,1.327,1.3099,1.3463,1.3958,1.4493,1.4545,1.4478,1.4387,1.4445,1.45,1.45,1.45,1.45,1.45,1.5618,1.696,1.847,1.8535,1.8768,1.9239,1.8991,1.9258,2.0067,2.0605,2.1308,2.2172,2.2189,2.2692,2.3611,2.317,2.3173,2.3526,2.3584,2.3688,2.3876,2.3876,2.4026,2.4276,2.4143,2.4098,2.4098,2.4098,2.4187,2.4278,0.0,0.0,0.0,0.0,0.0,0.0,0.0,0.0,0.0,0.0,0.0,0.0,0.0,0.0,0.0,0.0,0.0,0.8451,0.8553,0.8216,0.8041,0.8134,0.8492,0.8736,0.8817,0.9139,0.0,0.0,0.0,0.0,0.0,0.0,0.0,0.0,0.0,0.0,0.0,0.0,0.0,1.0802,1.223,0.0,1.4745,1.731,1.7306,1.6149,1.7654,1.7027,1.539,1.4928,1.3936,1.2576,0.0,0.0,0.0,0.8288,0.0,0.0,0.0,0.0,0.0,0.0,0.0,0.0,0.8262,0.8977,0.9781,0.0,1.1052,1.194,1.2295,1.3014,1.3527,1.3494,1.3569,1.3669,1.3734,1.4262,1.4381,1.3621,1.4112,1.45,1.45,1.45,1.45,1.45,1.5618,1.6864,1.8125,1.8205,1.8251,1.8354,1.8552,1.8881,1.9309,2.0212,2.0703,2.0819,2.2111,2.2433,2.192,2.299,2.3305,2.3053,2.3437,2.3613,2.3658,2.3658,2.385,2.4141,2.4112,2.4098,2.4098,2.4098,2.4112,2.4128,0.0,0.0,0.0,0.0,0.0,0.0,0.0,0.0,0.0,0.0,0.0,0.0,0.0,0.0,0.0,0.0,0.0,0.0,0.0,0.0,0.8647,0.8647,0.8878,0.9109,0.9338,0.9547,0.9784,0.0,0.0,0.0,0.0,0.0,0.0,0.0,0.0,0.0,0.0,0.0,0.9004,1.0747,1.246,0.0,1.5672,1.8276,1.8542,1.7666,1.8504,1.7848,1.6413,1.5279,1.443,0.0,1.2469,1.1309,1.0216,0.0,0.8956,0.8878,0.0,0.0,0.0,0.8879,0.0,0.0,0.0,0.9748,1.0413,1.032,1.0994,1.1506,1.1203,1.1621,1.1992,1.2006,1.2121,1.2226,1.2253,1.3445,1.4298,1.4256,1.4404,1.4595,1.4828,1.464,1.4729,1.5254,1.5859,1.6733,1.7936,1.7991,1.8032,1.8098,1.8255,1.8589,1.9097,1.9869,2.0419,2.0764,2.1772,2.216,2.2005,2.2353,2.2674,2.2992,2.2902,2.3095,2.3495,2.3495,2.3628,2.385,2.385,2.385,2.385,2.3951,2.4008,2.4008,0.0,0.0,0.0,0.0,0.0,0.0,0.0,0.0,0.0,0.0,0.0,0.0,0.0,0.0,0.0,0.0,0.0,0.0,0.0,0.0,0.9802,0.9505,0.9515,0.9707,1.0098,1.0176,1.0399,0.0,0.0,0.0,0.0,0.0,0.0,0.0,0.0,0.0,0.0,0.0,0.0,1.1753,0.0,1.4731,1.6416,1.8587,1.9179,1.889,1.8927,1.8282,1.7195,1.5824,1.505,1.4581,1.4156,1.2781,0.0,0.0,0.0,0.0,0.0,0.0,0.0,0.0,0.0,1.0749,0.0,0.0,0.0,1.1065,1.1546,0.0,0.0,0.0,0.0,0.0,0.0,0.0,0.0,1.2785,0.0,1.4336,1.4179,1.4171,1.4547,1.445,1.4893,1.6136,1.6228,1.6712,1.7799,1.7868,1.794,1.8109,1.8186,1.8506,1.9095,1.9591,2.0167,2.0816,2.1219,2.1694,2.2194,2.1784,2.2091,2.2942,2.2494,2.2689,2.333,2.333,2.3405,2.3497,2.3569,2.3599,2.3613,2.3774,2.3876,2.392,1.1131,1.0369,0.0,0.0,0.0,0.0,0.0,0.0,0.0,0.0,0.0,0.0,0.0,0.0,0.0,0.0,0.0,0.0,1.1565,0.0,0.0,1.0242,1.0301,1.0398,1.0436,1.0848,1.1124,1.1226,0.0,0.0,0.0,0.0,0.0,0.0,1.0765,0.0,0.0,0.0,1.2967,0.0,1.5889,1.5663,0.0,1.7752,1.8426,1.8059,1.8317,1.7959,1.7222,0.0,1.5459,1.5078,0.0,1.3393,1.2541,1.2238,0.0,0.0,0.0,0.0,0.0,0.0,1.1922,0.0,0.0,0.0,1.2303,1.1636,0.0,1.2422,0.0,0.0,0.0,0.0,0.0,0.0,1.2885,1.3187,1.2822,1.1619,1.1947,1.2299,1.2355,1.3277,1.4675,1.6581,1.6719,1.7004,1.7698,1.7725,1.786,1.8181,1.8482,1.8785,1.9096,1.9469,1.9678,1.9786,2.041,2.0748,2.0864,2.1839,2.2359,2.2512,2.2851,2.3035,2.3138,2.3138,2.3138,2.3183,2.3482,2.3599,2.3599,2.3628,2.3745,2.3891,1.2128,1.137,0.0,0.0,0.0,0.0,0.0,0.0,0.0,0.0,0.0,0.0,0.0,0.0,0.0,0.0,0.0,1.4947,0.0,0.0,0.0,0.0,1.176,1.1549,1.1549,1.208,1.2205,1.1884,1.2636,0.0,0.0,0.0,0.0,0.0,1.2295,0.0,1.4497,0.0,1.4082,0.0,0.0,0.0,0.0,1.8382,1.9339,1.9181,1.8759,1.9001,1.9243,0.0,1.7107,0.0,0.0,0.0,0.0,1.4089,0.0,0.0,0.0,0.0,0.0,0.0,0.0,0.0,1.247,0.0,1.2438,0.0,0.0,0.0,0.0,0.0,0.0,0.0,1.2321,0.0,0.0,0.0,1.266,1.3412,0.0,0.0,1.4001,1.4098,1.4634,1.5773,1.6164,1.6407,1.659,1.7297,1.7759,1.7915,1.825,1.8561,1.887,1.9157,1.9404,1.9605,2.0199,2.07,2.1071,2.1467,2.2072,2.2775,2.2199,2.2384,2.3078,2.2689,2.275,2.3108,2.3243,2.3303,2.3318,2.3435,2.3348,2.3203,0.0,0.0,0.0,0.0,0.0,0.0,0.0,0.0,0.0,0.0,0.0,0.0,1.4583,1.472,0.0,0.0,1.6973,1.7018,0.0,0.0,1.5249,0.0,0.0,0.0,1.3408,1.3444,1.3334,1.3119,0.0,0.0,0.0,0.0,0.0,0.0,0.0,1.4447,1.5951,0.0,1.5846,1.6872,1.7111,1.738,1.7796,1.9171,1.9913,2.0105,1.943,1.9896,2.0528,1.8371,1.8596,0.0,1.8718,1.7253,1.5999,0.0,0.0,0.0,1.4357,0.0,0.0,0.0,0.0,0.0,0.0,0.0,0.0,0.0,0.0,0.0,0.0,0.0,0.0,0.0,0.0,1.2702,0.0,1.233,0.0,0.0,0.0,0.0,0.0,1.4721,1.4687,1.5321,1.5832,1.6157,1.6181,1.7173,1.7795,1.7888,1.8135,1.8394,1.8669,1.8869,1.9217,1.9753,1.9944,2.0484,2.1309,2.0992,2.1549,2.2705,2.1675,2.1768,2.257,2.2098,2.211,2.2433,2.2583,2.2659,2.2747,2.312,2.302,2.2738,1.4814,1.3607,0.0,0.0,0.0,0.0,0.0,0.0,0.0,0.0,0.0,0.0,0.0,0.0,0.0,0.0,0.0,2.0606,1.8723,0.0,1.7919,0.0,0.0,1.413,1.6215,1.4826,1.4435,1.5198,0.0,0.0,0.0,0.0,0.0,0.0,0.0,1.4764,1.5557,1.7663,1.9011,1.991,2.1582,2.2267,2.205,0.0,1.9462,2.0195,2.0169,0.0,0.0,1.9306,1.942,0.0,0.0,0.0,0.0,0.0,0.0,0.0,0.0,0.0,0.0,1.5022,0.0,0.0,0.0,0.0,1.5217,0.0,0.0,0.0,0.0,0.0,0.0,0.0,0.0,0.0,0.0,0.0,0.0,0.0,0.0,0.0,0.0,1.4426,1.485,1.5721,1.6218,1.6677,1.7132,1.7619,1.8041,1.8372,1.8392,1.8463,1.8601,1.8606,1.911,2.0091,1.9435,1.983,2.1092,2.0436,2.0778,2.1924,2.1678,2.1499,2.1365,2.1396,2.1139,2.0735,2.125,2.1534,2.1741,2.2595,2.2909,2.2848,0.0,0.0,0.0,0.0,0.0,0.0,0.0,1.4677,0.0,0.0,1.6374,0.0,0.0,1.9414,1.9989,0.0,0.0,2.182,2.0945,2.026,0.0,0.0,1.775,1.7089,1.7771,1.7245,1.6844,0.0,0.0,0.0,0.0,0.0,0.0,0.0,0.0,1.6169,0.0,0.0,0.0,0.0,0.0,2.1057,2.1177,0.0,2.146,2.1716,2.1716,2.2264,0.0,2.1506,2.2078,2.3293,2.302,2.2081,2.1325,2.2684,2.1763,2.0297,0.0,0.0,2.0984,1.892,0.0,0.0,0.0,0.0,0.0,0.0,0.0,0.0,0.0,0.0,0.0,0.0,0.0,0.0,0.0,0.0,0.0,0.0,0.0,0.0,0.0,0.0,1.5136,1.5261,1.5839,1.5954,1.5432,1.6832,1.7471,1.7149,1.796,1.8269,1.8012,1.8406,1.8818,1.9245,1.9004,1.9413,2.0374,2.0312,2.0757,2.1561,2.1361,2.1502,2.1839,2.0917,2.0773,2.1108,2.0787,2.0707,2.0878,2.2022,2.222,2.1858,1.5845,0.0,0.0,0.0,0.0,0.0,0.0,0.0,0.0,0.0,1.8458,0.0,2.0804,0.0,2.1309,0.0,2.2673,2.2651,2.2518,2.1431,0.0,2.1388,1.9921,1.95,2.0368,0.0,0.0,0.0,0.0,1.8861,0.0,0.0,0.0,0.0,0.0,1.6631,1.7695,1.8591,1.9468,0.0,0.0,2.1404,0.0,0.0,2.238,2.2342,0.0,2.3029,2.3622,2.2812,2.3533,2.4708,2.4445,2.3912,2.3572,2.4492,2.3839,2.2807,2.2841,2.3186,0.0,2.1221,2.0513,0.0,1.8276,0.0,1.7313,0.0,0.0,0.0,0.0,0.0,0.0,0.0,0.0,0.0,0.0,1.3902,0.0,0.0,0.0,0.0,0.0,1.5642,1.5386,1.5024,1.5491,1.5563,1.5052,1.6666,1.7412,1.6973,1.794,1.8298,1.7955,1.817,1.8528,1.9018,1.8897,1.9281,2.0136,1.9819,2.0069,2.0698,2.0228,2.0276,2.0631,2.0052,1.9841,1.9877,1.9922,1.9776,1.9684,2.1034,2.1198,2.0714,0.0,0.0,0.0,0.0,1.4518,0.0,0.0,0.0,1.9825,0.0,2.1233,2.1454,2.1922,2.2283,2.2595,2.2899,2.3088,2.328,2.3456,2.1911,0.0,0.0,2.1428,2.1407,2.3831,0.0,0.0,0.0,0.0,0.0,0.0,0.0,0.0,0.0,1.6666,0.0,1.6843,1.966,2.0796,2.0797,2.2019,2.326,2.425,2.2854,2.2227,2.2147,2.2443,2.2572,2.2686,2.3264,2.3782,2.4274,2.4853,2.5745,2.6459,2.5863,2.6129,2.6301,2.4677,2.423,2.3835,2.2135,2.1908,0.0,0.0,0.0,2.1068,0.0,0.0,0.0,0.0,0.0,0.0,0.0,0.0,0.0,0.0,0.0,1.4344,0.0,0.0,0.0,0.0,1.5652,1.5591,1.5075,1.5272,1.5592,0.0,1.7131,1.777,1.7797,1.8285,1.8482,1.8347,1.789,1.8218,1.9279,1.9022,1.9402,2.0259,1.904,1.8818,1.9428,1.8537,1.8061,1.7985,1.8877,1.8412,1.7288,1.8658,1.8717,1.8224,1.9706,1.9949,1.9492,1.6635,1.6873,1.6862,0.0,1.7418,1.9217,0.0,0.0,0.0,0.0,2.2508,2.3437,2.3115,2.4213,2.4847,2.4542,2.4553,0.0,0.0,0.0,0.0,2.5428,2.4624,2.4428,2.4971,2.3615,2.2987,2.3173,0.0,0.0,2.149,0.0,0.0,0.0,0.0,0.0,1.7614,1.961,2.1031,2.1902,2.1441,2.1878,2.2786,0.0,2.3041,2.3539,2.3384,2.3648,2.408,2.4246,2.4712,2.5238,2.5402,2.581,2.6297,2.667,2.7083,2.7431,2.7476,2.7478,2.7242,2.626,2.5309,2.444,0.0,0.0,0.0,0.0,0.0,0.0,0.0,0.0,0.0,0.0,0.0,0.0,0.0,0.0,0.0,1.4954,1.4993,1.5116,1.5441,1.5764,1.5809,1.5477,1.5515,1.5775,1.6273,1.687,1.7385,1.7796,1.7685,1.7646,1.7654,1.7337,1.7335,1.7631,1.8493,1.8962,1.906,1.9222,1.9202,1.9039,1.8845,1.8556,1.8206,1.8239,1.8119,1.789,1.7731,1.7546,1.754,1.9016,1.9309,1.8988,1.7094,0.0,0.0,1.8593,0.0,0.0,2.0133,2.1697,0.0,2.2491,2.3756,0.0,2.4516,2.5527,2.6076,2.5787,2.5439,0.0,2.5304,0.0,0.0,2.6099,2.6158,2.6112,2.5999,2.5479,0.0,2.4929,0.0,0.0,2.2584,0.0,0.0,0.0,0.0,1.7921,1.8168,2.0271,2.1948,2.3105,2.2735,2.3235,0.0,2.3516,2.3953,2.481,2.4246,2.428,2.4593,2.4593,2.4852,2.5134,2.499,2.5597,2.6447,2.6885,2.7686,2.8541,2.9116,2.9268,2.9173,2.8743,2.8085,2.7381,2.6854,2.5761,2.4835,0.0,2.3933,2.3113,0.0,0.0,0.0,0.0,0.0,0.0,0.0,0.0,0.0,0.0,1.5785,1.5798,1.5733,1.5841,1.5827,1.5617,1.5558,1.5643,1.5947,1.6626,1.7193,1.7614,1.7813,1.7774,1.7492,1.716,1.6961,1.692,1.788,1.8471,1.8729,1.8914,1.8839,1.8575,1.8104,1.7757,1.7515,1.7569,1.7539,1.7424,1.6996,1.6941,1.718,1.7797,1.8154,1.8327,0.0,0.0,0.0,0.0,0.0,0.0,0.0,2.1861,0.0,2.4108,0.0,2.5376,2.5572,2.619,2.6549,2.6455,0.0,2.5563,2.5971,2.5288,2.5305,2.6276,2.6752,2.7014,2.7075,2.7176,2.717,0.0,0.0,0.0,0.0,0.0,0.0,0.0,0.0,0.0,0.0,2.1204,2.2928,2.4252,2.4707,2.5569,2.6409,2.4867,2.5013,2.5957,2.5202,2.4789,2.4599,2.4599,2.463,2.462,2.4431,2.5471,2.6797,2.7047,2.82,2.9479,2.9982,3.0141,3.0136,3.0136,3.0136,3.0083,2.9847,2.8681,2.7771,2.823,2.6584,2.5094,2.5242,0.0,0.0,0.0,0.0,0.0,0.0,0.0,0.0,0.0,0.0,0.0,1.6034,1.5874,1.5777,1.5639,1.5492,1.5425,1.5453,0.0,1.7033,1.7306,1.8026,1.8104,1.7453,1.7057,1.6799,1.6694,1.7316,1.802,1.8797,1.8425,1.8223,1.8111,1.6978,1.6452,1.6452,1.6869,1.6845,1.6537,1.6583,1.6774,1.6975,1.6659,1.6978,1.7595,0.0,0.0,0.0,0.0,0.0,2.4162,2.307,2.4247,2.4859,2.3703,2.5181,2.5862,2.4617,2.5702,2.6275,2.5657,2.5428,0.0,0.0,0.0,0.0,2.7357,2.7465,2.7813,2.8522,2.8128,2.786,0.0,0.0,0.0,0.0,0.0,0.0,0.0,0.0,0.0,2.2054,2.1473,0.0,2.4775,2.4863,2.5105,2.5452,2.6051,2.6549,2.6877,2.6721,2.5762,2.4599,2.4599,2.4749,2.5047,2.5643,2.6388,2.727,2.8509,2.9297,2.9952,3.064,3.0878,3.0911,3.0911,3.0911,3.0901,3.0844,2.9818,2.8918,2.9008,2.7862,2.6706,2.6261,0.0,0.0,0.0,0.0,0.0,0.0,0.0,0.0,0.0,0.0,1.7385,1.581,1.5856,1.5912,1.5777,1.5639,1.5601,1.5717,0.0,1.6505,0.0,1.6884,1.68,0.0,1.6273,1.6084,1.607,1.7113,1.7846,1.8324,1.8523,1.8396,1.7962,1.6833,1.6216,1.6009,1.6089,1.637,1.6767,1.6988,1.6873,1.6667,1.7129,1.716,1.7007,0.0,0.0,0.0,0.0,0.0,0.0,0.0,2.5013,2.5205,2.4386,2.5421,2.5928,2.5124,2.5977,2.6452,2.6053,2.5736,2.569,2.5991,2.5701,2.5977,2.7031,2.7405,2.7706,2.7914,2.8409,2.8491,2.811,0.0,0.0,0.0,0.0,0.0,0.0,0.0,2.1295,0.0,0.0,0.0,2.5686,2.6455,2.6825,2.6948,2.717,2.7344,2.7435,2.7195,2.6572,2.5898,2.5898,2.597,2.6125,2.6339,2.6898,2.7617,2.8405,2.9065,2.9739,3.0701,3.0689,3.0527,3.0905,3.0716,3.0424,3.0424,2.9601,2.8844,2.8844,2.8016,2.7058,2.6242,2.489,0.0,0.0,0.0,0.0,0.0,0.0,1.9233,0.0,0.0,0.0,0.0,1.7501,0.0,0.0,0.0,1.5797,1.5308,0.0,1.6764,0.0,1.7532,1.7736,1.8052,1.7377,1.7108,1.7254,1.7275,1.7586,1.8157,1.8241,1.816,1.7898,1.7041,1.6592,1.646,1.6318,1.6328,1.6459,1.6581,1.6583,1.6502,1.6586,1.6625,1.6722,0.0,2.4156,0.0,0.0,2.4524,2.4382,2.5063,2.5233,2.5258,2.514,2.5485,2.5729,2.5685,2.608,2.6346,2.6293,2.5889,2.5809,2.6241,2.5824,2.5817,2.6431,2.7006,2.7264,2.713,2.8432,2.8877,0.0,0.0,0.0,0.0,0.0,0.0,0.0,0.0,0.0,0.0,0.0,2.6697,2.6941,2.8118,2.8626,2.8626,2.8154,2.802,2.8019,2.7655,2.7509,2.749,2.749,2.7347,2.7173,2.7079,2.751,2.8125,2.8396,2.8938,2.9653,3.0548,3.0386,3.0096,3.0674,3.0385,2.9946,2.9946,2.9271,2.8649,2.8649,2.7995,2.7168,2.6322,2.5991,0.0,0.0,0.0,0.0,0.0,0.0,0.0,0.0,0.0,0.0,1.9306,1.8834,0.0,0.0,0.0,0.0,1.5152,0.0,1.6844,1.7725,1.8094,1.8604,1.9279,1.821,1.7944,1.8494,1.7461,1.7357,1.8084,1.7922,1.7868,1.7826,1.7193,1.6828,1.6634,1.6432,1.6251,1.6116,1.6087,1.6281,1.6531,1.6262,1.6313,1.6591,0.0,0.0,0.0,0.0,0.0,2.5346,2.5371,2.5521,2.5536,2.5231,2.5229,2.5256,2.526,2.5255,2.5251,2.5239,2.5131,2.5118,2.5231,2.5127,2.5444,2.6278,2.638,2.6766,2.7532,2.8398,2.8748,0.0,0.0,2.6353,0.0,0.0,0.0,0.0,0.0,0.0,2.6323,2.6523,2.7394,2.8674,2.8802,2.8904,2.8959,2.8895,2.8924,2.8962,2.8934,2.8831,2.8737,2.8737,2.8172,2.7579,2.8272,2.8726,2.9105,2.9792,3.0139,3.0317,3.0419,3.0434,3.046,3.0523,3.0495,3.0424,3.0424,2.976,2.9123,2.9123,2.8442,2.7733,2.7392,2.6598,2.5427,0.0,0.0,0.0,0.0,0.0,2.1646,2.1015,0.0,0.0,1.913,1.8133,0.0,0.0,1.4981,0.0,0.0,1.58,1.6004,1.6869,1.713,1.7561,1.8233,1.6934,1.7027,1.8493,1.7355,1.7268,1.8084,1.7835,1.7725,1.7684,1.6951,1.6218,1.5555,1.5512,1.5782,1.6182,1.6062,1.6317,1.6817,1.7205,1.6978,1.6574,0.0,0.0,0.0,0.0,0.0,0.0,0.0,2.5614,2.5594,2.546,2.5444,2.5399,2.5268,2.5317,2.5304,2.5234,2.5202,2.5198,2.5227,2.5151,2.5271,2.5624,2.6063,2.6499,2.6922,2.8151,2.8785,0.0,0.0,0.0,0.0,0.0,0.0,0.0,0.0,2.6647,2.7271,2.8189,2.8881,2.9375,2.9249,2.9169,2.9104,2.9032,2.9021,2.9055,2.9099,2.9066,2.9023,2.9023,2.8645,2.8226,2.854,2.862,2.8681,2.897,2.898,2.9006,2.9495,2.9294,2.9058,2.9547,2.9299,2.8933,2.8933,2.8663,2.8429,2.8429,2.8149,2.7876,2.7765,2.7401,2.6618,2.5045,0.0,0.0,0.0,0.0,0.0,2.3489,0.0,2.0959,2.2063,1.9711,1.7922,0.0,0.0,0.0,0.0,1.7067,1.7703,1.8053,1.8334,1.8983,2.0011,1.8365,1.8302,1.9802,1.839,1.7763,1.7852,1.7659,1.7534,1.7434,1.7155,1.6722,1.6214,1.5941,1.5988,1.6231,1.5888,1.6106,1.6636,1.6823,1.6835,1.6765,2.5564,0.0,2.4977,0.0,2.5186,2.4908,2.5266,2.5495,2.5529,2.5241,2.5438,2.5556,2.5397,2.5467,2.5497,2.5424,2.5395,2.5399,2.5418,2.5348,2.5321,2.5354,2.5831,0.0,2.6239,2.7541,2.8254,2.8314,2.7552,0.0,0.0,0.0,0.0,0.0,2.7468,2.8183,2.8248,2.939,2.9836,2.9779,2.9635,2.9519,2.9422,2.9329,2.928,2.9309,2.9354,2.9304,2.9259,2.9259,2.9021,2.8743,2.8743,2.8651,2.8544,2.8544,2.8406,2.8378,2.8957,2.8665,2.8331,2.8889,2.8562,2.811,2.811,2.811,2.811,2.811,2.811,2.811,2.811,2.811,2.762,2.6144,0.0,0.0,0.0,2.2962,0.0,2.4956,2.2511,2.1525,2.3709,2.0914,0.0,0.0,0.0,0.0,0.0,1.7792,1.8527,1.8767,1.8731,1.9401,2.0848,1.9082,1.8978,2.0534,1.8985,1.8116,1.7865,1.762,1.7423,1.7306,1.7306,1.7085,1.6694,1.6175,1.6068,1.6179,1.5618,1.586,1.6525,1.6464,1.6635,1.6908,2.55,2.5605,2.5683,2.5702,2.5683,2.541,2.4543,2.5144,2.5369,2.4446,2.5062,2.5592,2.5597,2.5601,2.5613,2.5696,2.5624,2.5612,2.5698,2.5636,2.5621,0.0,0.0,2.5618,2.5618,2.6479,2.6919,2.6919,0.0,0.0,2.6885,2.7411,2.7583,2.7537,2.9078,2.9777,2.9767,2.9786,2.9874,3.0003,2.9984,2.9988,2.9988,2.9988,2.9988,2.9988,2.9988,2.9822,2.9598,2.9598,2.9377,2.9086,2.9086,2.9086,2.908,2.908,2.908,2.9099,2.9099,2.9002,2.8893,2.8899,2.8743,2.8587,2.8587,2.8587,2.8587,2.8587,2.8587,2.8587,2.8587,2.8587,2.8112,2.6641,0.0,0.0,0.0,2.346,0.0,2.4498,2.2345,2.137,2.2869,2.1123,0.0,0.0,0.0,0.0,0.0,1.7501,1.7616,1.849,1.7606,1.7989,1.9795,1.8219,1.8342,2.0191,1.877,1.8172,1.8265,1.7744,1.7423,1.7306,1.7306,1.7029,1.6556,1.5882,1.5793,1.602,1.5217,1.5599,1.6566,1.6374,1.6552,1.6908,2.4002,2.471,2.5349,2.4836,2.5191,2.5484,2.5251,2.5445,2.5519,2.5234,2.5426,2.56,2.5595,2.5597,2.5615,0.0,2.5071,2.4957,0.0,2.5039,2.4961,2.5546,2.5019,2.4707,2.4704,2.556,2.6309,2.6899,0.0,0.0,2.682,2.6441,2.6827,2.7894,2.894,2.9393,2.9422,2.9921,3.0142,3.0136,3.0136,3.0078,3.0,3.0,3.0,3.0,3.0,2.9946,2.9875,2.9875,2.9838,2.9765,2.972,2.9438,2.9091,2.9091,2.9091,2.9091,2.9091,2.9071,2.9045,2.9045,2.8921,2.8791,2.8791,2.9155,2.9479,2.9422,2.9441,2.9309,2.8715,2.86,2.8124,2.6644,2.689,0.0,2.5296,0.0,2.4142,2.5043,2.2617,2.1727,2.3874,2.2044,0.0,0.0,0.0,0.0,1.9077,1.934,1.9578,1.9719,1.9665,1.9727,1.9927,1.8837,1.8835,1.9918,1.9093,1.8414,1.7879,1.7518,1.727,1.7092,1.7092,1.6962,1.6694,1.6261,1.6526,1.7088,1.5948,1.6093,1.6868,1.6143,1.5964,1.6074,2.4015,2.4673,2.5242,2.479,2.5126,2.5376,2.5081,2.5313,2.5406,2.5087,2.5317,2.5533,2.5563,2.5564,0.0,2.5598,2.5102,2.4996,2.5497,2.5074,2.5016,2.5517,2.5055,2.4931,2.5234,2.5763,0.0,2.7314,2.7362,2.7361,2.7308,2.6786,2.7079,2.8064,2.8535,2.8752,2.8788,2.9233,2.9415,2.939,2.9707,2.9771,2.973,3.0041,3.0142,3.0142,3.0142,3.0117,3.0085,3.0085,3.0067,3.0064,3.0004,2.9738,2.9433,2.9412,2.937,2.9338,2.9338,2.9272,2.9201,2.9201,2.909,2.8956,2.8904,2.9223,2.9495,2.9362,2.9387,2.9248,2.8696,2.86,2.8293,2.7374,2.7696,2.769,2.6661,2.5198,2.4622,2.571,2.3134,2.2256,2.4773,2.3347,2.2533,0.0,0.0,0.0,2.0722,2.0617,2.0407,2.0042,2.0239,2.0273,2.0103,1.9431,1.9379,1.994,1.9078,1.8292,1.7604,1.7267,1.7043,1.6923,1.6923,1.6881,1.6775,1.6371,1.6567,1.695,1.583,1.5829,1.6379,1.5663,1.5528,1.5705,2.5026,2.5202,2.5365,2.5303,2.5348,2.5114,2.431,2.4855,2.509,2.4281,2.4865,2.5361,2.5367,2.5433,2.5478,2.5481,0.0,0.0,2.5571,2.5532,2.5534,2.5595,2.5594,2.5957,2.67,2.6775,2.7161,2.7915,2.8107,2.8162,2.8116,2.8051,2.8014,2.8028,2.8011,2.8006,2.8009,2.8004,2.8033,2.8152,2.8844,2.9127,2.9217,2.9957,3.0237,3.0237,3.0235,3.0163,3.0056,3.0049,2.9999,2.9942,2.9942,2.9988,3.0008,2.9939,2.9818,2.9701,2.9701,2.9569,2.9423,2.9423,2.9267,2.9095,2.9024,2.899,2.8931,2.8735,2.8703,2.8678,2.8618,2.86,2.86,2.86,2.8432,2.8161,2.7741,2.5799,2.4863,2.6148,2.3775,2.3001,2.5417,2.4873,2.4269,2.3992,0.0,0.0,2.2713,2.1408,2.0371,1.9789,1.9771,1.9953,2.0336,1.9938,1.9864,2.0118,1.8778,1.7941,1.7551,1.7103,1.6888,1.6864,1.6835,1.6821,1.6779,1.6314,1.612,1.5996,1.5133,1.5062,1.5398,1.5031,1.52,1.5606,0.0,0.0,2.4974,2.4358,2.4812,2.5207,2.5048,2.5095,2.5091,2.4886,2.4855,2.4673,2.4178,2.4774,2.4969,2.4435,2.4479,2.4786,2.5409,2.4864,2.4831,2.5487,2.5517,2.5633,2.5874,2.6491,2.6869,2.7014,2.7762,2.7808,2.7203,2.7187,2.7206,2.7287,2.7821,2.8108,2.8155,2.8046,2.8379,2.8953,2.8528,2.8364,2.8381,2.8562,2.8634,2.8632,2.8586,2.8576,2.859,2.8537,2.8936,2.9452,2.9414,2.9781,3.0197,3.0038,2.992,2.9853,2.9853,2.9747,2.9631,2.9631,2.9472,2.9434,2.9864,2.9939,2.9862,2.9777,2.9659,2.9388,2.8715,2.86,2.86,2.86,2.8432,2.7624,2.5737,2.4852,2.4103,2.3324,2.3443,2.4005,2.5063,2.5788,2.5798,2.488,0.0,2.3676,2.333,2.2496,2.1869,2.1517,2.1461,2.1242,2.084,2.0338,1.9863,1.9433,1.8787,1.8427,1.8331,1.795,1.7742,1.762,1.7259,1.705,1.6927,1.6613,1.6684,1.6915,1.6098,1.5846,1.584,1.5044,1.4689,1.4623,2.3867,2.4429,2.4927,2.4514,2.4839,2.5173,2.5206,2.515,2.5114,2.5145,2.4983,2.4753,2.4425,2.4758,2.4727,2.4013,2.4439,2.4927,2.537,2.4996,2.4961,2.5435,2.5447,2.5819,2.6593,2.7032,2.7443,2.7841,2.8413,2.8292,2.7541,2.7546,2.7357,2.7029,2.7421,2.7378,2.7024,2.7394,2.7791,2.8236,2.8556,2.8698,2.8695,2.8652,2.8643,2.8601,2.8194,2.8076,2.8097,2.8025,2.8311,2.8751,2.9095,2.9461,2.9851,3.0107,3.0071,2.9956,2.9956,2.9884,2.9832,2.9805,2.9636,2.9549,2.9832,2.9867,2.9789,2.9675,2.9545,2.9296,2.8822,2.8662,2.86,2.86,2.759,2.6303,2.4908,2.3684,2.2964,2.3017,2.3653,2.4552,2.5708,2.6421,2.6404,2.5452,2.4617,2.4155,2.4186,2.3033,2.2374,2.2366,2.2191,2.1924,2.1539,2.1019,2.0346,1.9565,1.9055,1.8697,1.8441,1.8075,1.7884,1.7788,1.7245,1.7008,1.6969,1.6556,1.6487,1.6607,1.6115,1.586,1.5673,1.4894,1.4562,1.4467,2.5005,2.5015,2.5028,2.5095,2.511,2.5107,2.5057,2.5038,2.5022,2.5059,2.5019,2.4946,2.4895,2.4851,2.4588,2.3935,2.4762,2.5236,2.4985,2.4961,2.4968,2.4966,2.5224,2.603,2.742,2.7802,2.8315,2.8988,2.9246,2.9052,2.8443,2.8476,2.8088,2.7381,2.7388,2.6941,2.6258,2.6912,2.7246,2.7421,2.8707,2.9237,2.9235,2.9162,2.9148,2.9069,2.838,2.8126,2.8123,2.806,2.8123,2.8317,2.887,2.9138,2.9323,2.9874,2.996,2.9891,2.9995,2.9992,2.9954,2.9901,2.9723,2.9569,2.9438,2.9397,2.9346,2.9164,2.9012,2.8929,2.8893,2.8767,2.8529,2.8123,2.6349,2.4815,2.4245,2.2751,2.2266,2.3833,2.4353,2.5185,2.6728,2.6874,2.6547,2.5777,2.4639,2.4261,2.4902,2.3337,2.2545,2.2835,2.2495,2.2217,2.2055,2.1578,2.0883,1.9952,1.9424,1.8924,1.8414,1.805,1.79,1.7859,1.7287,1.7064,1.7095,1.6489,1.6161,1.6017,1.5894,1.5706,1.5439,1.4913,1.475,1.4765,2.5005,2.5054,2.5095,2.5098,2.5157,2.5107,2.4871,2.4753,2.4623,2.4465,2.4382,2.4112,2.3489,2.4109,2.4331,2.379,2.455,2.4459,2.3032,2.2953,2.2958,2.2944,2.4466,2.5457,2.5776,2.7829,2.8607,2.803,2.8823,2.9196,2.9153,2.9254,2.9272,2.9193,2.9195,2.9118,2.8943,2.8359,2.8516,2.9141,2.8651,2.8475,2.8475,2.8454,2.8454,2.8434,2.8312,2.8273,2.8274,2.8265,2.8715,2.9159,2.8544,2.8786,2.9165,2.8545,2.8826,2.9448,3.0017,2.9992,2.9823,2.9821,2.9654,2.9502,2.9487,2.9395,2.9315,2.9286,2.9152,2.9033,2.8923,2.8863,2.8141,2.5995,2.5279,2.4248,2.2039,2.2998,2.3956,2.4069,2.5682,2.6908,2.72,2.7226,2.6816,2.5855,2.5746,2.5396,2.4695,2.3849,2.3407,2.345,2.3024,2.233,2.1349,2.1165,2.0646,1.9824,1.963,1.9369,1.9051,1.8881,1.8801,1.8774,1.8278,1.7952,1.7705,1.7109,1.6782,1.6652,1.651,1.6271,1.597,1.5758,1.5512,1.5279,2.5008,2.5018,2.5053,2.5054,2.5066,2.5063,2.4963,2.4888,2.4787,2.4692,2.4646,2.4452,2.4018,2.4244,2.4153,2.3442,2.3647,2.3375,2.2355,2.3365,2.4005,2.401,2.4841,2.5527,2.5976,2.7073,2.7937,2.8555,2.9019,2.9507,3.0001,3.0055,2.9889,2.946,2.9001,2.8818,2.8812,2.8469,2.8786,2.9568,2.9668,2.9707,2.9648,2.918,2.9004,2.8887,2.7949,2.789,2.8222,2.7761,2.8136,2.8819,2.885,2.9068,2.9216,2.8812,2.8941,2.9355,3.0108,3.0143,2.9946,2.9916,2.9763,2.9584,2.9517,2.9456,2.9411,2.9417,2.9307,2.9158,2.8998,2.8899,2.8427,2.7145,2.5848,2.455,2.3265,2.3839,2.4317,2.4077,2.5964,2.7307,2.7307,2.7307,2.6998,2.6229,2.6132,2.5826,2.5221,2.4492,2.3984,2.3777,2.2957,2.224,2.1652,2.1636,2.1237,2.0446,2.0232,1.9875,1.9407,1.9119,1.9,1.8974,1.8429,1.8036,1.7747,1.7148,1.6765,1.6577,1.6531,1.6406,1.622,1.5908,1.5691,1.5546,2.4966,2.5014,2.4942,2.4714,2.4821,2.4877,2.4656,2.4731,2.4816,2.479,2.4834,2.4828,2.4715,2.4555,2.4222,2.3597,2.337,2.3121,2.2823,2.4351,2.5086,2.4671,2.4864,2.5371,2.6208,2.6357,2.7122,2.8575,2.8827,2.9298,2.9954,2.9974,2.9665,2.9041,2.8393,2.8131,2.8186,2.823,2.8612,2.9263,2.9978,3.039,3.0507,2.9844,2.9609,2.9414,2.8086,2.7891,2.8203,2.7528,2.7846,2.8589,2.9013,2.9235,2.9281,2.9096,2.9134,2.9402,3.0199,3.0251,3.0087,3.0034,2.9888,2.9703,2.9589,2.9522,2.9526,2.9502,2.9406,2.9267,2.9031,2.8934,2.8609,2.7827,2.6187,2.4924,2.4735,2.4568,2.4557,2.4815,2.6338,2.7353,2.729,2.7307,2.7071,2.6548,2.629,2.6024,2.5728,2.4964,2.4287,2.373,2.2709,2.2102,2.2008,2.2079,2.1769,2.1091,2.0734,2.0245,1.9682,1.9211,1.9,1.8974,1.8509,1.8104,1.7708,1.7217,1.6807,1.6488,1.6459,1.6474,1.6445,1.6048,1.5918,1.5875,2.4895,2.5095,2.4803,2.3876,2.4329,2.4444,2.3328,2.3781,2.4234,2.4169,2.4328,2.4514,2.4688,2.4692,2.4731,2.4857,2.4721,2.4724,2.4876,2.5082,2.4454,2.2784,2.355,2.4442,2.5377,2.6113,2.657,2.6694,2.7503,2.7939,2.801,2.8124,2.8165,2.8105,2.8106,2.8103,2.8119,2.8108,2.8182,2.8291,2.8378,2.8877,2.9603,2.9609,2.9609,2.957,2.9453,2.8926,2.8281,2.8222,2.8745,2.9275,2.8595,2.886,2.9257,2.8494,2.8756,2.9454,3.0191,3.0251,3.0105,3.0098,2.9985,2.9849,2.9726,2.9631,2.9589,2.9517,2.9443,2.9315,2.9048,2.9044,2.8242,2.5677,2.5119,2.4929,2.4735,2.47,2.5337,2.7115,2.7475,2.7496,2.7323,2.7307,2.7071,2.6548,2.6419,2.6174,2.5712,2.5053,2.423,2.319,2.2414,2.202,2.2008,2.1902,2.1688,2.1349,2.0723,2.0258,1.994,1.9304,1.9,1.9,1.8947,1.8535,1.787,1.7694,1.729,1.6761,1.6637,1.6652,1.6761,1.6595,1.6528,1.6538,2.3966,2.4102,2.4055,2.3714,2.4352,2.4787,2.4372,2.4531,2.4634,2.4485,2.4549,2.4514,2.4351,2.4333,2.432,2.4265,2.4211,2.4345,2.4693,2.4748,2.4609,2.4257,2.4022,2.4341,2.5286,2.4985,2.5405,2.6562,2.6845,2.727,2.7799,2.7897,2.7969,2.7985,2.7464,2.7566,2.8054,2.7516,2.7611,2.8139,2.8134,2.8359,2.8698,2.8725,2.8737,2.8666,2.812,2.8084,2.8223,2.7673,2.8036,2.8631,2.8336,2.8766,2.9434,2.9632,2.9499,2.9478,3.0252,3.0372,3.0273,3.019,3.0082,2.9988,2.9857,2.9712,2.9594,2.9575,2.9913,2.9965,2.9204,2.9494,2.9284,2.7573,2.7254,2.7157,2.6952,2.6939,2.7143,2.7727,2.7786,2.7708,2.7513,2.749,2.7349,2.7022,2.6775,2.647,2.6092,2.5076,2.4142,2.3312,2.2889,2.2426,2.1876,2.2079,2.1961,2.152,2.1179,2.0921,2.0722,2.022,1.9991,1.9965,1.9643,1.9174,1.8606,1.8226,1.779,1.7346,1.7293,1.7137,1.6923,1.687,1.6694,1.6477,2.3068,2.3328,2.3402,2.285,2.3649,2.4274,2.4,2.4407,2.4685,2.4618,2.4654,2.4618,2.4412,2.4372,2.4324,2.4192,2.4136,2.4243,2.4544,2.457,2.4802,2.5251,2.4661,2.4644,2.5293,2.4594,2.4867,2.6167,2.611,2.6398,2.6976,2.7031,2.7091,2.7135,2.6524,2.6615,2.7184,2.6602,2.6704,2.7244,2.7281,2.7472,2.776,2.779,2.7789,2.7709,2.7103,2.7156,2.7382,2.6796,2.7121,2.781,2.7826,2.8376,2.9183,2.999,2.9801,2.9504,3.0337,3.0511,3.043,3.0321,3.0263,3.0173,3.0034,2.9883,2.9763,2.9672,3.0288,3.0482,2.9335,2.9823,3.0037,2.8913,2.8718,2.8625,2.8426,2.8393,2.8302,2.8048,2.8027,2.7901,2.7632,2.7602,2.7529,2.7323,2.6989,2.6624,2.6198,2.5082,2.4178,2.358,2.3257,2.2697,2.1864,2.2184,2.2137,2.171,2.1459,2.1314,2.1253,2.0809,2.0597,2.0572,2.0029,1.9527,1.9058,1.8523,1.805,1.7708,1.7708,1.7418,1.6997,1.6997,1.6751,1.6398,2.2311,2.29,2.2883,2.1027,2.1988,2.2664,2.1662,2.2991,2.4169,2.4368,2.4563,2.4765,2.4964,2.5,2.5,2.5,2.4872,2.4764,2.4704,2.4753,2.4913,2.5182,2.5257,2.5309,2.5309,2.5225,2.5192,2.5192,2.5192,2.5192,2.5192,2.5192,2.5247,2.5309,2.5309,2.5302,2.5308,2.5363,2.5402,2.5408,2.5471,2.6028,2.6802,2.6861,2.6893,2.6893,2.6893,2.6388,2.5707,2.5707,2.623,2.6893,2.6978,2.7547,2.835,2.9161,2.9404,2.9586,3.0455,3.0651,3.0582,3.0525,3.0504,3.0447,3.0254,3.0192,3.0136,2.9876,3.0493,3.0715,2.946,2.9978,3.0214,2.9015,2.8851,2.8834,2.8631,2.86,2.853,2.8327,2.8307,2.8129,2.7654,2.7602,2.7529,2.7323,2.6989,2.6539,2.5927,2.5072,2.44,2.3921,2.3388,2.2757,2.2032,2.2149,2.2137,2.1996,2.1459,2.1277,2.1399,2.0846,2.061,2.0572,2.0042,1.954,1.9071,1.8536,1.8063,1.7722,1.7722,1.7418,1.7011,1.7011,1.6751,1.6398,2.1814,2.1691,2.1424,2.0878,2.211,2.3107,2.2805,2.3643,2.4279,2.4197,2.4234,2.4293,2.435,2.4377,2.4434,2.4567,2.4539,2.4578,2.4696,2.4884,2.5044,2.5129,2.5198,2.5241,2.5295,2.5273,2.5279,2.5279,2.5279,2.5279,2.5279,2.5275,2.5288,2.5295,2.5295,2.53,2.5308,2.5317,2.5353,2.5408,2.5473,2.5659,2.5907,2.5957,2.6029,2.6068,2.6068,2.5906,2.5702,2.5702,2.5859,2.6169,2.6749,2.7095,2.7571,2.899,2.9392,2.9597,3.046,3.0684,3.0655,3.058,3.0575,3.0557,3.0499,3.0337,3.0337,3.0817,3.1471,3.1798,3.1318,3.1423,3.1214,3.0103,2.9353,2.8834,2.8631,2.86,2.8574,2.8517,2.851,2.8406,2.8129,2.7918,2.773,2.7536,2.703,2.6522,2.6067,2.5619,2.5069,2.442,2.4021,2.3584,2.3135,2.2426,2.1961,2.171,2.1746,2.1722,2.1688,2.1614,2.1542,2.1408,2.087,2.0396,1.9965,1.9436,1.8975,1.8615,1.8615,1.8333,1.7884,1.7592,1.7204,1.6782,2.1703,2.1335,2.1023,2.0726,2.1516,2.2284,2.2578,2.3319,2.3914,2.4071,2.4164,2.4215,2.4215,2.4215,2.4265,2.4389,2.4328,2.4386,2.4602,2.4742,2.49,2.5081,2.5141,2.5204,2.529,2.5297,2.5309,2.5309,2.53,2.5305,2.5305,2.53,2.5305,2.5305,2.5305,2.5305,2.5305,2.5305,2.5334,2.5402,2.5437,2.546,2.546,2.5526,2.5585,2.5611,2.5648,2.5687,2.57,2.57,2.5702,2.5781,2.6268,2.6424,2.6695,2.8051,2.8447,2.871,2.9902,3.0224,3.0299,3.0579,3.0366,3.0083,3.0081,2.9963,2.9974,3.0394,3.1308,3.1874,3.1362,3.1468,3.1362,3.0541,2.9626,2.9019,2.9067,2.8799,2.86,2.86,2.86,2.8523,2.832,2.8469,2.8575,2.8551,2.767,2.6985,2.6625,2.6025,2.5384,2.4709,2.4653,2.4312,2.362,2.3391,2.2836,2.1926,2.2162,2.2225,2.2166,2.2537,2.2511,2.2128,2.1588,2.1082,2.0585,1.9888,1.946,1.9225,1.9053,1.8709,1.8265,1.8032,1.7537,1.6969,2.1939,2.1648,2.1374,2.0629,2.0557,2.083,2.1502,2.2383,2.3235,2.3977,2.4234,2.4355,2.4368,2.4372,2.4376,2.4398,2.4229,2.4238,2.4482,2.4438,2.4607,2.505,2.5063,2.5144,2.5276,2.5284,2.5289,2.5292,2.5295,2.5305,2.5305,2.5305,2.5305,2.5305,2.5305,2.5305,2.5305,2.5305,2.5346,2.5398,2.5405,2.5395,2.542,2.5481,2.5511,2.5525,2.5588,2.5645,2.5703,2.5708,2.5699,2.5703,2.5701,2.5701,2.5878,2.6738,2.6991,2.7376,2.9036,2.9509,2.9693,3.0498,3.0002,2.935,2.9418,2.942,2.9393,2.9357,3.0549,3.1312,3.0407,3.0705,3.0955,3.0514,2.9807,2.9429,2.9682,2.9211,2.8787,2.8726,2.8763,2.8735,2.8575,2.9224,2.9755,2.997,2.8724,2.7822,2.757,2.6546,2.5701,2.5118,2.5441,2.5056,2.3915,2.4827,2.4338,2.2454,2.2738,2.2822,2.2756,2.3455,2.3402,2.2699,2.2168,2.1605,2.0986,2.0029,1.963,1.9617,1.9198,1.8774,1.8398,1.8431,1.7835,1.7011,2.2363,2.1923,2.1352,2.0558,2.0994,2.1478,2.1575,2.2268,2.3027,2.3764,2.3896,2.3986,2.4141,2.4178,2.4224,2.4385,2.4359,2.4355,2.4429,2.4402,2.4536,2.4855,2.4865,2.4945,2.5135,2.5198,2.526,2.5298,2.5303,2.5305,2.5305,2.5305,2.5305,2.5305,2.5305,2.5305,2.5305,2.5305,2.5346,2.5403,2.541,2.5431,2.5487,2.5546,2.5588,2.5595,2.5654,2.5691,2.57,2.5702,2.5703,2.5703,2.5702,2.5702,2.5879,2.6737,2.7009,2.7376,2.9036,2.9509,2.9695,3.0493,3.0066,2.9629,3.0243,3.0351,3.0498,3.1081,3.138,3.1638,3.1962,3.1564,3.1083,3.0827,3.0502,3.0027,2.9274,2.9964,3.0297,2.9621,3.0104,3.0473,3.0493,3.0334,3.0151,2.9951,2.9426,2.9015,2.8759,2.8246,2.7817,2.7477,2.6799,2.6372,2.6254,2.5625,2.4461,2.2791,2.3695,2.3722,2.3026,2.344,2.3431,2.3062,2.2471,2.1972,2.1456,2.0374,1.9978,2.0029,1.9512,1.925,1.9181,1.9337,1.8451,1.7067,2.3056,2.2501,2.1917,2.152,2.1211,2.1143,2.1461,2.1525,2.1978,2.313,2.3288,2.3456,2.3918,2.3964,2.4004,2.4097,2.4107,2.4135,2.4201,2.4211,2.431,2.455,2.4558,2.4685,2.4946,2.4984,2.5094,2.5251,2.5251,2.5264,2.5305,2.5305,2.5305,2.5305,2.5305,2.5305,2.5305,2.5305,2.5317,2.5358,2.5344,2.5386,2.547,2.5532,2.5558,2.5567,2.5639,2.5665,2.5698,2.5702,2.5703,2.5703,2.5702,2.5702,2.5781,2.625,2.668,2.7285,2.8585,2.9207,2.9692,3.0532,3.0425,3.0127,3.0128,3.0074,3.0152,3.0569,3.0842,3.1136,3.149,3.1077,3.0749,3.0917,3.0475,3.0118,3.0092,3.0393,3.0559,3.0384,3.0745,3.1189,3.1626,3.1319,3.11,3.1225,3.0633,3.0084,2.965,2.9128,2.8639,2.8207,2.8033,2.7705,2.7195,2.7139,2.631,2.4716,2.5057,2.4783,2.402,2.4549,2.4374,2.3594,2.2984,2.2449,2.1897,2.0832,2.0422,2.0447,1.9965,1.9655,1.951,1.9609,1.8827,1.7554,2.3639,2.3146,2.2687,2.2607,2.1522,2.0857,2.1336,2.0884,2.1025,2.2505,2.2699,2.2975,2.3728,2.38,2.3798,2.3809,2.3804,2.3855,2.3991,2.4006,2.4107,2.4345,2.4362,2.4493,2.4775,2.4826,2.4948,2.5179,2.5179,2.5225,2.5274,2.5274,2.5298,2.5305,2.5305,2.5305,2.5305,2.5305,2.5305,2.5305,2.5305,2.5334,2.5387,2.5464,2.5489,2.552,2.5568,2.5637,2.5708,2.57,2.5703,2.5703,2.5701,2.5701,2.5702,2.57,2.6322,2.718,2.8065,2.8885,2.9706,3.0573,3.0799,3.0615,2.9881,2.9669,2.9617,2.9622,3.0076,3.0468,3.0403,3.0375,3.0513,3.0985,3.0624,3.0552,3.1291,3.1023,3.0869,3.1206,3.1359,3.1721,3.2423,3.2205,3.2215,3.2705,3.1953,3.1203,3.0573,2.9984,2.9385,2.8746,2.9174,2.8936,2.7931,2.8728,2.8457,2.7121,2.6702,2.6013,2.5134,2.5811,2.5422,2.4231,2.3621,2.3012,2.2376,2.1342,2.0913,2.0858,2.0435,2.0054,1.9734,1.95,1.9008,1.8203,2.3528,2.3522,2.3316,2.2622,2.2393,2.2096,2.1494,2.1323,2.1595,2.2572,2.2699,2.2975,2.3728,2.38,2.3798,2.3809,2.3804,2.3855,2.3991,2.3999,2.4178,2.4536,2.4607,2.4661,2.47,2.4882,2.5012,2.5101,2.5101,2.5152,2.5203,2.5203,2.5246,2.5305,2.5305,2.5305,2.5305,2.5305,2.5305,2.5305,2.5305,2.531,2.5322,2.5386,2.5448,2.5492,2.5501,2.5584,2.5703,2.5698,2.57,2.5701,2.57,2.57,2.57,2.57,2.6322,2.7181,2.8066,2.8886,2.9707,3.0582,3.0806,3.0773,3.065,3.0575,3.0521,3.0515,3.0474,3.0406,3.0398,3.0957,3.1376,3.1263,3.2264,3.2765,3.1934,3.2662,3.3058,3.2386,3.2816,3.3183,3.3252,3.3056,3.2922,3.2959,3.2992,3.2685,3.1977,3.1941,3.1623,3.0901,3.0247,2.997,3.0075,2.9536,2.9121,2.8853,2.8619,2.7482,2.5609,2.5943,2.5645,2.4828,2.4245,2.3635,2.3,2.1876,2.1371,2.1264,2.0747,2.051,2.0321,1.9109,1.8791,1.8771,2.3436,2.3516,2.3488,2.3119,2.2749,2.2371,2.2006,2.1647,2.1546,2.1913,2.2389,2.2825,2.3156,2.3542,2.3798,2.3809,2.3804,2.3802,2.3821,2.3824,2.3937,2.4135,2.4247,2.4376,2.4526,2.4734,2.4891,2.5038,2.5075,2.5124,2.5146,2.5146,2.5187,2.5244,2.5209,2.5212,2.5244,2.5209,2.5182,2.5182,2.5182,2.5212,2.5252,2.531,2.5385,2.5462,2.5563,2.5659,2.5706,2.5698,2.5701,2.5701,2.5698,2.5698,2.57,2.57,2.6653,2.7819,2.8193,2.9243,3.0315,3.0699,3.08,3.08,3.0804,3.075,3.0701,3.0701,3.0999,3.1233,3.1233,3.1858,3.2344,3.2253,3.2706,3.298,3.2773,3.3577,3.413,3.3919,3.4064,3.396,3.3455,3.3326,3.3196,3.3006,3.308,3.3035,3.2834,3.2476,3.217,3.191,3.1137,3.0713,3.0672,3.0065,2.9722,2.97,2.9539,2.8479,2.6705,2.6834,2.6375,2.5481,2.5178,2.4534,2.3648,2.28,2.2228,2.1847,2.1276,2.0772,2.0232,1.9058,1.8799,1.884]}]]